GFSNW_sfc_thetae_000.txt.gz
Theta_e
309 309 309 309 309 310 317 326 307 330 336 307 309 308 306 304 306 309 308 307 305 303 303 301 301 300 303 306 306 300 301 299 297 296 302 303 301 299 298 293 290 294 292 289
307 309 308 309 309 309 324 313 315 328 329 306 314 308 306 307 305 306 306 305 307 307 304 299 302 303 307 307 305 302 303 300 294 294 299 302 298 300 298 298 294 289 288 290
307 308 308 309 309 309 319 317 308 311 315 317 309 306 304 304 309 307 308 307 307 306 303 305 302 302 305 307 305 303 304 299 295 291 293 297 294 296 297 296 292 291 292 293
306 308 308 308 308 309 320 319 311 310 310 311 309 309 306 304 302 307 308 305 305 304 301 302 301 304 303 304 302 304 303 297 297 296 296 296 295 295 295 294 295 290 293 293
306 308 309 308 308 307 321 314 312 314 312 312 308 304 305 304 304 305 303 303 306 306 302 301 300 302 301 301 304 303 303 297 294 293 297 296 293 295 295 295 295 295 295 295
308 310 308 307 308 311 322 320 322 316 306 310 308 308 306 305 308 308 308 307 306 303 305 308 308 308 307 305 303 302 298 296 293 290 294 292 290 294 296 296 298 297 292 297
311 310 308 307 308 309 327 324 320 315 308 312 308 308 308 306 307 305 307 308 306 308 311 309 308 307 306 306 304 306 293 294 294 289 289 285 296 300 300 297 298 299 299 300
310 309 308 307 307 309 325 323 322 314 294 311 308 307 307 308 308 307 307 309 311 313 309 304 295 295 292 296 301 303 303 299 288 287 287 291 294 298 296 295 294 300 300 300
309 309 308 307 307 308 325 322 324 320 310 310 310 307 308 308 307 307 306 312 315 313 311 298 289 293 294 293 294 301 300 298 296 288 284 282 296 300 303 301 290 302 301 299
309 309 308 307 307 308 319 323 326 324 314 313 313 309 309 312 309 306 307 309 307 311 299 289 296 295 298 291 289 288 289 292 289 288 286 290 298 301 302 289 292 302 301 299
310 309 308 307 307 307 316 324 325 323 317 313 315 314 312 311 311 307 309 307 309 307 291 293 298 292 298 296 297 292 290 289 286 289 286 284 302 300 293 300 304 302 301 300
309 310 308 308 307 307 309 323 324 326 321 315 321 318 319 316 315 314 313 308 308 310 303 299 301 290 290 294 290 299 293 298 296 294 294 303 304 302 305 304 302 301 300 300
308 308 308 308 308 308 310 324 325 327 322 315 314 312 317 321 320 325 310 315 313 312 314 300 294 288 296 287 295 298 299 302 299 297 300 301 304 305 305 304 302 302 302 301
307 308 307 308 308 308 309 323 324 323 312 291 313 317 315 318 320 319 322 318 319 317 310 295 290 289 304 294 298 299 301 301 299 298 301 302 303 303 303 302 303 302 302 301
305 306 305 305 309 308 316 325 324 324 318 301 310 314 315 317 319 317 318 317 315 312 300 290 293 306 305 304 301 299 302 298 296 295 302 302 301 302 302 301 301 301 300 297
303 305 306 305 306 307 322 314 323 323 324 310 299 314 311 314 316 315 314 315 315 313 306 296 304 309 306 291 292 300 302 303 304 301 305 304 303 303 303 300 299 299 297 296
303 305 305 305 306 317 314 311 313 309 322 307 299 304 308 310 313 314 313 316 313 311 309 305 303 306 305 291 291 300 302 303 304 305 304 300 301 299 302 299 298 297 296 294
305 305 305 305 305 308 313 316 312 311 317 313 299 296 299 308 300 300 307 304 306 307 305 303 301 305 303 294 300 302 303 303 302 302 302 301 302 302 298 297 296 293 291 291
304 305 305 312 311 311 314 305 307 322 314 306 295 291 290 307 298 299 300 302 293 304 295 297 299 294 291 298 299 300 302 300 300 301 301 299 297 295 295 293 292 290 290 290
304 306 302 295 299 305 306 312 310 307 311 307 293 302 294 302 294 291 294 294 292 289 292 294 289 291 299 301 302 303 302 302 301 297 295 295 293 292 291 290 291 291 290 289
301 295 291 298 303 306 303 295 295 295 293 298 297 296 293 301 292 290 294 289 290 287 290 290 287 287 294 300 301 301 301 301 300 299 298 296 292 290 290 291 291 289 288 287
299 299 300 299 295 290 291 289 289 290 292 292 288 293 298 295 301 294 289 287 286 285 291 285 286 293 298 299 298 299 299 298 296 294 292 292 291 291 291 290 289 287 287 285
298 292 288 290 286 284 285 284 285 286 287 287 287 286 290 290 292 286 286 284 285 289 285 284 290 295 297 298 298 297 295 291 292 291 291 291 290 289 285 286 286 285 286 288
288 285 284 285 285 285 285 285 285 287 286 287 288 286 287 286 286 285 284 286 287 283 282 284 291 294 296 297 297 294 290 286 288 289 290 287 287 285 285 285 285 284 284 286
289 288 284 285 286 286 286 285 286 287 290 288 287 287 288 285 284 285 285 282 281 283 284 288 291 293 293 292 293 289 287 285 287 290 288 285 285 285 286 286 286 286 286 285
291 288 286 286 286 285 285 285 285 290 289 291 290 285 285 284 285 283 283 282 281 286 289 293 290 289 290 290 290 289 290 289 289 289 288 287 286 285 286 287 286 286 285 285
286 285 286 286 286 285 286 287 289 293 288 285 287 284 282 285 283 283 286 284 287 288 292 291 290 289 290 290 290 287 288 289 289 289 289 288 287 287 286 285 287 288 287 287

GFSNW_sfc_thetae_003.txt.gz
Theta_e
307 308 308 309 309 310 313 314 300 322 323 299 301 299 307 302 304 307 306 305 303 300 300 299 299 298 300 304 304 297 298 294 284 293 299 300 297 296 295 282 285 283 280 283
306 308 308 308 308 309 317 308 310 320 320 291 292 307 305 306 303 304 304 303 304 304 300 295 300 300 305 305 301 297 299 291 283 289 295 298 295 297 298 294 285 282 277 283
304 307 308 308 308 309 314 311 297 307 308 309 305 304 302 302 307 305 306 304 305 302 300 302 299 299 304 304 301 301 301 296 287 282 288 292 289 293 295 293 282 284 284 289
304 306 308 308 308 308 315 313 303 302 291 298 303 304 303 301 300 305 306 302 303 301 294 298 297 300 301 303 301 302 299 289 292 293 293 294 293 292 292 290 290 284 288 291
305 309 308 307 307 305 313 310 306 305 301 302 302 300 301 301 303 303 301 300 303 303 295 298 295 300 299 298 300 299 300 287 285 285 294 293 290 292 292 292 292 292 292 292
309 309 308 307 307 309 314 314 313 310 302 301 299 298 303 304 304 303 306 303 300 296 301 303 303 303 302 302 299 295 290 284 283 282 290 287 281 288 294 294 294 293 285 293
310 309 308 307 307 308 318 316 315 302 292 298 301 306 306 303 303 300 306 305 299 304 305 300 298 297 299 302 301 299 287 287 283 278 281 274 292 298 297 294 295 297 297 296
309 308 308 307 307 308 316 316 316 304 290 302 304 304 304 304 305 303 304 305 306 307 304 290 287 285 285 289 301 299 297 285 279 279 277 284 291 295 293 290 290 298 296 296
308 308 307 307 307 308 317 315 317 311 298 298 309 303 304 296 297 297 302 309 310 309 289 285 281 281 286 285 292 296 295 286 283 277 275 272 287 297 300 298 283 298 297 295
308 308 307 307 307 308 314 315 318 316 303 307 308 302 301 306 301 295 300 300 300 304 288 285 284 283 293 285 283 281 281 280 277 281 273 282 294 298 300 283 285 298 297 295
309 308 307 307 307 307 312 316 318 317 305 306 312 312 304 306 303 293 300 296 297 289 286 285 285 282 285 285 291 287 283 280 283 281 278 276 298 297 288 292 297 297 297 296
309 307 307 307 307 307 309 316 319 321 312 309 314 313 312 310 310 305 303 298 302 297 290 289 290 285 287 283 280 295 285 289 285 286 285 294 299 297 301 301 298 297 295 297
308 308 307 307 307 307 309 316 317 318 305 306 308 307 314 316 314 315 302 301 308 305 302 293 291 286 290 284 287 286 294 299 287 288 296 297 299 302 302 301 299 299 299 299
308 307 306 305 307 307 309 315 317 313 303 289 302 313 310 314 315 315 314 310 311 307 299 291 289 285 296 287 289 287 292 297 293 290 296 298 299 300 301 300 301 301 302 301
303 304 305 304 305 307 310 317 316 317 309 292 296 310 312 314 314 313 313 310 307 301 291 288 287 288 291 288 287 286 298 294 288 286 298 297 297 300 301 299 299 301 300 295
303 304 304 305 305 306 314 308 315 312 316 301 290 306 306 309 311 310 310 309 307 304 294 288 294 304 293 287 285 296 301 302 301 296 302 301 300 301 302 299 297 295 294 292
303 304 305 306 306 311 307 305 307 306 312 295 291 290 300 305 308 305 306 308 305 302 294 289 289 293 298 287 288 297 300 301 300 303 301 297 300 297 300 297 295 295 291 290
303 304 306 306 305 306 308 310 307 307 309 300 291 290 292 304 292 292 300 295 298 299 297 295 290 293 288 285 296 299 301 301 300 300 300 299 301 300 297 295 291 288 287 287
304 305 306 310 306 300 306 305 305 314 306 290 289 288 287 299 294 294 293 296 288 296 289 291 293 288 289 293 297 298 298 298 297 299 300 300 296 293 292 290 288 287 286 286
305 306 303 294 298 304 305 307 297 295 294 296 289 295 289 297 289 288 289 288 287 287 289 293 287 288 294 298 298 298 298 299 299 294 292 292 291 289 288 288 288 288 286 286
302 295 291 298 303 304 298 291 290 292 289 294 293 291 290 295 288 287 289 286 287 285 285 287 284 285 290 296 297 298 299 300 299 298 295 292 290 288 287 287 286 284 283 283
299 299 300 298 295 290 290 288 288 288 288 289 289 291 292 291 296 288 287 286 286 283 288 285 282 286 294 295 295 297 296 294 292 292 290 289 289 289 285 284 283 281 282 280
297 293 288 291 286 284 285 284 285 285 286 287 287 286 287 289 290 286 286 285 284 287 284 282 282 292 295 296 290 289 289 288 289 289 288 287 286 285 280 281 279 280 283 283
288 286 284 284 284 284 284 284 285 286 285 286 286 285 286 285 285 285 283 284 284 281 278 276 286 292 293 293 290 287 286 284 284 285 284 282 281 279 277 278 278 275 278 281
286 286 283 283 284 285 285 285 285 286 288 287 286 286 287 284 283 284 283 280 279 281 281 283 286 289 290 288 288 285 283 282 284 285 283 281 280 277 280 280 281 283 284 284
287 285 284 285 285 285 285 285 285 289 287 287 286 284 284 283 283 281 281 280 279 282 284 285 286 286 286 286 286 285 285 285 285 285 283 283 280 279 281 283 285 284 285 284
285 283 285 285 285 284 285 285 286 291 286 285 285 282 280 283 281 280 284 282 284 285 285 285 286 286 286 287 287 284 285 286 285 284 285 282 281 280 284 283 284 281 282 282

GFSNW_sfc_thetae_009.txt.gz
Theta_e
308 309 309 309 310 310 311 303 292 311 304 293 293 293 301 302 299 303 302 301 298 295 297 295 294 294 296 300 299 292 295 289 282 289 295 296 293 291 289 280 282 279 277 281
308 308 308 308 309 311 309 301 305 314 302 286 283 296 303 301 299 299 300 299 300 300 296 292 296 296 300 298 297 294 294 287 281 287 292 294 291 293 292 287 283 282 275 279
307 308 308 308 309 310 310 301 295 300 302 296 293 295 297 297 302 301 301 299 301 298 296 298 294 295 299 298 297 300 298 291 285 282 286 288 285 289 291 288 279 281 281 284
305 306 308 308 308 308 310 303 295 298 289 293 300 300 298 297 296 301 301 298 299 296 291 293 293 296 296 298 299 298 294 286 288 288 290 289 288 288 289 288 287 283 286 286
305 308 307 308 308 308 307 304 298 298 292 297 298 296 298 298 298 299 297 297 299 297 293 295 293 295 293 292 297 295 292 284 283 284 290 289 286 288 288 288 288 288 288 288
308 308 307 307 307 309 305 306 307 300 293 293 294 293 299 299 300 300 301 300 296 293 297 298 298 298 298 297 295 289 286 282 280 278 284 284 278 285 289 289 291 289 285 290
308 307 307 307 308 310 312 311 306 297 288 290 293 300 300 300 299 298 300 300 296 299 300 298 296 294 297 298 296 293 285 282 277 275 276 272 286 291 293 291 292 292 291 292
307 307 306 306 307 309 315 312 306 298 287 294 298 300 300 300 300 299 300 302 301 302 293 287 286 283 286 287 295 293 290 280 279 274 275 280 286 291 291 289 289 294 291 292
306 306 306 306 307 309 313 312 308 302 298 295 303 299 299 292 292 293 297 305 303 297 284 283 278 278 283 283 289 292 288 282 279 277 271 271 282 292 296 293 283 295 294 292
306 306 306 306 307 310 313 310 311 306 297 302 302 297 298 298 295 291 296 296 296 294 280 276 280 281 287 282 281 279 279 275 274 273 270 279 287 294 295 283 283 295 295 294
306 306 306 306 306 307 313 311 312 307 300 303 306 306 301 300 298 292 297 295 293 285 282 278 279 279 283 282 286 284 283 279 275 278 272 276 292 293 287 291 292 296 295 294
307 305 304 305 306 307 311 310 314 312 305 304 308 308 308 306 304 300 297 296 295 292 285 282 285 283 285 280 280 289 282 285 282 284 284 291 293 294 295 296 295 295 295 295
302 303 303 304 305 308 312 311 310 305 298 301 304 304 310 312 310 308 298 295 301 297 293 290 285 279 282 281 283 283 290 293 285 287 292 293 294 296 299 298 297 297 297 296
303 304 304 304 306 308 312 309 308 302 295 289 298 309 307 312 313 311 306 304 301 297 293 288 286 281 290 281 286 284 289 293 290 287 292 294 297 298 299 299 298 297 298 297
304 305 305 305 307 308 311 309 307 308 301 290 291 304 308 309 311 308 307 305 301 294 288 286 285 283 288 287 285 285 293 291 285 285 293 294 293 298 299 297 297 298 296 292
304 305 305 306 306 309 306 300 308 307 306 296 290 298 301 304 307 306 306 305 300 297 292 286 289 294 288 287 287 294 296 298 295 294 296 295 297 298 299 298 299 299 291 289
304 305 305 304 306 307 302 296 304 304 304 294 291 288 296 300 302 298 300 301 299 298 292 288 290 288 293 287 285 295 296 298 299 299 299 294 296 296 299 295 292 291 289 289
305 306 305 305 306 306 305 306 303 304 299 294 288 287 289 299 290 290 298 291 296 296 293 291 290 289 287 286 293 296 298 298 298 298 300 298 298 297 291 289 288 287 286 286
306 305 305 305 303 301 304 303 303 304 300 290 287 286 286 295 292 290 290 294 287 294 290 289 290 286 287 292 294 295 296 296 296 297 297 296 293 289 289 288 288 286 285 285
304 302 296 293 298 304 304 301 295 293 295 292 286 290 288 295 287 287 287 287 289 287 289 292 287 288 292 293 294 295 296 297 297 291 289 287 287 289 290 289 289 288 286 285
299 296 292 299 302 298 294 290 289 291 289 292 290 288 289 294 288 288 287 286 285 285 284 288 286 284 287 292 291 291 294 292 291 292 291 291 290 288 286 286 287 286 284 283
298 297 299 296 291 289 287 287 287 287 287 287 288 289 292 290 291 289 287 286 285 283 287 285 283 283 285 286 287 288 289 289 288 289 288 289 289 290 288 285 283 282 281 278
296 293 289 293 287 286 286 285 285 285 285 287 286 287 287 289 290 286 286 285 284 285 284 283 284 287 289 288 288 288 290 289 289 289 290 288 285 284 282 282 280 279 280 282
289 287 285 285 283 283 284 284 285 285 285 285 286 285 286 285 286 285 284 284 284 282 277 275 284 287 288 288 289 288 286 286 286 284 284 282 282 281 279 279 277 275 277 279
286 285 281 281 283 285 285 285 285 286 287 286 286 285 286 284 284 284 282 280 278 278 277 283 285 287 287 285 284 283 283 283 284 284 282 281 280 279 280 279 278 281 281 278
286 285 282 284 284 284 285 285 285 288 286 286 286 284 283 282 282 279 275 275 275 281 284 284 285 285 284 285 286 286 286 285 284 283 282 281 279 279 281 280 278 277 277 277
285 283 285 285 285 285 285 285 286 289 286 284 284 278 277 282 278 278 283 280 283 285 285 285 286 285 286 286 286 284 285 285 285 283 284 282 279 276 277 279 283 280 280 276

GFSNW_sfc_thetae_012.txt.gz
Theta_e
310 309 307 309 310 310 310 299 292 307 302 293 291 291 299 302 298 301 300 298 296 293 295 293 292 292 294 297 298 292 293 288 282 288 293 295 292 289 287 279 280 278 276 280
309 307 309 309 309 311 308 299 304 312 302 285 283 293 299 301 297 298 298 297 298 298 295 291 294 295 298 296 295 293 293 286 281 286 289 291 289 291 289 285 282 281 275 280
308 308 308 308 309 311 307 302 295 300 298 294 292 293 294 296 300 299 299 298 299 296 295 296 293 294 297 297 296 299 297 288 285 281 284 287 285 289 289 286 278 280 280 282
306 308 308 308 308 309 309 299 295 299 289 292 293 295 296 295 295 299 299 297 297 295 291 292 291 294 294 296 298 296 292 285 286 287 288 288 286 286 288 286 285 283 284 284
305 305 308 308 308 308 306 302 296 293 292 298 298 294 296 296 296 297 295 295 297 296 291 293 292 294 291 290 296 292 290 282 283 284 288 287 285 287 287 287 287 287 286 286
305 307 307 307 308 309 303 304 303 298 290 292 294 292 298 298 298 298 299 298 295 292 295 297 296 296 295 295 294 287 284 281 279 277 282 281 278 284 286 286 287 287 284 288
308 307 307 307 307 309 308 307 304 295 285 287 293 298 299 298 297 297 298 298 295 297 300 297 295 294 295 296 294 291 282 280 277 275 276 271 285 289 289 289 290 291 290 290
307 306 306 307 307 308 311 309 304 297 283 290 294 298 298 298 299 297 298 300 299 299 293 287 287 284 285 286 292 289 287 280 277 274 274 280 284 289 289 288 287 292 291 290
306 306 306 306 307 309 311 310 305 301 293 292 300 298 297 290 291 290 295 302 300 294 283 282 279 280 283 282 287 290 286 281 279 273 271 270 283 288 293 292 283 293 293 291
306 306 306 306 307 309 313 309 309 304 297 300 301 296 296 297 293 290 295 296 294 293 279 276 277 279 285 282 281 278 280 278 273 273 269 278 286 292 294 283 284 293 293 292
305 305 305 306 308 309 314 310 310 305 300 301 305 304 299 298 296 291 296 294 292 284 282 279 279 276 283 282 285 284 282 279 274 275 270 275 290 292 287 291 290 293 293 293
302 303 303 305 307 309 314 312 313 309 304 303 307 307 306 305 302 298 295 296 294 292 284 278 282 283 284 278 279 288 282 284 281 282 282 289 291 292 294 294 293 294 294 294
303 304 304 306 307 309 312 310 306 304 298 301 303 302 309 311 308 306 297 293 298 293 291 284 285 279 281 280 282 282 288 290 283 286 290 290 292 294 296 297 295 296 296 296
304 304 305 306 308 309 310 308 305 301 295 289 296 307 305 310 311 308 304 301 298 295 292 283 285 280 287 279 284 283 288 291 288 286 291 291 294 296 296 297 297 297 297 297
305 305 306 307 307 309 310 307 305 305 299 290 291 302 304 307 308 305 304 302 298 293 287 283 285 282 286 286 285 284 291 290 285 284 292 292 292 295 297 297 297 298 296 294
304 304 305 306 307 308 301 298 305 307 302 296 290 296 299 303 305 304 303 302 298 295 291 285 287 292 287 286 282 292 294 294 294 293 293 294 294 296 297 297 298 297 294 290
305 305 305 306 306 307 298 295 303 304 301 294 290 289 294 298 300 298 299 300 297 296 291 286 283 289 290 287 281 295 295 297 297 297 295 294 295 296 297 297 295 290 288 288
305 305 305 305 305 305 304 305 304 303 297 293 286 286 288 297 290 290 297 291 295 295 292 290 288 290 288 287 292 294 296 297 297 297 297 296 296 290 288 288 288 286 286 287
304 304 304 305 303 301 303 303 303 303 299 288 287 286 285 295 291 290 291 293 287 293 289 288 291 286 287 290 290 291 293 293 294 295 295 292 287 286 287 287 288 286 285 285
303 302 296 293 299 304 303 299 294 292 292 293 286 291 288 296 287 287 287 287 289 287 288 292 287 288 289 287 288 289 291 293 294 288 285 285 286 287 288 288 288 287 286 287
298 294 293 300 301 298 291 288 287 290 289 291 289 288 288 293 289 288 287 286 286 285 283 287 285 285 284 286 286 288 288 289 289 289 290 290 289 287 287 286 287 286 285 284
297 298 298 294 292 289 287 286 287 287 284 287 288 288 291 289 290 289 287 286 285 283 287 285 282 282 286 286 286 288 289 290 290 291 290 290 290 290 288 285 284 282 282 279
295 291 287 291 287 287 285 284 285 285 285 286 286 287 286 288 289 286 286 285 284 286 284 283 283 287 289 289 289 290 291 290 290 290 289 287 285 284 282 282 280 280 281 282
289 287 286 286 284 283 283 284 285 285 285 285 286 285 286 285 286 285 285 284 284 282 279 277 284 286 286 287 287 287 285 283 283 283 283 282 282 281 280 279 279 277 279 280
286 286 281 281 283 284 285 285 285 285 287 286 286 286 287 285 284 284 282 277 274 274 271 282 284 285 285 284 284 285 284 281 282 283 282 281 280 279 280 280 279 279 279 277
286 284 283 284 284 284 285 285 285 288 286 286 286 284 283 282 282 277 276 275 272 279 284 284 285 284 285 285 286 286 285 284 284 283 282 280 276 276 279 278 277 277 277 277
284 283 285 284 285 284 285 285 286 289 286 284 283 277 277 282 275 274 279 275 281 285 285 286 286 285 286 286 286 284 285 285 284 282 283 280 278 276 278 281 283 281 279 274

GFSNW_sfc_thetae_015.txt.gz
Theta_e
310 310 310 310 309 310 309 301 295 310 305 296 294 293 298 302 302 303 302 300 298 296 297 296 295 295 297 300 301 297 297 294 290 292 297 299 297 294 292 288 284 284 285 288
309 310 309 308 309 311 307 298 305 313 305 290 289 296 301 303 300 300 301 300 301 301 297 294 296 297 300 299 299 297 297 292 288 290 293 296 295 294 291 289 288 285 287 288
309 309 307 308 309 311 308 304 298 304 299 296 294 295 297 298 301 301 301 300 301 299 298 298 295 296 299 301 299 299 299 291 290 287 289 292 290 293 291 291 287 286 288 290
309 307 308 308 309 310 307 301 298 303 292 292 294 296 297 297 297 301 301 300 299 298 294 295 294 297 297 299 299 298 296 290 290 290 290 291 290 291 291 290 290 289 290 288
308 308 308 308 308 309 305 299 297 296 295 297 295 294 297 297 298 299 298 298 299 300 295 296 294 296 295 294 298 295 293 288 288 288 289 289 289 290 290 291 291 290 290 291
306 306 307 308 308 310 305 306 303 300 290 295 294 293 296 298 301 300 301 300 298 296 299 299 298 298 297 298 296 291 289 286 285 283 285 285 284 288 290 290 291 293 289 295
305 305 307 307 308 309 308 307 303 296 287 292 293 298 300 299 300 299 300 301 298 300 302 300 299 297 297 297 293 293 286 284 282 284 281 280 290 293 292 291 292 293 293 294
306 307 307 307 308 309 311 309 304 296 286 292 294 298 299 299 300 299 300 301 301 302 297 293 290 289 289 289 292 290 289 286 281 284 281 284 289 289 292 291 292 296 294 295
306 306 306 306 307 309 311 310 306 301 293 292 299 299 299 294 294 295 298 302 301 297 289 288 286 286 288 287 290 292 289 286 287 280 282 280 288 290 297 296 289 296 297 295
305 305 306 306 307 308 312 311 309 306 298 302 302 299 298 298 296 294 296 298 298 296 287 285 286 286 287 285 284 283 285 283 283 277 283 284 290 294 297 288 290 295 297 297
305 305 305 306 307 308 312 310 312 308 302 304 307 304 300 299 300 295 298 297 296 290 288 288 286 286 287 287 288 287 286 284 282 278 280 282 292 295 292 297 297 297 298 298
302 304 305 306 307 308 311 311 312 311 306 305 308 309 309 309 305 301 298 300 296 296 290 286 285 285 285 284 287 290 287 289 288 287 288 294 294 297 298 298 297 298 298 299
303 304 306 307 308 309 312 312 309 306 301 303 305 305 310 311 309 309 300 296 300 296 295 289 287 287 287 285 286 288 291 291 289 290 293 292 294 297 297 299 300 300 300 301
304 305 306 307 309 309 311 309 307 304 297 290 299 307 306 309 311 309 306 301 298 296 294 289 287 287 290 286 289 289 292 292 290 289 293 294 296 298 300 300 300 300 301 300
305 307 307 308 309 309 311 308 308 306 304 293 294 303 304 307 307 304 304 302 300 296 292 288 289 288 289 288 288 288 293 293 291 291 297 296 297 298 300 300 300 301 300 298
305 306 308 308 307 307 307 303 306 306 303 298 291 298 299 302 304 304 303 303 299 298 295 290 290 293 292 287 288 294 295 297 297 296 297 297 298 298 301 300 301 300 299 295
304 306 307 308 306 308 301 299 303 303 302 295 291 291 296 298 301 299 300 303 298 298 293 289 289 292 292 288 287 295 296 298 299 299 299 298 299 298 297 294 290 290 289 289
304 305 305 305 306 305 305 305 303 303 297 295 288 288 291 298 293 292 297 294 297 296 293 291 290 291 291 289 292 292 293 295 298 297 299 297 291 290 289 290 290 289 288 289
303 304 304 305 303 301 303 303 302 303 299 289 286 288 288 297 292 291 293 295 289 294 291 290 294 287 286 285 286 287 288 290 292 291 289 289 288 288 289 289 289 287 287 288
303 302 298 293 300 303 303 300 295 293 292 294 287 291 288 296 288 288 289 290 288 288 290 293 288 287 286 287 288 288 288 289 293 288 286 287 287 288 289 288 289 289 290 289
300 295 294 300 301 299 292 288 288 290 287 291 289 289 289 293 291 288 288 288 287 286 288 288 287 284 284 287 288 289 290 290 290 291 290 290 289 288 288 288 288 288 288 287
298 299 299 296 293 289 288 286 287 286 286 287 288 289 292 289 293 290 288 287 286 285 289 286 283 282 286 288 289 289 290 290 290 291 290 290 290 290 289 287 286 284 283 282
297 293 289 292 288 285 281 284 285 285 286 287 287 287 288 290 289 287 287 286 285 287 285 283 283 287 288 288 289 289 289 289 289 289 289 287 286 285 284 284 283 283 284 284
288 287 285 283 285 284 284 285 285 285 285 286 287 286 287 286 286 285 285 284 284 282 281 280 284 286 286 287 288 287 286 282 284 284 284 282 282 282 281 280 280 280 282 282
286 286 281 281 283 285 284 285 285 286 287 287 286 286 288 285 285 284 284 280 279 280 278 283 284 285 285 285 286 285 284 281 284 285 284 281 280 279 282 281 281 281 281 281
285 285 283 284 284 284 285 285 285 288 286 286 287 284 284 282 284 282 281 279 275 280 284 285 285 284 285 286 287 287 286 286 285 285 284 282 281 280 282 282 282 280 280 280
284 283 285 285 285 284 285 285 285 288 286 284 284 283 280 283 280 279 282 278 282 284 284 286 287 286 286 287 288 286 286 285 284 284 283 282 280 279 280 280 281 280 281 279

GFSNW_sfc_thetae_021.txt.gz
Theta_e
308 310 311 311 310 310 310 312 303 323 328 305 309 304 305 304 307 311 306 306 303 301 302 300 300 299 302 309 308 302 305 301 297 299 305 306 305 302 302 294 292 295 294 292
307 309 310 311 310 310 313 309 310 325 322 302 308 308 305 306 307 307 306 303 305 305 302 298 301 302 307 308 307 304 307 299 294 296 301 304 300 302 302 300 299 293 291 293
306 308 309 310 310 310 317 310 304 312 315 312 308 305 303 302 309 307 308 305 308 306 304 306 303 304 305 307 307 301 304 302 298 293 297 301 299 300 301 300 294 294 295 296
306 308 309 310 309 310 314 312 307 310 303 307 309 307 304 301 302 308 310 306 305 304 301 303 303 306 304 306 301 305 306 298 301 301 300 300 299 298 300 298 298 295 297 296
306 307 306 309 309 310 311 308 308 311 309 309 307 303 303 302 304 306 305 304 305 306 303 304 302 306 305 304 307 306 306 299 299 297 300 299 297 299 299 299 299 298 298 298
306 306 305 308 309 310 311 316 316 312 307 309 304 305 304 303 308 309 309 308 307 306 308 311 312 312 310 309 307 305 303 301 296 291 295 295 291 297 298 299 300 300 296 301
306 305 304 308 309 310 316 318 316 309 305 307 304 304 305 304 308 307 308 311 309 310 314 313 311 309 307 306 305 308 301 299 297 292 289 284 296 301 299 298 300 302 301 302
305 304 303 308 308 309 317 322 317 311 302 306 304 304 304 307 310 309 309 310 313 315 312 305 300 301 300 300 301 300 302 300 293 292 290 294 296 297 296 295 296 302 301 302
305 304 307 307 308 308 315 327 325 317 309 306 306 304 305 308 309 308 306 312 314 311 310 305 296 293 297 296 299 301 298 300 297 292 289 286 296 299 303 302 293 301 302 302
305 305 306 307 307 308 315 326 327 316 306 309 309 305 304 309 310 309 307 307 306 309 306 298 299 297 300 294 292 291 295 296 293 293 291 294 299 300 303 291 295 304 304 304
305 306 306 306 307 307 313 326 328 318 310 311 313 311 309 309 310 308 310 307 307 307 302 303 302 300 300 298 299 296 295 294 293 294 289 287 301 301 295 303 305 305 306 306
305 305 306 306 307 307 310 324 327 329 317 315 320 319 319 317 317 314 312 310 310 310 307 306 308 297 293 299 294 301 295 300 299 297 298 303 303 302 305 306 305 305 305 306
304 305 306 306 307 307 311 326 327 324 318 315 314 313 318 320 321 323 312 315 315 313 318 311 309 296 304 293 299 301 301 302 299 297 300 301 303 305 305 306 306 307 308 308
304 305 305 306 306 307 309 324 328 323 317 302 311 318 315 318 320 320 320 319 317 316 315 312 300 299 306 303 303 301 303 302 299 299 302 302 303 306 306 307 308 308 309 309
305 305 305 306 307 308 318 324 322 324 317 305 309 314 314 317 317 316 317 316 314 312 309 300 305 306 305 304 304 301 303 300 299 298 304 303 304 307 308 307 306 306 307 307
304 305 306 306 307 308 319 316 319 319 323 314 305 313 311 315 316 315 315 316 315 315 311 306 308 305 307 298 299 303 303 304 304 302 306 307 307 304 303 301 300 300 300 299
304 305 305 306 308 319 313 309 313 309 321 312 303 304 310 312 313 312 314 316 314 315 311 303 308 305 306 297 298 302 300 301 304 304 305 304 301 299 301 300 300 297 296 295
305 306 306 307 307 306 314 310 306 311 312 315 303 298 305 311 307 305 311 309 314 307 303 303 303 303 305 299 299 299 299 301 300 300 302 301 301 300 298 297 294 292 291 292
306 307 309 317 316 314 312 302 307 316 313 307 304 296 294 308 301 304 305 309 300 304 297 302 304 294 295 295 295 296 297 297 298 299 299 299 296 293 293 293 292 290 289 290
305 316 312 307 309 303 307 309 310 310 309 306 294 303 296 305 298 296 299 300 297 293 296 300 296 294 292 293 294 296 297 299 299 294 293 292 290 291 291 292 293 293 294 293
315 311 305 309 304 307 306 300 302 304 298 299 296 298 296 303 297 293 297 294 295 290 295 293 292 291 290 292 293 295 297 298 297 297 294 294 294 292 292 292 292 290 289 287
309 309 309 309 304 303 295 292 295 296 292 293 293 295 297 297 304 297 296 290 292 288 297 291 289 287 290 290 291 293 295 295 294 294 293 293 292 292 290 289 288 287 287 286
311 306 297 301 296 290 288 285 289 289 291 291 292 290 296 297 300 295 294 289 290 297 290 288 288 288 289 290 292 293 294 293 293 292 291 291 289 289 289 287 286 287 289 290
298 294 288 288 289 287 286 287 287 287 288 292 295 292 294 294 291 292 287 287 291 286 285 287 286 287 288 291 292 292 291 290 290 290 289 288 286 285 285 285 286 285 285 286
292 292 284 285 285 286 286 286 287 288 291 294 296 295 297 291 289 290 288 285 285 287 287 287 287 287 288 290 291 290 288 287 290 291 287 286 287 286 285 285 284 284 283 283
290 288 285 286 286 285 285 285 285 289 289 292 295 289 289 286 289 287 287 287 285 286 288 287 287 286 288 290 290 291 292 291 291 290 288 286 285 285 285 284 283 283 283 282
288 285 285 286 285 284 285 286 286 289 288 285 289 287 285 288 287 285 289 286 287 287 287 289 288 287 288 291 290 290 290 290 290 289 287 285 284 284 283 282 282 282 282 282

GFSNW_sfc_thetae_024.txt.gz
Theta_e
306 307 309 310 311 310 309 310 299 320 324 302 303 303 304 305 306 308 306 305 302 301 302 300 299 298 302 307 306 301 304 301 297 297 304 306 303 301 300 296 292 297 294 292
305 307 308 310 310 310 309 304 307 322 319 296 300 306 305 306 305 306 306 304 305 304 302 298 301 302 308 309 306 303 306 299 293 294 300 304 300 301 300 301 301 294 291 293
302 306 307 309 310 310 310 306 300 309 313 307 303 303 302 302 308 306 307 305 306 303 301 303 300 302 306 308 308 302 308 301 296 292 295 301 299 300 300 299 295 295 293 295
301 305 306 308 309 310 309 309 304 308 300 304 305 308 304 301 301 306 308 304 303 303 300 301 301 304 305 306 302 305 305 297 299 299 300 300 300 299 299 297 298 293 297 296
302 305 306 307 309 309 305 304 305 310 306 306 305 304 304 302 303 305 304 304 304 305 302 303 301 304 305 303 306 305 306 299 301 298 300 300 297 299 299 298 298 298 298 297
304 305 305 307 308 309 305 311 316 310 304 305 304 305 306 305 306 307 308 307 306 304 307 310 312 313 312 309 307 305 305 303 297 292 296 294 289 296 297 298 300 299 294 301
305 305 306 306 307 308 311 313 315 306 301 303 304 307 307 305 306 307 309 311 308 311 315 314 312 310 308 309 307 309 303 301 298 294 290 285 295 301 300 298 298 300 299 301
304 305 305 305 304 308 312 318 315 309 298 306 305 307 307 307 307 309 309 311 315 317 312 305 300 302 299 301 303 302 305 302 295 290 290 293 295 298 297 296 296 301 299 300
304 304 304 303 304 303 309 314 314 316 306 306 309 306 308 305 308 307 307 314 319 316 313 306 296 294 297 296 298 301 300 303 299 293 290 286 297 300 303 301 292 302 302 302
304 304 303 303 303 304 306 313 315 315 307 312 311 306 306 310 310 307 308 307 308 312 306 296 301 298 301 295 294 291 295 297 291 293 291 295 300 301 303 291 295 304 304 304
303 303 303 303 303 305 307 307 312 313 309 312 315 313 308 312 313 306 310 307 309 312 303 302 304 299 302 300 299 296 294 294 292 296 288 286 302 301 296 304 307 305 305 306
303 304 303 304 306 307 309 304 314 318 317 315 322 319 320 318 316 315 313 311 309 312 308 306 309 294 293 299 295 302 296 301 300 297 297 305 305 303 306 307 305 306 306 306
303 304 305 305 306 307 308 308 312 322 319 314 314 313 318 321 322 326 311 315 316 315 321 315 311 293 304 293 300 303 302 304 302 301 300 302 304 305 305 306 306 307 308 308
304 304 305 305 306 307 308 308 314 322 317 301 311 319 315 319 321 322 322 322 323 321 319 313 297 297 309 303 305 306 304 303 299 300 302 303 304 306 307 307 308 308 308 306
304 305 305 305 307 308 310 312 317 325 316 305 308 315 316 317 319 318 320 321 318 316 310 297 306 310 307 306 307 304 304 301 301 300 304 304 304 305 306 303 302 302 301 299
304 305 305 306 307 307 311 310 321 323 325 313 304 313 312 315 317 316 316 318 318 316 312 307 310 309 309 298 299 303 304 305 305 303 306 306 304 302 302 299 299 299 298 297
304 305 305 306 306 314 312 307 310 308 324 313 301 301 310 315 314 314 314 317 316 315 312 307 308 306 307 297 299 303 302 302 305 304 305 301 302 298 301 297 297 296 294 294
304 305 305 306 306 308 311 313 308 308 315 314 299 293 302 312 308 305 312 313 313 309 304 306 306 303 308 300 301 301 300 302 301 301 302 301 300 298 296 296 295 293 291 291
305 305 306 311 315 313 313 304 305 321 311 299 301 294 293 309 302 304 306 310 300 305 299 305 305 296 296 299 299 298 298 300 299 300 300 298 295 294 294 293 292 290 290 292
306 311 312 303 309 305 306 311 310 309 306 307 295 302 296 303 298 295 298 301 297 293 297 302 297 295 296 297 298 298 299 300 300 295 291 292 291 292 292 292 292 291 289 289
317 310 302 309 306 310 306 299 300 300 295 298 297 299 297 304 297 294 298 294 295 291 294 295 292 290 292 295 295 297 299 299 298 297 295 295 293 292 291 289 288 288 287 285
310 310 310 309 306 300 292 292 295 296 292 292 293 296 298 299 305 296 296 290 293 289 296 290 288 291 292 293 293 295 296 296 295 295 293 293 291 290 289 288 287 285 285 284
312 304 295 298 293 288 289 285 288 287 290 290 291 290 297 298 300 294 293 288 290 296 288 288 289 290 291 292 293 293 294 294 293 291 291 290 289 288 286 285 285 286 287 285
299 292 286 287 286 285 285 286 286 286 287 289 293 291 293 292 290 291 287 287 292 286 284 287 287 289 290 292 292 292 290 289 289 289 287 286 284 284 284 284 284 282 282 283
290 289 283 283 285 286 286 286 287 287 291 291 295 295 295 290 287 289 287 285 285 286 287 287 288 289 290 290 291 288 288 287 288 288 286 284 285 284 283 283 283 283 281 281
288 286 284 285 285 284 285 285 285 288 289 293 295 290 288 286 288 287 285 287 285 285 286 286 287 287 289 290 289 289 290 290 288 287 286 285 285 284 283 283 282 281 280 278
287 285 285 285 285 284 285 285 286 289 288 286 289 286 283 288 286 285 286 283 285 284 286 286 287 287 289 290 289 289 289 289 288 287 286 285 284 284 283 282 281 282 282 278

GFSNW_sfc_thetae_027.txt.gz
Theta_e
302 305 306 308 309 311 309 307 296 310 315 297 297 294 301 303 305 308 304 303 301 297 299 296 294 295 301 304 304 299 300 296 289 296 301 302 299 297 296 284 285 285 282 285
303 304 306 307 309 310 307 302 303 312 310 290 292 297 301 304 304 304 303 302 304 302 300 296 297 301 306 306 304 299 301 293 283 288 294 299 296 297 297 297 290 285 279 285
303 303 302 307 308 310 309 303 296 305 307 300 295 294 297 299 306 305 305 303 304 301 298 301 297 300 305 306 304 301 303 296 290 283 290 296 293 297 298 294 284 284 285 291
302 302 302 306 307 309 308 302 297 304 296 298 296 298 299 299 299 305 305 302 301 299 294 297 296 302 302 305 302 302 300 291 294 296 299 298 297 297 297 294 293 287 291 293
302 302 302 305 306 309 304 299 298 305 300 301 299 297 298 300 301 302 300 300 301 300 297 299 296 302 301 299 301 299 301 292 292 290 297 295 292 295 295 295 295 293 293 293
302 302 302 303 306 308 301 304 306 305 299 300 297 296 300 301 303 304 304 304 302 299 304 306 306 306 305 305 300 297 296 290 286 284 291 289 282 289 293 295 295 294 288 293
302 302 301 304 306 307 304 305 305 302 294 300 297 300 302 303 303 301 305 305 302 307 310 308 306 304 304 305 303 305 293 291 286 282 282 275 290 297 296 294 294 295 294 295
302 302 302 304 305 307 303 305 306 304 289 300 299 300 302 306 306 303 307 309 310 310 307 297 293 288 289 294 300 301 301 289 285 280 280 287 292 295 294 292 291 296 295 296
301 302 304 304 305 306 305 303 306 307 301 299 302 300 304 301 299 301 304 310 311 310 301 289 286 284 290 289 293 299 297 293 284 282 279 275 289 296 300 297 285 298 298 297
302 303 304 305 305 305 304 303 307 306 303 305 304 300 303 307 303 299 303 305 303 307 288 288 284 285 296 288 287 285 284 284 281 278 277 285 298 299 300 283 286 298 299 298
303 303 304 304 303 304 302 300 304 307 304 306 310 308 305 308 305 297 303 302 300 293 291 288 286 285 288 288 295 290 286 283 280 284 282 280 299 297 289 295 298 299 298 298
302 303 303 303 303 303 303 296 306 311 304 307 315 314 314 314 312 306 304 305 303 303 296 293 291 288 287 287 283 297 287 292 287 289 287 298 298 297 300 300 298 299 300 301
303 303 303 303 303 304 303 301 310 309 303 305 309 308 312 317 317 315 304 307 309 307 309 298 294 289 287 285 286 290 296 300 291 291 296 297 298 302 303 303 302 302 300 299
303 303 303 303 304 305 305 303 308 308 304 295 305 316 310 316 318 317 317 313 314 313 309 294 291 290 300 287 293 290 296 297 295 293 296 301 301 302 302 300 301 297 296 295
303 303 304 304 306 307 308 308 309 311 303 298 301 310 313 314 315 315 317 313 310 305 295 288 290 292 294 288 290 287 298 295 288 286 300 297 297 299 300 297 296 297 295 293
303 304 304 305 305 306 308 301 309 310 308 301 293 307 308 310 313 312 312 311 309 308 300 294 298 302 294 286 284 298 300 301 301 299 300 299 297 296 297 295 294 294 293 293
304 304 304 305 305 308 303 302 308 309 309 303 292 293 306 310 310 306 308 310 307 305 301 293 295 296 299 286 285 297 299 300 300 301 300 296 297 293 294 293 293 293 292 292
304 304 304 305 306 307 306 310 307 307 309 305 292 291 297 309 295 294 304 298 300 300 296 295 290 294 288 286 295 297 299 299 298 297 299 295 295 294 294 293 292 289 288 288
304 304 305 306 307 306 308 306 306 313 306 292 291 289 289 304 297 295 298 301 291 299 289 289 292 286 287 295 295 295 297 297 296 296 295 294 292 292 291 289 289 287 287 287
305 306 306 297 305 306 307 306 300 298 299 296 288 295 291 299 290 290 291 290 290 285 291 294 287 283 292 294 295 295 297 297 294 290 288 289 290 289 290 289 287 287 287 285
307 302 296 304 306 305 296 288 289 290 286 289 290 293 291 299 290 288 290 288 287 282 287 286 286 283 290 293 293 294 296 298 297 294 293 293 292 289 287 286 285 283 282 282
306 305 306 304 300 294 288 286 286 289 287 286 289 291 296 292 298 288 290 287 285 282 292 287 282 286 291 292 292 294 295 294 294 293 291 290 289 288 286 284 283 282 282 282
304 297 291 295 289 287 286 282 285 285 286 288 288 287 289 292 294 288 288 287 285 288 286 283 282 289 290 291 292 291 292 291 289 289 289 288 286 285 284 284 283 282 281 281
292 287 284 285 285 283 283 284 285 285 285 286 289 287 287 287 287 286 285 285 286 284 281 281 285 288 290 291 291 290 288 286 285 285 284 283 283 282 281 281 279 279 279 280
286 286 281 282 284 285 285 285 286 286 288 287 288 288 290 286 286 286 285 284 282 283 280 284 287 288 289 289 288 286 285 284 284 284 283 282 281 280 281 280 280 280 277 276
286 284 284 285 284 284 284 285 285 288 286 288 288 286 285 285 285 284 284 282 279 281 283 285 287 287 288 287 287 287 287 286 285 285 284 283 281 280 280 280 278 276 274 271
284 283 285 285 284 283 285 285 286 289 287 285 286 284 282 285 284 281 283 280 282 284 284 286 287 287 286 286 287 287 286 285 284 284 284 283 282 280 279 278 279 279 277 271

GFSNW_sfc_thetae_033.txt.gz
Theta_e
305 306 305 305 305 306 305 299 291 308 311 296 293 290 295 299 300 303 302 301 298 294 293 291 291 291 294 298 301 295 297 291 284 292 297 299 295 292 291 283 283 282 280 283
305 305 305 304 304 305 300 293 297 309 307 290 289 293 295 298 298 298 299 299 300 298 293 290 292 293 300 301 299 296 297 290 282 287 292 294 292 294 294 291 285 283 279 283
305 305 304 304 304 305 302 295 290 299 302 300 294 291 293 294 301 298 301 300 301 298 294 296 294 296 301 302 300 301 299 291 288 284 288 291 288 293 293 291 282 283 283 287
304 304 303 304 304 303 299 295 292 298 291 292 295 294 294 293 294 299 299 296 298 297 292 292 293 297 298 300 300 298 297 289 289 290 291 294 292 292 293 290 290 285 289 288
304 303 303 303 303 304 296 291 294 298 294 296 294 293 291 292 295 296 295 294 298 297 294 294 292 297 296 296 297 295 296 288 289 287 291 290 289 291 291 291 291 291 290 290
303 303 302 302 303 302 293 297 299 298 295 294 292 291 292 293 297 298 299 299 298 296 298 300 298 300 301 299 297 293 292 287 285 283 286 285 282 287 289 291 292 292 286 291
303 302 302 302 303 302 299 297 299 296 290 293 292 293 294 294 296 294 298 298 297 301 304 301 300 298 300 301 299 297 288 286 283 280 281 275 289 293 292 290 290 291 291 292
302 301 302 302 302 302 297 300 298 297 288 294 295 294 294 295 297 296 296 301 301 306 300 293 291 287 290 291 296 297 295 286 282 280 280 284 289 290 291 289 287 292 291 293
301 301 301 302 302 301 298 299 301 297 294 293 298 295 296 292 293 293 297 302 307 303 292 286 285 284 288 286 291 294 291 288 286 279 277 276 287 292 295 294 283 294 294 293
300 301 301 302 302 301 300 299 305 299 292 298 301 296 295 298 295 293 298 302 301 302 286 283 283 283 292 285 285 284 283 282 281 275 276 282 290 295 294 284 285 295 295 295
300 300 300 301 302 303 299 298 305 299 294 298 304 303 298 299 298 292 297 300 299 289 289 287 283 282 287 285 289 286 286 282 279 278 276 279 294 294 287 290 293 296 295 295
300 300 301 301 301 302 300 298 306 305 298 297 303 303 304 303 303 301 300 299 300 299 293 289 288 283 282 286 283 292 286 287 285 286 285 293 294 293 295 296 295 295 296 297
300 301 301 302 301 302 302 301 302 301 296 294 298 299 306 309 308 310 301 300 305 302 303 295 290 286 286 284 284 287 291 295 288 288 292 294 296 297 297 298 297 297 298 298
300 301 301 301 302 304 304 301 304 302 299 291 298 313 308 312 312 310 309 307 309 305 301 293 289 287 293 285 289 287 292 295 291 289 293 295 295 294 293 293 293 292 292 292
300 301 302 302 303 304 303 303 304 306 299 291 294 302 308 312 311 310 309 310 304 298 293 287 289 290 291 284 287 283 294 292 289 287 296 294 294 294 294 293 291 292 290 289
301 301 302 303 303 303 300 294 302 305 305 296 287 301 303 308 309 308 307 308 303 299 296 288 293 299 293 287 283 294 296 296 296 295 297 294 294 293 293 292 291 291 289 288
302 302 303 303 302 298 294 293 300 304 306 296 288 285 300 308 304 303 304 305 304 303 298 289 292 294 292 281 284 295 296 296 295 295 294 290 291 289 291 291 290 290 288 288
302 302 302 302 302 301 300 306 304 305 301 300 289 288 292 303 292 296 302 296 299 299 296 291 287 293 285 286 293 294 295 295 294 293 295 293 291 290 289 289 288 287 286 285
302 302 303 301 299 297 301 305 307 309 303 293 288 287 287 299 293 293 294 296 290 297 290 291 292 286 287 290 293 293 294 294 290 291 290 290 288 287 287 287 286 284 282 283
303 301 298 291 299 305 305 303 299 298 299 294 288 293 290 296 288 288 290 290 288 287 289 292 287 286 290 291 293 293 292 292 292 287 286 286 286 285 285 285 285 284 282 282
300 294 293 302 304 300 295 290 289 290 287 289 291 290 291 297 289 288 288 287 285 285 288 288 285 285 287 290 291 293 294 294 293 292 291 289 288 286 284 283 283 283 282 282
300 302 304 302 297 291 285 285 287 286 286 287 288 289 294 291 295 289 288 286 285 283 289 284 284 286 289 289 290 292 292 291 291 291 290 289 288 287 285 283 282 282 282 280
301 295 289 291 286 284 283 282 284 284 285 287 287 287 288 290 291 285 284 282 280 285 286 284 284 289 290 290 289 289 291 290 289 288 288 286 285 284 283 282 282 281 281 280
289 286 282 283 281 282 282 283 284 285 285 286 287 287 287 286 286 285 281 285 286 282 280 278 285 287 288 288 289 288 286 286 285 284 284 283 282 281 281 281 280 279 279 279
285 285 280 281 284 284 284 285 285 286 287 286 287 287 288 285 285 285 285 283 280 280 278 283 285 287 287 286 286 284 283 283 283 283 282 281 281 279 279 280 280 278 276 275
284 284 282 283 283 283 284 284 285 288 286 286 287 285 284 283 284 282 280 280 278 279 282 284 286 285 285 285 284 284 284 283 283 283 282 281 280 280 279 279 277 276 275 273
282 282 285 284 284 283 284 284 285 288 286 284 284 281 280 284 280 278 280 277 280 282 283 285 285 285 284 284 284 284 283 283 282 282 281 280 279 279 278 277 277 276 275 273

GFSNW_sfc_thetae_036.txt.gz
Theta_e
305 304 304 306 307 306 303 298 286 305 310 296 297 292 293 298 300 302 300 299 298 293 292 290 290 290 293 296 298 293 295 290 283 290 295 296 293 291 290 282 282 281 280 282
305 304 304 305 306 306 300 293 292 307 305 289 290 295 294 296 297 297 297 297 299 297 292 287 291 292 296 298 297 294 296 288 282 286 290 292 291 292 292 289 284 282 278 283
305 304 304 305 306 305 300 294 286 297 299 298 292 291 291 291 299 297 298 297 299 296 293 293 290 292 299 300 298 300 298 290 287 283 287 290 287 291 291 289 282 283 282 286
305 304 304 305 305 305 299 294 288 295 288 291 293 293 292 290 291 298 298 295 297 295 291 290 291 295 297 297 299 296 295 287 288 289 290 291 290 291 290 289 288 285 288 287
304 304 304 304 304 304 295 290 290 295 292 293 292 293 291 291 293 295 293 293 296 297 293 293 291 295 294 294 295 294 293 288 288 286 289 289 288 290 289 290 289 289 289 288
304 304 304 304 303 303 293 294 295 296 292 292 290 290 291 292 295 297 298 296 295 294 297 300 299 299 298 296 294 292 290 287 285 283 285 286 282 286 289 289 290 291 286 291
304 303 304 303 303 301 294 295 297 293 288 291 290 291 293 293 295 293 298 299 296 297 303 301 299 297 298 298 297 295 287 286 284 280 280 275 288 291 291 289 289 290 289 289
304 303 303 303 303 302 294 296 295 294 287 292 294 293 291 295 296 295 297 299 300 304 301 294 291 287 288 289 293 292 292 286 282 281 279 283 287 289 289 288 287 291 289 292
303 302 302 302 302 303 296 297 301 297 291 290 295 294 293 290 291 291 294 301 304 302 295 288 285 285 287 286 290 292 290 287 285 278 277 276 286 291 293 292 283 292 293 292
302 302 302 302 302 303 296 294 297 297 289 296 297 293 292 296 293 289 293 297 298 300 282 282 282 285 291 286 287 285 283 282 281 275 276 282 290 292 293 283 285 293 294 293
302 302 301 301 302 302 297 293 299 297 292 294 299 301 295 296 296 290 294 298 297 288 288 286 285 280 287 285 289 288 288 283 279 278 276 280 292 292 287 290 291 293 294 294
301 301 301 301 301 302 298 292 299 301 297 296 302 301 301 300 300 297 297 295 297 296 292 286 286 282 280 286 283 291 287 289 286 287 286 293 293 292 294 294 294 294 294 295
300 300 301 301 301 301 298 296 298 298 296 295 297 295 302 304 304 305 297 298 302 299 301 294 291 287 286 284 285 288 290 292 287 288 291 292 294 295 295 295 294 296 296 295
299 300 300 301 301 301 300 297 302 301 298 288 294 306 303 309 307 306 306 304 304 302 301 293 289 288 292 285 291 288 291 292 289 288 292 293 295 294 293 292 293 292 292 291
300 300 300 300 301 302 300 300 303 303 295 289 292 298 303 306 309 308 307 307 302 297 293 287 289 290 291 286 290 285 293 292 289 289 294 294 294 293 293 292 291 291 290 289
300 300 301 301 301 302 298 292 301 305 304 294 286 297 298 305 307 306 306 307 300 298 294 290 295 299 295 288 286 294 295 296 297 295 297 293 292 292 292 291 289 289 288 288
300 301 301 301 302 300 294 291 297 303 303 295 287 284 295 305 305 301 301 302 300 299 295 290 293 295 293 284 286 295 297 297 296 295 294 290 291 289 290 289 288 288 287 287
300 301 301 302 302 300 295 299 303 303 299 296 287 287 292 303 295 296 301 292 295 297 295 289 289 293 285 287 292 293 293 294 294 293 293 293 291 290 288 288 287 285 284 285
301 302 302 300 295 291 293 303 304 304 298 289 288 287 286 298 294 295 291 292 287 295 289 289 291 286 287 289 291 292 292 293 290 290 290 290 288 287 287 286 285 284 283 284
302 299 294 285 292 303 303 301 296 297 297 297 288 293 287 296 289 290 289 288 287 284 288 292 286 286 289 290 292 292 292 291 290 286 285 285 285 285 285 284 285 285 284 284
296 292 290 298 303 300 294 287 288 289 286 290 289 290 290 296 288 288 289 287 286 286 288 289 286 286 287 291 292 293 292 292 293 292 290 289 287 285 283 283 284 283 284 283
296 299 302 300 294 288 286 285 285 285 286 287 288 289 294 291 295 288 288 286 285 284 289 286 285 286 289 290 290 291 291 290 289 290 288 287 286 286 284 283 283 282 281 280
301 294 289 289 285 284 281 282 284 284 285 287 287 286 288 290 291 286 286 285 284 287 286 283 284 288 289 289 289 289 290 289 289 288 288 286 285 285 283 282 282 281 280 280
288 287 280 282 280 281 281 282 284 285 285 285 286 286 286 285 286 285 285 284 286 282 279 279 284 286 286 287 288 287 285 285 284 284 284 282 282 281 282 281 281 280 279 279
285 284 279 281 284 284 284 285 285 286 287 286 286 286 288 285 285 285 285 283 279 280 279 282 285 286 286 285 284 284 283 283 283 283 281 281 281 280 279 279 279 279 278 276
284 283 281 283 282 282 283 283 284 287 286 286 286 285 284 283 281 277 276 278 275 278 281 284 285 284 284 284 284 283 284 283 283 282 281 281 280 279 278 277 277 276 275 274
281 281 282 281 282 280 280 281 282 286 286 284 284 277 276 281 277 273 275 274 278 280 283 284 285 284 283 283 283 283 283 282 282 282 281 280 279 279 277 276 276 276 275 274

GFSNW_sfc_thetae_039.txt.gz
Theta_e
307 307 306 305 305 306 304 296 286 300 306 292 295 290 294 297 297 302 300 301 299 296 294 292 292 293 296 297 298 295 299 295 290 293 298 299 297 296 295 291 287 287 287 288
306 306 306 305 305 306 299 291 291 301 301 286 288 294 294 296 295 298 298 298 300 300 295 291 293 294 298 298 298 297 298 292 288 290 294 296 296 296 294 292 291 287 288 290
307 306 305 305 305 306 299 292 285 293 296 295 291 290 290 291 298 297 300 299 301 299 296 296 292 293 298 299 299 300 300 293 291 287 291 294 292 294 294 295 289 290 290 293
305 306 305 304 304 305 299 293 288 293 285 288 290 292 291 290 291 297 299 296 298 296 292 294 292 296 299 300 300 300 300 292 292 292 293 294 293 294 293 293 294 292 294 291
305 306 305 304 304 305 296 289 289 293 292 291 290 292 290 290 292 294 294 294 297 297 295 296 293 297 297 297 298 297 297 292 292 290 292 293 292 293 294 294 293 293 293 293
305 305 304 304 304 303 294 296 294 293 291 290 287 288 290 291 295 296 297 297 296 295 297 301 301 302 302 301 298 295 294 291 289 287 289 290 287 291 293 293 294 296 292 298
304 304 304 303 304 303 298 296 295 291 286 290 288 290 292 292 294 293 296 299 295 299 304 303 302 300 300 300 298 299 291 291 289 286 285 283 294 295 295 295 295 295 295 296
302 303 303 303 304 304 297 297 296 292 286 291 291 291 291 295 296 295 296 299 302 303 303 295 293 291 292 293 295 295 295 290 285 286 286 289 291 293 293 292 294 296 295 295
302 304 303 303 304 304 299 297 299 296 289 290 295 292 292 290 292 293 295 302 305 302 295 290 288 287 290 289 291 293 291 292 292 283 284 283 293 295 296 297 289 297 296 296
302 303 303 303 303 303 298 296 300 297 290 294 296 293 292 295 294 291 294 296 298 301 289 287 287 289 293 288 288 287 288 287 287 282 287 289 294 295 297 289 293 297 298 298
303 302 303 303 303 302 298 294 299 296 291 293 297 296 296 295 295 290 294 295 296 292 289 289 289 287 291 291 292 290 290 288 287 284 286 286 296 294 293 299 297 298 299 300
302 302 302 303 302 302 299 292 300 300 294 294 301 302 302 300 301 296 298 295 296 296 293 290 289 288 286 290 288 293 291 294 291 293 293 299 297 300 299 298 299 298 300 299
302 302 302 302 303 302 299 295 296 296 293 291 294 294 301 304 302 305 295 298 303 300 303 295 294 288 290 287 288 291 292 294 294 295 297 296 298 298 300 299 300 299 301 300
302 301 301 301 302 302 299 296 297 295 295 286 291 304 301 309 306 304 305 305 305 304 302 295 291 291 297 291 294 292 294 295 292 293 295 297 299 299 300 297 298 298 297 297
301 301 301 302 302 301 297 297 299 299 295 288 291 299 302 304 304 305 305 305 304 300 296 291 293 293 293 290 292 290 295 295 292 292 298 299 299 301 298 296 297 296 294 293
300 301 301 301 301 300 296 290 298 302 302 291 286 298 297 304 307 306 304 304 303 303 298 293 295 300 295 290 290 298 299 300 300 298 299 295 294 296 296 295 294 294 294 292
299 300 301 301 300 298 293 291 296 301 303 294 287 288 297 302 305 304 304 305 303 302 299 294 296 297 297 288 291 298 298 299 298 297 297 294 294 294 293 292 291 291 290 290
300 300 300 300 300 299 295 300 303 303 298 296 285 286 290 302 294 295 302 298 299 299 297 293 294 294 290 288 294 296 296 296 295 295 295 297 293 291 289 289 289 288 286 287
300 301 301 298 296 293 294 302 302 303 297 287 286 285 286 299 295 295 294 296 291 296 291 293 295 289 290 293 293 294 294 295 293 292 292 292 291 288 288 288 288 286 285 286
300 298 294 286 294 301 302 298 294 293 295 295 288 293 289 295 289 289 289 290 289 289 290 293 290 289 291 291 292 294 293 292 292 288 287 287 287 287 287 287 287 287 286 285
297 292 290 295 302 297 292 285 287 288 287 290 290 290 290 296 289 288 290 287 287 286 290 290 288 288 288 292 292 293 293 293 293 293 291 291 290 287 286 285 286 286 285 284
296 297 300 299 294 289 285 284 285 285 286 288 288 290 294 291 295 288 289 286 285 285 290 287 286 286 289 291 291 291 292 292 290 290 288 287 287 287 285 285 284 283 282 281
300 294 288 290 285 284 282 281 284 284 285 286 287 286 289 290 291 286 286 284 285 288 286 282 283 287 288 289 289 288 289 289 288 287 286 286 285 285 284 282 282 282 281 281
286 285 281 282 279 281 281 282 283 285 285 285 286 286 287 286 285 285 285 285 285 283 280 279 283 285 286 286 286 286 284 284 284 284 283 283 282 281 282 281 282 281 279 280
284 283 279 280 284 284 284 284 285 285 286 286 286 287 288 285 285 284 284 283 278 278 277 281 283 285 285 284 284 284 283 282 282 282 281 281 281 280 279 280 281 280 279 278
284 279 278 280 280 278 279 279 281 285 285 286 287 285 283 281 280 277 274 276 273 275 278 282 284 283 283 283 283 283 283 282 282 282 281 281 279 278 278 278 278 277 277 275
282 278 279 277 278 276 278 279 280 284 286 282 282 275 273 279 274 272 274 271 274 275 278 283 284 283 283 283 283 283 283 282 281 281 280 279 279 279 278 276 277 277 276 275

GFSNW_sfc_thetae_042.txt.gz
Theta_e
307 307 307 307 307 306 305 298 287 305 308 289 291 290 296 297 298 304 302 303 302 298 298 295 295 296 299 304 305 299 303 300 295 297 302 304 302 300 300 294 291 295 293 293
307 307 307 307 306 306 302 291 292 305 304 283 286 293 295 297 297 299 301 300 303 303 299 294 298 299 304 304 303 301 303 298 292 293 297 301 299 300 300 300 298 294 292 294
307 307 307 307 306 306 302 292 285 293 295 297 291 290 292 292 299 298 302 301 303 302 299 300 296 298 301 303 304 302 304 300 296 291 294 298 296 298 300 299 295 295 295 297
305 306 307 307 306 305 301 293 289 292 286 289 292 294 293 291 292 299 301 300 301 300 296 297 296 298 300 301 301 303 304 296 298 298 298 298 297 297 299 297 299 295 297 297
304 305 306 306 305 305 297 288 292 297 292 292 291 293 291 291 294 295 295 297 300 301 297 298 296 299 300 300 303 302 304 296 299 295 298 298 296 298 298 299 299 299 299 298
304 304 304 306 305 304 294 297 300 297 292 291 289 291 291 292 296 297 298 299 297 298 300 303 303 303 303 303 302 301 301 298 295 291 296 296 291 297 298 300 301 301 296 301
303 304 304 305 304 303 301 300 300 294 289 291 290 291 292 292 295 295 298 300 298 301 306 305 304 303 303 304 302 305 300 299 298 293 291 286 297 302 303 300 301 303 302 304
303 303 303 303 304 304 301 302 299 295 290 293 291 291 292 294 296 296 297 301 303 307 302 295 291 291 295 298 302 302 304 300 294 292 290 294 295 297 298 298 299 304 303 304
302 302 303 303 304 303 301 304 305 301 294 292 295 292 293 292 293 295 298 303 309 306 300 296 288 285 289 292 295 298 299 300 299 291 289 287 297 303 304 303 295 305 305 304
302 302 302 303 303 303 301 302 307 302 294 297 297 294 293 296 296 295 297 300 301 305 297 293 291 289 294 290 292 291 293 294 293 293 293 296 301 302 303 294 298 305 306 305
302 302 302 303 303 303 300 299 307 302 297 298 299 299 297 297 298 294 299 298 300 299 294 294 294 294 295 294 297 295 293 293 292 295 292 290 302 300 299 306 306 307 307 307
301 301 303 303 302 303 301 296 304 306 300 295 302 300 303 301 303 301 302 298 299 300 297 299 299 296 294 297 292 300 293 299 298 298 298 307 304 307 308 310 308 306 307 308
302 302 303 303 303 303 301 299 302 301 297 294 294 296 302 305 307 310 298 301 302 303 307 303 303 297 300 294 296 299 299 299 298 298 303 304 306 308 307 307 307 307 308 308
302 302 302 303 303 301 301 299 303 301 297 289 292 303 301 306 308 308 308 306 308 309 307 304 300 299 303 300 301 299 302 299 299 301 304 302 305 307 308 306 305 305 307 307
302 302 303 302 301 301 301 303 301 301 296 290 292 298 301 303 302 303 308 306 306 304 303 297 297 302 301 301 300 299 301 300 299 300 307 306 308 309 309 306 304 305 305 304
301 303 303 301 300 300 296 290 299 304 303 293 287 300 299 302 302 302 304 305 304 304 302 302 304 304 303 297 296 301 304 305 306 304 304 306 304 304 309 306 305 305 304 305
301 301 300 300 300 300 294 293 299 302 303 292 287 291 299 302 303 304 304 306 306 304 303 302 303 303 303 299 296 302 306 306 306 303 301 301 300 301 301 303 303 301 303 302
301 300 300 300 300 300 298 302 302 305 298 296 288 289 293 302 299 296 306 302 303 302 300 300 301 302 300 296 302 304 305 302 302 302 301 299 300 300 299 299 298 297 296 296
300 301 300 299 298 293 295 301 302 304 300 291 289 287 288 300 295 296 295 299 295 301 297 300 301 298 295 298 300 300 300 299 300 297 299 297 297 295 294 294 295 295 292 293
300 299 293 288 294 301 302 298 291 294 297 298 290 294 286 294 294 295 291 290 289 289 294 300 295 297 298 296 298 299 299 297 297 294 293 293 291 292 293 293 294 293 292 292
298 292 290 300 301 300 297 288 287 289 286 293 293 293 288 296 292 292 296 289 287 287 292 294 292 293 292 294 296 297 297 297 297 298 297 297 296 294 291 291 292 292 290 290
298 300 302 301 297 293 286 285 286 286 286 291 290 291 293 295 300 296 293 291 289 286 292 292 288 286 289 291 293 294 296 296 295 296 294 294 293 293 292 290 287 285 284 284
303 297 293 291 288 283 283 283 285 285 286 288 288 288 293 296 298 291 289 287 287 288 286 281 281 285 287 287 288 288 289 290 289 289 288 287 287 287 285 283 283 283 283 282
289 286 282 284 282 283 283 283 285 287 286 286 288 287 289 288 287 286 287 286 287 284 280 278 281 284 285 286 286 285 283 284 284 283 283 282 281 281 282 283 283 282 281 282
284 285 280 281 283 282 283 283 285 286 286 286 287 287 288 285 285 284 285 283 278 279 277 280 281 285 285 284 284 283 282 282 282 282 281 281 281 281 281 282 282 282 281 279
282 278 276 278 279 277 278 279 280 283 283 285 286 285 283 280 280 277 275 277 272 274 276 279 283 283 283 283 283 283 283 282 282 282 281 281 280 279 279 280 280 279 279 278
280 277 278 277 277 276 277 279 280 283 286 283 282 277 276 282 276 273 275 272 274 276 276 278 281 282 282 283 283 283 283 282 282 281 281 280 281 281 279 277 278 278 278 277

GFSNW_sfc_thetae_045.txt.gz
Theta_e
308 308 308 308 307 307 304 297 288 305 308 289 292 288 294 297 298 300 299 301 300 299 301 298 297 297 300 304 305 301 304 301 296 299 305 306 304 301 301 295 293 296 295 295
307 308 308 307 307 307 301 292 293 306 305 284 289 292 293 297 297 297 298 299 303 304 300 297 299 300 304 306 304 302 304 298 294 295 300 304 301 303 303 302 301 295 293 295
306 307 307 307 307 307 302 293 286 293 296 297 292 290 291 291 298 298 299 300 302 301 301 303 299 299 302 307 304 304 305 300 297 293 297 300 297 299 301 300 296 295 296 298
305 305 306 307 307 306 301 293 290 294 285 290 294 293 292 290 291 298 299 297 299 298 296 298 298 301 302 302 303 304 304 297 299 299 301 300 299 299 300 298 299 295 298 298
304 304 305 306 307 306 297 288 293 296 294 294 293 292 291 290 293 295 294 295 299 301 297 299 297 300 300 298 302 302 305 297 299 296 300 300 297 299 299 299 300 299 300 299
304 304 304 304 305 305 296 296 300 296 293 292 292 292 292 291 295 297 298 298 297 298 301 306 305 305 304 303 303 301 301 300 296 293 298 298 293 297 298 299 301 301 297 302
303 304 304 304 305 305 297 299 300 295 290 292 292 293 294 292 294 295 298 300 298 302 308 307 306 303 301 303 303 304 301 299 298 294 293 287 297 304 303 300 301 303 303 304
302 303 303 303 304 306 299 303 301 297 291 293 293 294 294 295 296 295 297 301 304 306 304 298 293 293 294 296 300 301 303 302 297 293 292 295 297 301 301 299 299 304 304 305
302 302 303 303 304 303 301 304 307 302 294 292 296 293 295 292 294 294 298 303 307 307 300 296 288 285 289 289 294 302 303 303 299 295 290 287 297 303 306 305 296 305 306 306
302 302 303 303 303 303 301 303 309 301 295 297 297 294 294 297 296 295 296 300 303 306 298 292 291 289 293 288 291 291 293 295 294 295 293 296 303 304 307 295 297 307 307 307
302 302 302 302 302 303 301 299 308 303 297 298 300 301 297 298 299 295 297 298 299 300 294 294 293 293 294 293 293 295 294 293 294 296 293 290 305 304 299 306 311 310 310 309
301 302 302 302 302 303 303 298 306 309 300 295 303 305 306 304 302 300 301 300 300 301 297 298 297 297 301 295 290 298 293 299 297 298 299 308 307 308 310 311 310 312 311 310
301 301 302 302 303 302 303 302 305 303 297 297 299 298 304 306 306 310 297 303 304 303 306 301 300 296 302 294 295 295 300 304 300 301 305 306 308 308 310 312 312 313 313 311
301 302 302 302 303 302 303 302 304 302 297 291 295 304 301 306 304 305 309 307 308 309 306 303 301 298 301 300 300 299 302 303 301 301 304 306 308 309 311 312 312 311 311 311
302 302 303 303 302 303 303 303 305 305 297 292 294 300 302 306 304 302 306 308 306 304 303 303 298 301 301 303 303 300 303 302 301 299 305 307 308 311 312 312 311 310 309 309
302 302 302 302 302 301 299 291 301 305 303 297 290 301 299 303 302 301 303 306 305 305 301 303 302 303 301 298 296 301 302 306 307 304 309 309 310 310 310 311 312 311 310 310
301 301 301 301 301 301 296 294 300 303 304 296 291 292 300 302 301 302 303 306 304 304 301 301 302 302 303 302 297 301 302 302 303 307 308 304 306 305 307 309 311 308 310 310
300 300 301 301 300 300 299 304 302 304 298 298 289 290 295 303 298 296 305 302 304 303 300 302 301 303 303 296 300 302 304 305 307 307 308 307 305 304 304 305 305 304 305 306
300 300 300 299 298 295 297 301 301 305 299 291 291 288 287 295 296 300 300 300 294 303 299 299 301 299 294 299 300 302 304 303 303 302 302 303 301 302 300 300 301 301 301 301
300 300 295 290 297 301 301 297 293 296 298 298 291 295 288 290 292 290 292 297 292 289 293 302 297 297 299 297 300 302 302 302 302 299 299 300 299 299 298 299 300 300 297 297
300 294 293 299 300 297 295 288 286 287 288 293 293 294 290 298 289 289 296 290 291 287 293 297 294 292 286 289 294 298 300 300 301 301 301 301 301 300 298 297 297 297 296 294
298 300 302 302 297 294 288 286 287 287 288 293 293 293 295 294 295 292 294 288 290 287 293 293 282 282 285 286 288 290 292 296 296 298 297 298 297 297 295 293 289 287 285 285
305 299 294 294 290 284 282 282 286 285 287 289 292 289 293 294 294 292 291 288 287 287 284 280 282 284 285 285 286 286 286 286 287 287 287 287 286 286 285 283 284 283 282 282
291 288 283 285 283 283 282 282 284 286 285 286 290 287 288 290 290 285 286 285 289 284 281 278 282 283 284 285 284 283 282 282 282 282 282 282 282 282 283 283 283 283 282 282
284 285 278 280 282 282 283 284 285 286 286 286 287 287 288 285 285 285 288 284 279 278 277 279 281 284 284 284 283 283 282 282 282 282 282 282 282 281 281 282 282 281 280 279
282 278 277 278 280 279 280 281 281 285 283 286 287 285 283 281 282 278 277 277 274 276 278 279 282 283 283 283 283 283 283 283 282 282 282 281 280 280 280 281 281 281 281 280
280 278 278 277 278 276 278 280 281 286 286 283 283 278 277 282 276 273 274 272 275 277 278 280 280 279 280 281 282 282 282 282 282 281 281 281 281 281 280 278 279 279 279 278

GFSNW_sfc_thetae_048.txt.gz
Theta_e
308 308 308 308 308 308 305 297 288 305 308 290 291 288 292 295 294 298 297 297 295 295 298 297 299 297 301 306 305 299 302 301 294 297 303 305 303 300 301 294 292 297 296 293
306 307 308 308 308 308 301 292 292 304 304 283 286 292 291 294 293 294 295 295 297 299 297 295 300 301 305 306 304 301 302 297 291 294 300 303 299 302 301 302 300 295 290 293
306 307 307 308 308 308 302 292 285 294 296 296 290 289 290 289 295 294 296 296 298 297 297 301 298 300 304 308 304 303 305 299 295 291 296 300 297 300 302 300 294 294 295 297
307 307 307 307 307 307 302 293 289 293 285 288 292 292 291 289 289 294 296 295 296 295 294 297 297 301 302 304 304 305 304 297 298 298 299 300 299 299 299 297 298 295 297 297
305 305 305 306 307 307 299 287 291 296 293 292 291 292 290 289 291 292 291 293 296 297 295 297 295 300 301 300 303 302 303 296 298 295 299 299 297 300 299 299 299 299 299 298
304 304 305 305 305 306 298 295 299 296 292 291 289 290 291 291 294 295 295 296 296 296 298 301 304 305 305 305 303 301 300 299 295 290 297 296 291 298 299 299 300 300 296 302
303 304 303 304 304 305 296 295 298 293 288 291 290 292 293 292 294 292 295 297 296 301 306 306 306 305 304 303 304 304 300 298 297 289 292 285 297 304 302 300 300 302 302 303
302 303 303 303 303 304 298 299 298 294 290 293 292 292 293 294 296 295 295 298 301 305 303 295 291 292 295 297 302 301 302 300 295 289 288 294 297 300 299 298 297 303 302 303
302 302 302 303 303 304 300 297 302 298 292 292 295 293 294 291 293 294 296 301 305 303 299 293 286 284 291 291 294 301 300 302 296 294 286 284 297 302 305 304 293 304 304 305
302 302 302 302 303 304 302 296 301 299 293 297 298 294 294 297 295 293 296 297 299 303 297 290 287 287 294 288 290 291 293 293 291 291 290 295 301 304 305 292 295 307 308 307
302 302 302 302 303 303 301 297 303 300 296 298 300 299 296 297 297 292 297 297 299 294 292 293 291 291 293 291 294 293 291 290 290 293 290 288 306 303 297 303 309 311 310 311
302 302 302 302 302 303 302 294 303 305 299 297 303 303 305 303 302 299 299 298 298 299 295 296 297 296 296 293 287 298 291 294 293 296 296 306 307 305 308 311 312 312 311 312
302 302 302 302 303 303 302 299 302 301 296 297 298 297 305 308 308 310 300 301 303 302 304 300 300 294 298 294 294 295 298 303 297 296 300 304 307 308 310 310 310 312 313 313
302 302 302 302 303 302 303 299 302 301 299 291 292 302 302 307 307 306 308 306 306 307 306 300 299 295 301 296 298 296 298 300 299 299 302 303 304 305 308 311 312 312 311 311
302 302 302 303 303 303 303 303 303 307 298 290 293 300 303 305 305 303 305 305 303 303 298 298 296 299 300 302 301 298 301 299 297 298 304 304 306 308 311 309 308 310 311 310
302 302 302 302 302 303 299 290 300 305 303 295 288 299 300 303 303 301 300 302 303 303 299 299 302 304 301 298 295 300 302 304 304 303 309 308 310 308 310 309 309 311 312 310
302 302 302 302 302 301 297 295 300 304 305 295 290 291 298 301 302 301 300 303 300 301 300 298 300 301 301 297 292 298 301 302 302 303 305 303 305 306 307 307 308 309 311 310
301 301 301 302 302 302 299 302 302 304 298 296 289 290 294 301 296 295 302 299 301 301 299 301 300 301 301 293 298 301 302 303 304 304 306 307 307 306 305 305 305 306 306 307
301 301 301 300 299 295 297 301 302 308 299 290 290 287 286 295 297 298 299 301 292 301 297 297 300 297 291 290 293 298 301 301 301 303 303 303 303 303 303 301 301 300 301 302
301 300 295 289 297 301 302 299 294 294 296 296 291 294 289 293 289 292 292 296 291 289 295 300 294 292 288 287 289 292 293 298 301 298 298 299 299 301 301 300 300 301 300 298
299 295 291 298 301 299 295 288 288 289 286 292 293 294 290 294 287 286 293 291 288 288 293 292 292 285 283 286 287 290 291 294 296 298 299 299 299 299 299 297 294 292 289 287
298 298 300 298 292 290 287 285 286 285 286 294 292 293 294 292 294 286 289 287 287 285 295 288 279 281 285 285 285 285 286 288 288 289 289 289 289 289 287 285 284 284 283 282
303 298 293 292 289 284 283 280 283 285 284 286 292 289 292 292 291 285 286 284 284 287 283 279 279 282 284 284 283 282 283 283 283 283 283 283 283 283 282 281 281 281 280 280
292 288 282 284 281 281 280 280 283 285 285 284 286 288 286 285 285 285 285 285 285 282 278 275 279 282 283 283 283 282 281 282 281 281 281 280 280 280 280 281 280 279 279 279
283 283 277 278 281 282 282 284 285 285 286 285 287 286 288 285 285 284 286 283 276 276 273 276 280 282 282 282 282 282 281 280 280 280 280 280 280 279 279 280 279 279 278 277
281 278 277 279 280 278 280 281 282 286 284 286 287 285 283 280 281 278 276 276 272 274 277 278 280 280 280 281 281 281 281 281 280 280 280 279 278 278 278 278 278 278 278 278
280 277 279 279 279 278 280 281 281 285 284 283 283 278 277 282 276 273 275 272 274 276 277 278 278 277 278 279 278 279 279 280 280 280 280 279 279 279 278 276 278 278 278 277

GFSNW_sfc_thetae_051.txt.gz
Theta_e
306 307 307 308 308 308 305 298 287 300 303 289 289 284 288 293 291 295 293 293 292 291 292 290 291 294 299 303 302 297 299 296 289 292 301 303 299 296 296 288 288 290 284 287
306 306 307 307 308 308 302 293 292 302 300 283 285 288 288 291 290 291 292 290 294 294 291 288 293 298 304 305 301 298 299 292 287 289 295 300 296 298 299 298 296 289 283 288
305 305 306 307 308 308 303 291 285 293 295 292 287 285 285 286 293 291 293 292 293 290 291 293 291 296 303 305 302 303 301 295 290 285 291 298 295 297 298 296 287 289 289 293
304 305 306 306 307 307 303 291 287 291 285 287 288 288 288 285 286 292 292 289 290 289 287 290 290 297 299 302 303 301 299 290 294 294 296 298 298 297 297 295 296 290 294 295
305 305 305 305 306 306 300 285 289 292 288 291 288 288 285 285 288 289 288 287 290 291 288 290 290 295 296 296 301 298 299 291 294 292 296 297 294 297 297 296 297 297 297 296
304 305 304 305 306 306 299 296 294 293 289 289 287 286 286 288 290 291 293 291 289 289 291 295 299 302 303 302 298 297 297 292 290 286 294 293 287 293 296 298 299 297 291 296
304 304 304 305 306 305 301 297 296 289 286 287 286 288 289 288 291 289 293 294 290 293 300 303 302 301 299 300 300 303 296 293 290 284 289 282 293 300 300 299 299 298 296 296
303 303 303 302 304 306 300 297 295 291 286 288 289 289 289 291 292 291 292 295 296 296 293 291 289 287 291 293 299 300 300 293 287 285 285 290 294 298 298 296 294 299 297 297
302 302 302 303 303 304 302 296 299 295 288 287 292 290 291 287 288 289 291 297 298 295 291 289 282 279 288 288 292 300 299 298 290 284 282 281 291 299 303 301 290 300 300 299
302 302 302 302 303 304 302 297 297 293 288 294 294 289 289 293 291 288 291 293 292 295 286 284 281 282 291 285 285 287 290 288 286 282 281 288 298 301 304 289 290 301 303 301
303 302 302 302 302 303 300 296 298 293 287 294 297 299 294 294 294 288 291 291 292 290 285 284 283 281 289 288 290 287 288 286 283 287 284 282 300 301 294 297 302 303 303 302
302 302 302 302 302 302 302 295 298 299 291 295 302 302 302 300 301 296 295 291 292 292 287 288 288 283 287 287 281 294 288 292 288 290 288 299 300 302 305 305 305 305 304 306
302 302 302 302 302 302 302 297 298 296 290 293 297 297 303 306 304 306 294 294 296 296 297 292 292 285 289 284 286 290 293 297 291 293 296 297 299 303 305 307 304 306 306 305
302 302 302 302 302 302 302 297 299 297 294 287 291 302 300 305 304 303 304 302 302 300 298 293 291 287 296 286 291 289 292 296 295 294 297 299 301 302 305 307 307 306 307 305
302 302 302 302 303 302 301 300 300 302 295 287 289 297 300 303 303 301 302 301 298 296 292 288 287 293 293 292 292 288 295 293 291 288 300 299 300 304 307 305 305 306 306 306
302 302 302 302 302 302 299 292 298 300 302 293 284 296 297 301 302 299 298 298 297 297 294 293 295 299 296 287 284 295 297 298 299 297 300 303 304 306 308 305 306 306 305 306
301 302 302 302 302 300 294 291 298 302 303 293 285 287 296 300 299 296 295 297 296 295 293 293 295 296 297 283 282 295 298 299 300 302 302 298 300 299 302 302 303 304 305 305
302 302 301 302 303 302 297 301 302 302 296 293 283 282 287 297 289 288 296 292 294 293 292 294 290 293 291 286 289 291 293 297 299 299 300 300 301 301 299 300 300 299 299 300
302 302 301 300 298 293 295 302 302 303 296 286 283 280 279 292 289 291 291 294 286 293 285 289 292 285 283 284 285 288 290 291 294 297 298 298 298 299 298 297 297 296 294 292
301 299 292 287 294 301 301 297 293 293 292 292 283 288 284 290 287 288 289 287 282 281 285 295 286 282 285 285 286 287 288 291 293 291 289 291 291 295 290 290 290 287 285 284
298 292 290 296 301 296 291 284 283 285 282 287 287 285 284 290 285 285 287 285 285 284 285 286 284 277 281 284 284 285 286 288 289 290 289 289 289 288 286 284 284 282 281 279
296 296 299 296 291 289 283 281 284 283 283 287 282 284 288 289 289 283 286 285 285 282 288 283 275 279 282 282 282 282 284 285 285 285 284 284 284 283 282 280 279 279 278 277
299 296 287 289 285 281 278 278 281 282 283 284 286 286 283 288 288 283 285 283 283 286 280 274 275 279 281 281 281 281 282 282 281 281 281 280 280 280 280 278 278 278 277 277
287 284 276 279 276 277 277 277 279 282 284 283 284 285 285 285 282 284 283 283 283 277 273 270 276 278 279 281 281 280 279 279 279 279 279 278 277 277 277 277 277 277 276 277
278 278 273 273 279 279 280 281 282 284 284 283 284 285 286 283 282 282 283 278 272 272 270 273 276 278 279 279 279 279 278 278 277 278 277 277 277 277 277 278 278 278 277 277
277 275 271 274 272 270 274 278 279 283 282 284 285 284 280 277 277 274 272 271 268 270 273 275 277 276 276 276 278 279 279 278 278 277 277 277 276 276 276 277 277 277 276 276
277 273 277 273 272 274 278 279 278 284 283 280 280 273 272 278 270 268 271 267 270 273 274 275 275 275 276 276 276 276 276 276 277 278 278 278 278 278 276 275 276 276 276 275

GFSNW_sfc_thetae_054.txt.gz
Theta_e
304 305 306 306 307 307 305 298 287 299 303 288 287 283 287 292 291 294 292 292 290 289 290 289 289 290 295 302 301 294 296 293 288 291 297 299 295 294 294 288 287 288 283 287
304 304 305 306 306 307 302 293 292 300 298 282 282 286 287 290 290 290 289 289 291 291 288 285 290 292 299 302 301 297 297 291 284 288 293 296 293 296 297 296 292 288 283 287
304 304 305 305 306 307 303 290 285 292 294 290 286 284 284 285 292 290 291 290 291 289 287 290 288 290 296 302 302 302 300 293 290 285 288 293 292 294 296 295 286 288 288 292
303 304 305 305 306 306 302 290 286 290 285 286 287 286 287 284 284 290 292 288 288 287 284 286 286 291 296 300 302 301 299 290 293 294 295 295 294 295 296 293 293 289 292 294
303 304 304 305 305 306 298 285 288 292 287 290 287 287 285 284 287 288 287 286 288 289 286 286 285 289 293 295 300 298 299 291 291 290 294 295 292 294 296 296 296 295 295 295
304 304 304 304 305 304 296 297 295 293 289 288 287 285 285 287 288 289 291 290 288 286 289 291 293 295 297 299 298 295 295 292 289 286 292 293 287 292 293 294 296 296 291 297
304 304 304 304 305 304 300 298 296 289 285 286 286 288 289 287 289 286 291 291 288 292 295 297 298 297 297 298 299 300 293 291 290 283 286 281 292 298 297 295 297 298 297 297
303 303 304 304 304 305 301 300 296 291 285 287 287 288 288 290 290 289 290 292 295 296 291 286 284 283 287 290 296 298 297 293 286 281 284 288 292 295 295 294 293 298 297 297
302 302 302 303 304 304 301 301 300 296 288 287 291 288 289 286 286 287 289 295 296 293 287 283 279 276 284 285 290 297 298 297 288 286 281 280 289 297 300 299 287 298 299 300
302 302 302 302 303 303 300 298 300 292 287 290 292 288 287 291 288 285 288 290 290 293 283 278 278 280 288 282 282 285 288 288 286 285 282 285 295 299 301 288 289 299 301 302
302 302 302 302 302 303 299 297 300 293 286 289 294 297 291 291 290 285 288 288 288 286 282 281 280 277 285 284 288 285 285 286 285 286 284 281 299 300 292 296 299 300 303 301
302 302 302 302 302 302 302 294 299 300 293 290 296 298 302 298 297 293 291 289 290 291 285 284 283 280 279 283 280 291 285 289 287 289 288 297 300 300 303 303 301 301 302 303
302 302 302 302 302 302 301 295 296 296 290 290 291 291 301 306 303 302 292 293 296 293 293 289 288 283 284 279 281 287 291 295 290 291 295 298 300 302 305 303 303 304 305 304
302 302 302 302 302 303 301 296 298 295 291 285 289 298 295 305 303 303 301 299 302 300 296 289 284 283 292 282 288 285 291 296 294 292 295 298 299 300 301 302 305 305 306 304
302 302 302 303 303 302 300 299 299 298 292 285 288 297 300 302 300 300 300 300 298 296 291 287 284 289 289 288 291 289 295 293 291 288 297 297 297 300 302 302 303 304 305 303
302 302 303 303 302 302 297 291 298 299 299 293 285 295 297 299 299 297 296 298 297 297 293 290 292 296 294 286 285 292 293 295 298 294 298 299 302 303 304 304 303 303 303 304
302 302 302 302 301 299 292 290 295 301 299 290 286 286 296 300 297 294 294 296 295 295 292 290 292 293 295 286 285 289 291 292 296 297 299 297 298 296 299 300 301 301 301 300
302 302 302 301 301 300 295 299 301 300 293 294 283 285 287 295 290 289 296 292 292 293 291 289 289 293 292 285 284 287 289 291 293 294 295 296 297 298 297 298 298 293 289 287
301 301 301 300 296 293 296 300 300 299 296 285 282 281 283 290 288 288 290 291 284 290 285 284 289 284 278 281 283 285 285 287 289 293 291 292 292 290 290 290 289 286 283 282
300 298 292 285 295 302 301 297 292 291 290 289 281 285 285 289 283 287 286 283 280 284 285 289 281 278 283 282 284 283 285 287 289 288 287 288 288 287 285 284 283 282 281 280
295 291 289 296 300 295 290 284 283 284 282 284 283 282 283 288 281 282 287 285 285 282 284 282 278 274 279 282 281 283 284 286 286 287 286 286 285 284 282 281 280 279 279 278
295 295 297 292 291 286 280 280 281 280 283 286 280 283 286 286 288 282 286 285 284 281 286 278 270 276 279 280 280 281 282 282 281 282 281 281 281 280 279 278 278 277 277 277
298 292 287 286 281 274 273 275 277 279 282 283 285 286 287 286 286 283 284 283 282 285 275 270 273 277 279 279 279 279 280 280 279 278 278 278 278 278 278 276 276 276 276 276
282 279 271 272 271 274 273 272 272 278 282 282 283 285 285 285 279 284 281 279 279 272 265 268 274 276 278 278 279 278 276 277 277 277 277 276 276 276 276 276 277 276 274 275
277 277 269 270 275 273 275 278 275 280 283 282 284 284 285 281 279 277 278 272 268 269 267 270 274 275 277 276 277 277 276 276 276 276 276 275 276 275 275 276 276 276 276 275
275 274 269 272 270 271 273 277 276 281 281 283 284 282 278 275 274 271 268 269 266 268 271 274 275 274 275 275 276 277 277 277 276 276 276 276 275 275 274 275 275 275 275 274
273 270 271 269 268 269 273 275 276 282 281 276 277 270 272 276 271 268 270 267 270 271 272 274 274 274 274 275 275 275 275 274 274 274 275 275 276 276 275 273 274 274 274 273

GFSNW_sfc_thetae_057.txt.gz
Theta_e
303 304 304 304 305 306 303 298 287 300 302 287 288 282 285 291 289 293 291 292 289 287 288 287 288 289 292 300 300 293 295 291 287 290 296 297 295 293 293 286 285 285 282 286
303 303 303 304 305 305 300 292 291 300 298 282 282 286 286 288 289 289 289 288 290 291 287 283 287 291 296 300 298 297 298 289 285 287 290 294 291 293 294 293 290 285 283 287
303 303 303 304 304 305 300 288 284 291 293 289 286 284 284 284 290 289 290 289 290 288 286 289 286 288 293 296 301 302 300 292 288 284 288 292 290 293 294 293 285 285 287 291
303 303 303 304 304 305 300 289 286 291 284 285 287 287 286 283 284 289 291 287 287 286 283 285 284 289 291 295 301 301 297 289 292 292 293 294 294 293 292 290 292 288 290 291
302 303 303 303 304 304 297 285 288 292 286 290 287 287 285 284 285 286 285 285 287 287 284 285 283 286 288 289 296 296 299 289 290 288 293 293 291 293 294 293 293 292 293 291
302 302 303 303 303 304 295 296 294 293 289 287 286 284 286 286 288 289 289 288 287 285 287 290 290 291 292 294 293 292 292 290 288 284 290 290 285 290 293 293 295 295 290 295
302 303 303 303 303 303 299 297 295 289 285 285 286 288 288 286 288 286 289 290 287 290 294 293 293 294 294 296 297 298 292 290 289 285 286 280 291 297 297 294 295 296 296 297
303 303 303 303 303 303 299 299 296 291 285 288 287 288 288 289 290 289 288 290 293 294 290 285 283 281 284 287 294 296 295 291 285 284 284 286 292 293 293 292 293 297 296 298
302 303 303 303 303 304 300 298 301 295 288 286 291 288 289 285 285 287 288 294 295 292 286 283 279 275 281 283 288 296 294 292 286 284 281 280 288 295 299 298 288 297 298 298
302 302 302 302 302 303 301 299 301 295 288 292 292 287 287 290 287 285 287 289 289 291 281 277 278 278 285 279 280 283 288 287 285 285 283 284 294 298 301 287 289 298 299 300
301 301 302 302 302 302 300 296 302 296 289 291 294 295 290 290 289 283 287 287 287 284 280 279 280 276 282 283 286 284 283 283 284 285 283 280 297 296 292 296 298 300 301 302
302 301 301 302 302 302 301 293 299 301 293 292 296 297 297 297 295 291 289 288 289 288 283 281 281 277 276 282 278 288 282 285 283 286 286 296 297 298 300 302 301 301 301 302
302 302 302 302 302 302 300 294 297 296 290 291 291 290 296 302 301 299 289 291 294 291 291 286 285 281 281 276 280 284 287 291 287 288 291 294 296 298 300 301 303 304 305 304
302 302 302 302 303 302 301 294 297 295 292 283 286 297 294 300 301 302 299 297 300 297 294 288 284 280 289 280 286 283 287 291 289 289 292 295 297 299 300 302 304 304 306 305
302 302 302 302 303 302 299 297 297 298 291 284 284 295 297 299 299 300 301 300 297 293 289 287 286 287 287 286 287 284 292 290 288 284 294 294 297 300 300 299 299 303 302 303
301 302 302 303 302 302 296 290 297 299 297 291 283 292 295 299 299 299 299 299 297 294 292 288 292 294 292 283 281 289 291 292 293 292 294 295 299 299 298 299 300 300 297 295
302 302 302 302 302 297 291 289 294 299 295 287 285 287 295 298 297 296 295 297 295 292 290 288 289 292 295 285 280 286 289 289 291 294 293 296 296 293 294 296 295 293 290 288
302 302 302 300 299 300 294 297 300 298 291 291 284 285 289 298 290 290 292 289 291 291 289 288 288 292 292 283 282 285 286 288 292 290 293 292 293 291 289 290 288 285 283 283
302 301 301 299 296 292 295 301 299 297 294 285 284 280 283 292 287 289 288 289 282 289 284 286 289 283 278 279 281 282 283 284 285 288 291 291 289 287 285 284 283 281 279 279
300 298 292 286 293 301 300 294 289 287 290 291 284 283 285 289 285 285 285 286 284 284 286 289 278 277 280 280 281 281 283 286 286 286 287 286 286 285 282 281 281 280 279 279
295 288 288 297 301 294 289 284 284 284 281 284 282 282 285 288 282 283 284 285 285 281 284 283 277 274 277 279 279 281 282 283 283 285 284 283 283 282 280 279 279 278 278 277
295 295 296 295 290 284 280 280 279 282 282 284 284 282 285 285 286 281 286 283 284 279 282 276 271 275 278 278 278 279 280 280 279 280 279 279 279 278 278 277 276 276 276 275
293 287 282 282 277 270 269 272 277 277 281 282 285 285 286 286 286 284 284 282 280 281 273 270 271 276 277 277 277 277 278 278 278 277 278 277 277 277 277 275 276 275 274 275
280 276 268 269 267 271 271 271 270 278 281 281 283 285 285 285 283 282 278 276 276 267 264 267 272 274 275 276 277 276 275 276 275 275 275 275 274 274 275 275 275 273 272 273
277 276 267 270 273 273 272 274 274 279 282 282 284 283 281 277 274 274 273 268 265 267 263 267 272 274 275 275 276 275 275 275 275 275 274 274 274 273 273 274 274 274 274 273
276 273 269 270 269 271 273 273 273 279 280 283 283 278 275 271 271 269 267 267 264 265 269 272 274 273 273 273 273 273 274 275 275 275 275 274 274 273 273 273 273 273 272 271
273 269 273 267 268 270 272 275 276 280 280 274 276 271 272 275 269 266 268 266 268 270 270 271 272 272 272 273 273 273 273 273 273 273 273 274 274 274 273 271 272 272 272 271

GFSNW_sfc_thetae_060.txt.gz
Theta_e
300 301 301 303 304 304 301 294 285 301 303 287 287 283 286 289 287 292 290 291 289 287 287 285 287 289 292 294 298 291 294 290 285 289 294 295 291 290 292 285 283 284 282 286
301 301 302 303 304 303 297 290 290 300 299 282 283 287 286 287 286 288 288 287 289 289 286 282 287 289 294 294 294 296 297 288 282 285 289 291 289 291 292 291 288 284 283 285
301 301 302 303 303 303 298 289 283 290 293 291 286 284 284 284 289 287 289 288 289 287 285 288 285 287 292 293 293 301 300 293 286 283 286 291 288 290 292 291 283 284 285 288
301 302 302 303 303 303 298 290 284 290 283 285 287 287 285 283 283 288 289 286 287 286 282 283 283 288 289 293 296 299 296 288 291 292 293 293 291 291 290 288 289 286 288 289
301 302 302 302 302 303 295 284 287 291 288 289 287 287 283 284 285 286 284 284 287 287 283 284 282 285 286 286 292 292 296 287 288 288 292 292 289 291 291 290 290 290 291 290
301 301 301 301 302 302 293 294 294 292 289 287 285 285 285 285 288 287 288 287 285 284 286 289 290 289 290 290 288 288 290 287 285 283 289 288 283 288 290 292 293 292 289 293
301 301 301 301 302 301 297 296 294 288 284 286 286 287 288 287 287 285 290 289 285 290 293 292 291 289 289 289 289 292 290 288 286 283 285 279 289 294 294 292 293 294 294 295
301 301 301 301 302 302 298 298 294 290 283 288 287 288 287 288 289 288 288 290 293 293 290 284 282 281 283 286 291 292 296 289 285 280 280 284 288 292 291 290 291 295 294 295
301 302 302 302 302 303 299 297 300 293 286 286 290 288 289 285 285 286 288 294 294 292 286 283 279 275 280 281 285 291 292 291 285 284 278 276 285 295 298 298 286 296 297 296
301 301 302 302 302 303 300 297 300 296 288 291 292 287 288 290 288 285 288 289 287 290 283 282 280 279 283 278 280 285 286 285 284 283 282 283 291 296 299 285 285 296 298 299
301 301 301 302 302 303 300 297 300 294 286 292 294 295 291 290 290 284 288 288 285 282 279 280 282 277 281 280 284 285 284 283 280 283 281 277 294 294 292 294 297 298 299 299
301 301 301 301 301 302 302 291 300 299 293 292 297 299 298 297 295 291 291 287 286 286 281 280 281 277 275 281 277 287 280 284 282 284 284 292 294 295 298 299 298 299 299 300
301 301 301 301 301 301 300 295 296 293 288 291 291 291 296 299 299 299 288 289 292 288 290 284 283 279 280 276 279 283 286 290 285 285 288 291 293 295 297 298 299 301 302 302
302 302 302 301 302 302 300 295 297 294 291 285 289 297 296 301 301 301 299 296 298 294 292 285 282 280 287 279 284 282 285 288 287 286 291 293 294 296 297 296 300 300 301 302
302 302 302 302 302 302 299 298 297 298 292 284 285 294 296 297 298 297 299 298 295 293 289 283 285 285 286 284 285 283 290 288 284 283 292 292 292 295 294 294 295 295 294 298
302 302 302 302 302 302 296 289 296 299 299 290 282 291 294 295 295 295 296 298 297 293 291 288 288 292 289 285 280 289 291 291 292 291 292 291 293 294 291 290 292 291 289 287
302 302 302 302 302 297 291 287 294 299 298 290 284 285 294 296 295 294 293 297 297 295 292 289 287 289 293 286 283 285 287 287 289 293 291 291 292 289 289 288 289 288 285 283
301 302 302 301 300 300 295 295 299 299 293 290 283 285 289 296 290 289 295 292 294 293 291 288 287 289 289 284 281 284 284 285 287 288 289 291 291 289 286 286 285 282 280 280
302 302 299 297 293 291 294 300 299 297 292 282 282 282 282 293 289 291 289 292 285 290 285 284 287 284 280 277 279 280 281 282 283 286 287 290 289 285 283 282 282 280 279 279
299 296 290 284 294 300 300 294 289 288 288 290 284 285 284 289 286 285 286 285 282 279 283 284 278 276 278 279 280 280 281 282 283 283 283 283 283 282 280 279 279 279 278 278
294 290 288 295 299 293 289 284 283 284 283 286 285 285 285 289 281 284 284 283 285 281 280 280 277 273 275 278 278 279 280 281 281 282 281 280 280 279 278 277 277 277 276 275
295 295 296 292 286 283 282 280 282 282 282 284 285 285 287 287 285 283 285 282 284 277 280 275 269 274 277 278 277 277 278 278 278 279 278 278 278 278 277 276 275 275 274 274
291 286 281 281 277 272 273 271 274 276 280 281 285 284 285 285 286 284 284 281 276 279 272 269 270 274 276 276 276 276 277 277 277 276 277 276 275 275 275 273 274 274 273 273
280 275 267 268 265 269 270 269 270 278 280 281 284 285 283 284 282 280 277 273 273 266 264 266 271 274 274 275 276 275 274 274 274 274 274 273 273 273 273 273 273 272 271 272
275 273 265 268 272 274 274 275 276 279 281 282 282 277 280 273 270 273 273 267 265 266 263 268 271 272 273 273 274 275 274 274 273 273 273 272 272 272 272 272 272 272 271 271
274 272 267 268 267 269 268 270 271 278 278 278 279 272 270 268 270 267 265 266 263 264 267 270 272 272 272 272 273 273 273 274 274 274 273 273 272 271 271 272 271 271 270 270
271 269 270 267 267 266 269 271 274 278 277 272 275 269 270 274 267 264 267 261 263 266 269 271 272 271 271 272 272 272 272 272 272 272 273 272 273 272 271 269 270 271 271 270

GFSNW_sfc_thetae_063.txt.gz
Theta_e
301 300 300 300 301 302 298 293 283 300 303 287 288 284 286 289 287 291 290 290 289 287 287 285 286 287 290 294 293 292 296 292 286 290 295 297 296 294 295 289 287 289 288 290
300 300 300 300 301 302 295 289 288 299 298 281 282 287 286 287 286 288 288 287 289 290 287 284 287 288 294 294 293 291 298 290 285 287 292 294 292 294 295 294 291 289 287 289
300 300 300 300 301 302 297 289 282 289 292 291 285 284 284 283 289 287 288 288 290 288 286 289 286 286 291 294 294 299 300 294 288 284 288 293 290 292 294 294 288 289 290 292
299 299 299 300 302 302 296 289 284 288 281 283 286 286 285 283 283 288 289 286 287 286 283 284 284 288 288 291 296 297 298 289 292 293 293 293 292 292 293 291 292 289 292 292
299 299 300 301 301 302 293 285 286 289 286 288 285 286 284 283 285 287 285 285 287 288 284 285 283 286 287 287 291 291 292 290 291 289 293 292 290 293 292 292 293 293 293 293
299 299 300 301 301 301 292 293 293 290 286 285 285 285 285 285 288 288 289 288 287 285 287 290 291 291 291 290 288 288 288 290 288 284 289 289 287 290 291 293 294 294 290 296
300 300 300 301 301 301 295 294 293 287 282 285 285 287 287 286 287 286 289 290 287 290 294 294 293 291 290 290 290 291 287 289 287 285 286 278 291 296 295 294 295 296 296 297
300 300 300 300 300 301 296 296 293 288 282 285 286 287 287 289 290 288 288 291 293 295 292 286 284 283 285 287 289 289 291 288 286 283 283 286 289 293 294 293 293 297 297 299
300 300 300 300 301 301 298 296 298 293 285 284 289 288 289 286 286 286 289 294 297 294 288 284 279 278 281 282 287 292 290 291 288 285 281 279 289 296 299 299 288 298 299 298
300 301 300 301 301 302 298 296 299 293 286 290 291 287 288 291 288 286 288 289 289 293 285 282 281 281 285 280 282 284 285 287 284 284 283 286 293 297 299 286 288 300 300 300
301 300 301 301 301 302 299 296 299 294 286 291 294 295 292 291 290 285 289 288 288 287 283 283 282 282 284 283 286 287 285 284 284 286 283 280 295 297 291 296 300 300 301 301
301 301 301 300 300 302 301 294 300 299 292 290 297 298 299 298 296 292 292 290 288 288 285 285 286 283 283 284 281 289 284 289 288 288 288 294 297 297 298 299 298 300 300 302
301 301 301 301 301 301 301 293 298 296 290 290 291 292 298 300 300 301 290 292 294 291 292 288 287 284 285 282 284 286 289 292 289 289 291 294 296 298 299 298 298 299 296 298
301 301 302 301 301 301 297 294 296 295 291 286 289 298 296 302 302 300 299 298 298 296 295 289 286 286 289 285 287 286 289 291 289 289 292 296 296 296 295 296 297 295 294 293
302 302 302 302 301 301 299 298 296 297 292 285 288 294 297 299 300 299 300 299 297 296 292 287 288 289 290 288 289 288 293 290 289 288 291 290 293 297 293 293 292 291 290 289
301 302 302 302 301 300 295 288 296 299 298 290 285 293 293 296 299 298 297 298 297 296 293 290 292 294 292 286 285 290 292 291 290 289 292 292 294 294 291 290 290 289 286 285
301 302 302 302 301 297 291 289 294 299 300 289 285 286 294 295 295 295 296 298 296 295 293 291 291 293 294 288 285 287 286 287 287 290 290 292 292 290 288 288 288 287 285 283
302 302 302 302 300 299 295 297 299 299 294 291 284 285 289 296 289 289 296 292 294 293 291 290 290 292 291 284 282 283 283 284 287 285 287 288 290 288 286 286 285 283 282 281
302 302 301 295 292 290 294 300 300 299 293 285 284 283 282 294 290 291 291 293 285 291 287 286 290 287 283 277 278 279 280 280 282 284 286 287 286 283 282 281 281 280 279 279
299 296 291 285 290 300 299 294 288 289 290 291 283 288 285 290 288 286 286 287 285 284 286 286 281 275 278 279 279 279 279 281 282 280 281 280 280 280 279 278 278 278 277 276
294 290 288 295 299 294 290 285 282 283 282 286 287 286 285 287 285 285 286 285 285 281 282 284 278 273 276 278 277 278 279 280 279 281 280 280 279 279 277 276 276 276 275 274
295 293 293 290 285 284 281 281 282 282 281 285 285 285 288 286 289 286 286 284 284 278 281 277 270 274 276 277 276 276 278 278 277 278 277 277 277 277 276 275 274 274 273 273
289 284 280 280 275 271 272 273 275 276 279 282 285 285 286 287 288 286 285 281 275 279 272 269 271 274 275 276 276 276 277 276 276 275 276 275 274 275 274 273 273 273 272 272
279 276 268 268 267 271 271 271 272 278 280 280 285 283 282 282 281 279 276 274 275 268 266 266 271 273 274 275 276 275 274 274 273 273 273 273 272 272 273 273 272 271 270 270
275 274 266 267 272 273 274 275 277 278 280 283 282 277 279 274 272 274 274 269 266 267 266 269 272 273 273 273 274 274 273 273 273 273 272 272 271 271 270 272 272 271 271 270
274 271 269 269 269 269 270 272 274 278 278 281 279 274 270 269 270 267 266 267 264 266 269 271 272 272 272 272 273 273 273 273 273 273 273 272 271 271 271 271 271 270 270 269
271 269 269 268 269 269 270 272 274 278 279 273 274 269 270 273 266 264 267 264 266 268 270 272 272 271 272 272 272 272 272 272 272 273 272 272 272 272 270 269 270 270 270 269

GFSNW_sfc_thetae_069.txt.gz
Theta_e
300 300 299 301 301 302 299 295 286 304 306 289 291 285 289 293 291 294 292 292 291 290 291 290 289 290 291 294 293 291 295 292 288 293 300 301 299 298 298 293 291 295 295 295
300 300 300 300 301 301 297 289 291 303 302 284 286 289 289 291 290 291 291 290 292 293 290 287 291 292 296 295 292 291 293 291 285 288 295 299 296 299 299 299 298 292 291 294
298 299 298 300 301 301 299 291 285 291 296 294 289 287 288 287 293 291 292 292 293 291 290 293 289 290 293 294 292 296 296 293 290 287 291 295 294 297 299 298 293 293 294 297
299 300 299 300 300 301 298 290 287 291 285 288 289 290 289 286 287 292 292 290 291 289 286 288 288 291 293 294 294 294 294 289 293 294 296 296 295 295 297 295 296 293 295 296
299 299 299 301 300 300 296 286 287 292 289 291 288 288 287 286 288 290 289 289 290 291 288 289 287 290 291 290 293 291 293 288 290 291 295 295 293 295 295 296 297 297 297 296
299 299 299 300 300 299 293 295 296 292 288 288 287 287 288 287 290 291 293 292 290 289 291 295 297 297 296 294 292 290 289 288 287 286 291 291 288 294 295 296 298 299 294 299
299 299 300 300 300 299 298 297 295 287 283 286 287 288 289 289 289 289 292 294 291 294 299 299 298 296 295 294 294 294 289 288 289 285 289 280 294 301 299 297 298 300 301 301
300 300 300 300 300 300 299 298 295 290 283 287 287 288 288 290 292 291 292 295 296 300 295 289 287 288 288 291 293 293 294 290 287 282 284 288 292 296 297 296 295 300 300 302
301 300 300 300 300 301 300 299 300 293 287 286 290 287 289 287 288 290 292 297 299 294 291 289 283 282 286 285 288 294 293 293 289 287 281 279 290 299 302 300 290 300 301 301
300 301 301 300 300 300 300 297 302 294 287 291 292 289 289 292 291 289 293 292 292 294 288 285 284 284 289 284 285 286 288 288 285 286 285 288 297 300 302 288 290 301 303 303
301 301 301 301 301 300 300 298 302 294 288 291 294 295 292 293 292 289 293 290 290 288 286 286 287 286 289 287 291 288 287 286 285 287 284 282 301 299 293 299 303 303 303 303
301 301 301 301 301 300 300 295 302 301 292 291 300 299 300 300 297 294 293 291 291 293 290 291 292 288 291 289 285 295 287 291 289 290 290 300 303 301 303 304 302 301 302 302
301 301 301 301 301 301 299 295 297 295 289 290 294 294 300 303 303 304 292 295 297 296 299 293 293 288 293 287 289 291 294 297 294 293 297 298 301 303 302 303 302 302 301 300
301 302 301 301 301 302 300 295 297 295 291 286 292 300 297 304 304 303 302 298 302 300 300 294 292 290 295 292 292 292 294 295 293 293 296 299 301 301 300 301 301 300 300 299
302 302 302 301 301 301 300 298 298 300 294 289 290 298 300 300 300 300 300 298 298 295 292 293 291 296 295 296 295 292 296 294 291 292 297 297 298 299 298 298 297 297 297 296
302 302 302 301 301 301 296 287 298 300 301 292 287 297 296 298 299 298 297 298 297 295 292 294 296 299 296 292 289 296 297 297 297 295 297 297 297 295 295 294 294 294 293 292
302 302 301 301 300 297 293 292 296 301 300 291 287 290 296 299 299 299 298 298 296 294 292 294 295 296 297 293 288 289 292 294 294 294 294 294 293 290 292 290 291 292 291 289
301 302 301 300 299 299 295 299 301 301 295 293 287 288 291 298 293 292 297 293 293 293 292 295 294 296 295 288 285 287 288 291 292 290 292 290 291 289 286 287 288 286 284 283
301 301 300 297 295 293 296 300 301 303 296 289 289 287 284 295 292 293 293 294 286 294 288 291 295 291 280 280 281 282 283 283 284 288 290 289 287 285 284 284 284 284 283 283
301 295 289 285 294 300 299 294 288 290 293 295 289 295 287 293 292 290 290 291 290 284 288 293 289 280 282 283 283 283 283 284 285 283 283 283 284 284 283 282 283 282 281 280
294 288 288 296 300 296 292 287 287 288 287 292 292 292 289 295 289 288 293 290 290 285 287 287 284 278 279 282 282 282 283 283 283 283 283 282 282 282 282 280 280 279 278 277
296 292 294 294 292 288 285 285 287 287 286 290 288 290 293 292 296 290 290 287 289 282 290 286 280 278 280 280 280 280 281 281 280 281 280 280 280 280 279 278 277 276 276 275
297 290 286 288 285 282 282 279 282 282 286 286 289 287 290 292 292 289 288 284 284 288 284 279 277 278 278 279 279 278 279 280 279 278 278 278 277 277 276 275 275 275 275 275
287 284 276 281 279 280 280 282 283 283 286 286 289 287 289 288 286 286 282 282 285 281 279 275 277 276 277 278 278 277 276 276 275 275 275 275 274 274 274 274 274 274 272 272
282 283 276 276 279 281 281 283 284 285 286 286 289 288 290 285 283 284 282 279 277 278 277 276 277 277 277 277 277 276 275 275 275 275 274 274 274 273 273 274 274 273 272 272
281 279 278 280 281 281 281 282 282 284 285 289 290 284 282 279 282 279 275 279 277 275 277 277 277 275 276 276 276 276 277 276 276 276 275 275 273 273 273 273 272 272 272 271
278 277 280 280 279 279 280 282 282 286 286 284 287 280 276 282 278 274 277 274 275 276 277 278 277 276 276 276 276 276 277 276 276 275 275 275 275 275 274 273 273 273 272 271

GFSNW_sfc_thetae_072.txt.gz
Theta_e
300 300 300 300 299 300 298 293 284 301 306 288 288 283 288 292 291 294 292 292 290 289 290 289 289 290 293 296 295 290 294 291 285 288 296 300 298 294 295 290 288 292 293 293
300 300 300 300 300 299 294 290 289 300 302 283 285 288 288 290 290 290 290 289 291 291 288 286 290 292 297 296 295 290 291 289 282 285 292 297 294 296 296 296 296 291 289 292
299 299 299 300 299 300 295 291 284 290 295 293 288 286 286 287 292 290 292 290 292 290 288 290 289 291 295 296 294 294 294 289 287 283 288 292 292 295 296 296 290 292 293 296
299 299 299 299 299 300 295 291 286 290 284 287 288 288 288 286 286 291 292 289 289 288 286 287 288 291 292 294 294 294 292 287 290 291 292 294 294 294 295 294 296 292 295 296
299 299 299 300 298 300 292 288 286 290 288 290 288 287 286 286 288 289 288 288 289 289 287 288 286 289 290 290 294 292 292 286 288 286 292 293 291 295 296 296 297 297 297 296
299 299 299 299 300 299 291 293 294 290 287 287 286 287 287 287 289 291 292 291 290 289 291 294 295 296 295 295 292 290 289 287 286 282 290 291 288 293 294 295 297 297 293 298
299 299 299 300 299 299 297 295 293 287 282 285 285 288 289 288 289 288 290 292 291 294 299 299 297 295 294 294 294 294 289 287 286 283 286 280 292 299 298 297 298 300 300 301
299 300 300 300 300 300 297 295 294 289 283 286 286 287 287 290 291 290 290 293 296 300 295 289 286 287 288 289 292 292 293 289 284 282 282 287 291 295 296 295 295 301 300 302
301 300 301 300 300 300 299 298 300 292 287 285 289 287 288 286 287 289 292 298 300 297 291 286 281 279 284 284 288 293 292 292 287 285 281 279 289 298 300 298 287 299 300 300
301 300 300 301 300 300 298 296 301 294 286 289 290 287 288 291 289 288 291 292 292 295 287 283 282 282 289 283 284 285 286 287 283 284 283 287 296 300 301 286 289 300 301 300
301 301 301 301 301 301 299 297 302 294 288 289 292 293 290 291 292 288 292 290 291 288 283 284 285 286 288 287 290 287 286 284 284 285 283 281 300 299 293 298 301 301 301 300
301 301 301 301 301 301 300 293 300 301 292 290 296 297 298 296 295 293 290 290 290 291 288 289 289 288 290 288 284 294 286 290 288 288 289 299 301 300 302 302 299 299 299 299
301 301 301 301 301 301 300 297 299 297 290 290 290 290 296 300 301 303 291 294 295 293 298 293 291 287 292 286 288 290 294 297 292 293 297 297 299 300 301 301 299 299 299 298
301 301 301 301 301 302 301 294 298 296 291 284 287 297 296 299 302 302 302 299 300 299 299 291 290 289 295 290 292 291 294 294 293 293 295 295 296 297 299 298 298 298 298 297
302 302 302 302 301 301 300 297 299 299 291 286 287 295 298 301 299 299 300 299 297 294 292 291 289 293 293 294 295 290 295 293 292 289 294 294 293 295 297 295 295 295 294 293
302 302 302 302 301 301 295 286 296 300 299 289 285 295 296 299 299 297 296 298 296 295 292 291 295 298 294 290 288 290 293 294 293 290 295 296 295 293 294 292 292 293 291 289
302 302 302 302 301 298 291 291 296 300 299 288 286 287 296 298 297 297 297 298 295 294 292 291 293 294 295 291 285 286 288 293 291 292 294 291 289 288 290 290 291 290 288 285
302 302 301 300 300 298 294 300 301 300 294 292 285 287 290 298 293 291 298 292 293 292 292 294 292 295 295 282 283 284 286 289 288 289 292 290 290 288 287 288 288 287 284 282
301 300 300 297 294 291 295 301 300 301 294 288 288 284 284 297 294 293 294 292 286 292 288 290 293 287 279 280 282 281 283 283 285 288 287 288 287 286 286 285 285 284 282 281
300 295 289 285 293 300 299 294 287 289 291 294 288 292 287 293 292 289 288 291 288 285 288 293 286 278 283 283 283 283 283 284 284 283 281 282 282 283 282 281 281 281 279 278
294 288 288 296 300 296 291 285 286 287 286 291 292 291 288 295 288 287 293 287 290 284 286 286 283 278 279 282 281 282 282 282 282 282 282 282 281 281 280 278 278 277 277 275
294 293 296 295 291 289 286 284 287 286 285 291 290 291 293 292 294 289 290 287 288 282 290 286 278 277 280 280 279 279 280 280 279 280 279 279 279 279 278 276 275 275 275 275
297 292 288 289 286 282 282 279 282 284 287 288 289 288 292 292 293 290 289 284 283 289 284 278 276 277 279 279 279 278 279 278 278 277 277 276 276 276 275 274 274 274 273 273
288 285 278 282 280 281 280 281 283 285 287 289 289 288 289 289 286 286 282 283 285 281 279 274 276 276 277 277 278 276 275 275 275 274 274 274 274 273 274 273 273 272 271 272
284 284 277 277 280 282 283 285 286 285 287 287 289 290 289 285 284 285 283 279 278 277 274 275 276 277 277 276 276 276 275 275 275 275 274 273 273 273 272 273 273 272 272 271
281 280 280 282 282 281 283 284 283 286 286 288 292 285 283 281 283 280 278 279 276 275 275 276 277 276 276 276 276 276 276 276 275 275 274 274 273 272 272 272 272 272 272 271
279 278 281 282 281 280 281 283 283 287 286 285 287 281 278 283 278 275 276 274 275 277 277 278 277 276 275 276 276 277 276 276 276 275 275 275 275 275 274 272 273 273 272 271

GFSNW_sfc_thetae_075.txt.gz
Theta_e
300 300 300 300 300 299 297 291 282 293 300 284 286 280 284 289 288 291 290 289 288 286 287 286 286 288 292 295 294 290 293 290 284 287 295 298 294 293 293 287 286 289 287 288
300 300 300 300 300 300 294 287 286 293 296 280 281 285 285 287 286 288 288 287 289 290 286 283 287 291 295 296 293 289 290 288 282 284 289 294 291 294 295 293 292 287 285 289
299 299 299 300 300 300 294 286 280 284 286 286 285 282 283 284 290 288 289 288 289 288 286 288 285 289 294 295 294 295 294 287 284 281 286 289 288 292 295 292 288 288 290 294
299 299 299 299 299 299 293 285 283 286 274 282 284 286 286 284 284 290 291 287 287 286 283 285 285 288 292 294 295 293 291 283 287 289 290 291 290 290 292 292 292 289 293 295
299 299 299 299 299 298 291 284 284 287 285 286 285 285 284 283 286 287 287 286 288 288 283 285 284 288 288 288 292 291 291 283 286 285 290 289 288 292 292 295 294 294 295 295
299 299 299 299 299 297 288 291 290 287 284 284 283 284 285 285 288 288 290 290 288 287 289 292 292 292 292 292 290 289 289 285 282 280 288 287 284 291 293 295 297 296 292 297
299 299 299 299 299 299 292 292 288 281 277 281 282 284 286 287 288 286 290 291 289 293 298 296 294 292 292 292 292 293 287 286 284 281 284 279 289 297 297 295 297 299 299 301
300 300 300 300 300 300 293 291 288 284 276 282 283 284 285 287 289 288 289 291 294 295 292 287 284 282 284 287 290 290 291 287 282 279 280 285 291 294 293 294 291 296 297 301
300 300 300 299 300 300 294 292 292 288 283 280 286 285 286 283 283 286 288 294 295 292 288 283 277 276 281 281 285 291 289 289 284 283 279 278 289 296 298 298 287 297 298 297
301 301 300 300 301 300 295 291 294 290 284 286 287 284 284 287 286 284 287 289 291 290 282 277 277 278 286 280 280 281 283 284 281 281 280 284 296 298 299 285 287 300 298 298
301 301 301 300 300 301 296 291 294 290 285 286 289 290 286 287 288 284 288 288 289 285 278 279 279 279 284 285 287 285 282 282 280 282 279 278 299 297 291 296 300 298 297 297
300 301 301 301 301 301 299 289 295 296 289 286 292 292 293 292 292 290 287 287 288 289 285 283 285 283 285 286 281 292 283 287 284 285 285 297 299 299 299 298 296 296 295 296
301 301 301 301 301 301 300 293 292 291 286 287 287 286 292 295 295 298 287 291 293 291 296 290 288 284 288 281 284 288 292 294 290 290 294 295 296 297 297 298 296 296 295 294
301 301 301 301 302 301 301 294 294 292 287 278 283 294 291 296 296 296 297 295 298 296 293 288 287 285 293 286 289 287 288 294 291 286 288 292 293 294 295 295 295 294 293 291
302 302 302 302 302 302 300 297 296 296 288 283 285 291 295 296 296 294 295 296 295 290 287 288 287 292 290 290 291 285 289 285 286 285 290 289 288 292 293 291 291 290 289 287
302 302 302 302 302 302 294 285 295 297 295 286 280 292 292 295 296 293 294 294 292 290 291 289 291 296 291 286 283 286 287 289 289 289 292 291 290 289 291 289 288 286 284 284
301 302 302 302 302 297 291 288 293 298 297 287 283 283 292 295 294 292 292 293 292 291 290 289 290 292 293 286 280 283 285 287 288 291 291 286 286 285 288 289 287 286 283 281
302 302 302 302 300 298 293 299 299 298 292 290 282 283 288 295 287 287 294 291 292 291 290 290 289 291 287 277 281 282 283 285 285 288 289 288 287 286 285 286 285 282 280 279
302 302 301 296 294 290 293 301 299 299 292 284 284 281 281 293 290 292 291 292 284 292 286 287 290 282 275 279 279 280 281 281 281 285 284 285 284 283 282 281 281 279 278 278
299 295 289 285 293 300 299 292 289 288 291 290 285 288 282 290 287 286 287 287 285 283 285 290 280 277 281 281 280 280 281 281 281 279 278 280 280 278 278 277 278 277 276 275
293 288 288 295 300 294 289 283 284 285 283 286 287 287 285 292 285 285 287 285 284 280 284 284 280 276 277 279 278 279 280 280 279 280 279 278 279 277 276 275 275 274 274 272
293 294 296 294 290 287 283 282 284 283 279 283 284 287 290 289 292 286 285 284 284 280 287 283 273 275 277 277 276 277 278 277 276 277 276 276 276 275 275 274 273 273 273 272
296 291 287 288 284 279 276 276 275 280 285 286 286 286 288 289 291 286 285 281 279 283 280 271 272 275 276 277 276 275 276 276 275 274 274 274 273 273 272 271 270 270 270 270
286 281 271 278 278 278 278 280 281 284 285 286 286 285 285 286 284 284 280 281 283 276 271 269 272 272 273 274 275 274 272 272 271 269 269 269 269 269 269 269 267 267 267 268
280 280 273 274 277 276 281 283 284 284 286 286 284 283 285 283 281 282 279 278 276 272 266 269 273 273 273 271 272 273 270 269 269 267 268 267 267 267 268 267 267 267 266 265
280 277 276 278 278 278 281 282 281 284 284 286 283 283 280 279 280 276 271 275 268 267 268 272 271 270 269 273 273 269 269 268 268 267 268 268 266 266 267 266 265 264 264 263
278 274 277 279 274 276 279 281 282 286 284 284 281 277 277 279 273 270 272 267 270 272 273 272 269 268 267 269 270 271 272 273 273 271 269 267 267 268 269 268 267 268 268 265

GFSNW_sfc_thetae_078.txt.gz
Theta_e
300 300 300 300 300 300 295 287 280 290 295 283 283 279 282 287 285 289 287 288 286 285 286 284 285 288 291 294 293 288 292 288 282 285 293 297 295 291 292 285 284 288 286 287
300 300 300 300 300 299 291 285 284 291 294 278 278 282 283 285 283 284 286 286 288 288 285 281 286 289 294 294 291 288 289 286 280 282 289 294 290 292 293 293 291 287 284 287
299 299 299 300 299 299 292 286 278 282 284 284 283 280 280 281 288 286 286 285 288 286 285 287 284 287 293 294 294 295 293 286 282 278 283 288 286 289 290 291 286 286 287 292
298 299 299 299 299 299 292 285 277 284 279 281 283 283 282 281 281 287 289 287 286 285 282 283 282 288 290 293 295 292 290 282 285 287 289 289 288 289 290 288 289 287 291 292
299 299 299 299 299 299 291 283 282 286 285 285 283 284 282 282 284 286 285 286 288 288 284 285 283 287 287 287 290 289 290 281 284 283 288 290 287 290 290 290 291 290 292 293
299 299 299 299 299 297 288 290 289 286 283 282 280 281 282 285 287 288 288 287 287 286 289 291 291 291 291 290 289 288 287 285 281 277 286 285 282 288 289 291 294 294 289 295
299 299 300 300 300 298 292 291 289 281 277 281 280 283 284 284 285 285 289 290 287 292 297 295 293 291 291 290 290 291 285 284 282 278 282 276 289 294 296 295 295 298 299 300
299 299 300 300 300 300 293 291 288 285 276 282 282 284 285 286 287 285 288 291 293 295 291 285 282 281 282 285 288 289 289 284 279 276 278 282 288 292 294 288 289 298 298 300
300 300 300 300 299 300 291 289 290 288 280 280 285 283 285 282 282 284 287 293 294 291 284 281 277 275 280 280 284 289 288 287 281 279 276 275 287 295 298 298 286 297 299 299
299 300 300 301 301 300 294 292 291 289 282 283 285 281 281 286 285 283 287 286 287 288 280 276 275 277 284 278 279 280 280 281 280 279 279 283 293 298 300 285 287 296 297 296
300 300 300 301 300 300 296 292 292 288 284 284 287 288 283 284 285 281 286 285 288 286 278 278 278 276 281 281 286 285 282 280 279 280 279 277 298 297 290 294 297 297 296 296
300 300 301 301 301 301 299 290 293 293 287 283 291 291 291 289 290 286 288 287 287 287 283 281 283 280 282 285 280 290 283 286 281 284 284 295 297 296 298 298 295 294 295 295
300 301 301 301 301 301 299 293 290 288 285 285 284 284 290 294 292 294 284 290 290 290 292 289 288 283 287 281 284 287 288 293 288 288 289 291 292 295 295 294 292 291 291 292
301 302 301 301 301 301 300 294 293 288 284 274 280 291 288 293 292 292 293 293 294 294 293 288 286 284 290 285 285 283 285 288 288 286 286 290 290 290 291 292 291 288 287 287
302 302 302 302 301 302 300 297 295 293 284 278 282 289 292 293 292 291 294 293 293 291 288 286 286 290 290 288 287 280 285 283 285 283 287 287 287 289 289 286 285 286 284 282
301 302 302 302 301 302 296 286 295 296 292 284 277 287 291 293 293 292 291 293 293 290 289 289 289 295 289 284 280 282 285 286 288 286 288 287 287 289 288 284 283 282 281 281
301 302 302 302 301 296 291 287 292 298 296 287 279 280 289 293 292 292 290 292 290 288 289 289 288 291 290 282 277 281 284 285 286 289 289 284 284 283 286 284 283 282 279 279
301 302 302 302 300 298 294 298 298 298 291 289 280 279 285 293 286 287 289 288 288 291 290 289 288 287 284 276 279 280 282 283 284 285 286 285 284 283 284 284 282 278 277 276
302 302 302 296 293 289 292 300 299 298 290 282 283 280 278 293 288 290 290 291 284 291 286 287 287 279 274 277 277 277 278 279 281 282 283 283 280 279 280 280 279 277 277 276
300 296 289 284 293 300 298 293 288 288 289 290 284 287 283 290 287 285 286 287 285 282 285 287 279 275 278 278 278 278 278 279 279 278 277 279 277 276 276 276 276 275 274 274
293 287 287 295 299 294 289 283 283 284 282 284 283 287 285 292 285 283 287 284 285 281 282 282 277 274 275 277 277 278 277 277 277 277 277 277 277 275 274 274 274 274 273 271
293 294 296 294 289 286 283 281 283 281 279 280 285 285 289 288 291 285 286 283 284 280 286 278 269 273 275 275 275 275 276 275 274 275 275 275 275 275 274 273 272 271 270 269
296 291 286 286 284 279 275 276 278 280 285 286 287 285 287 286 289 285 284 277 280 283 272 269 270 275 276 275 274 274 275 274 274 273 273 273 272 271 270 269 268 268 267 267
285 280 272 274 277 277 273 276 281 283 285 286 284 285 283 285 282 284 279 279 280 274 267 268 270 271 272 273 274 272 269 269 268 266 267 266 267 266 266 264 262 263 264 262
279 279 271 269 274 275 280 282 283 283 285 286 284 281 282 280 279 281 280 276 272 270 269 267 271 270 270 269 270 269 267 266 265 263 264 262 263 264 265 261 262 263 262 262
278 276 274 277 275 276 279 281 281 284 284 285 283 282 280 279 279 273 270 272 268 265 265 267 271 269 268 269 269 266 265 265 264 263 264 264 262 263 262 262 262 260 261 260
275 272 270 268 268 275 275 280 281 285 285 282 281 278 277 279 269 266 269 263 264 269 270 268 266 267 268 267 269 269 270 268 265 265 265 264 263 263 266 265 263 266 265 260

GFSNW_sfc_thetae_081.txt.gz
Theta_e
300 300 300 300 300 299 293 285 273 290 293 280 280 278 281 285 283 286 284 286 285 283 284 283 285 286 291 295 294 288 291 288 282 283 291 295 293 290 291 285 285 287 285 284
300 299 300 300 300 298 288 282 284 289 289 276 279 281 282 283 282 282 283 284 287 287 283 280 286 289 294 293 291 288 289 286 278 279 286 293 290 292 291 291 290 285 281 284
299 299 299 299 300 299 291 285 277 279 283 279 276 278 280 279 285 284 286 284 285 283 282 286 284 288 292 293 292 295 292 285 281 277 280 287 284 288 290 287 284 286 286 289
298 298 299 299 300 298 290 285 277 279 270 277 280 279 277 278 279 285 285 283 285 283 281 283 282 288 290 292 295 291 287 280 284 285 286 287 286 286 288 286 287 284 287 289
298 298 299 299 299 299 289 280 280 282 278 284 281 281 281 281 281 284 283 283 286 287 283 285 283 286 286 286 289 288 289 281 283 281 285 286 285 286 288 288 289 289 289 289
298 299 299 299 300 296 289 289 288 286 280 280 279 280 281 281 284 287 288 287 285 285 287 290 290 290 289 289 288 286 287 283 280 275 282 282 279 286 289 290 292 290 286 292
299 299 299 300 300 298 288 288 289 284 276 280 280 282 283 283 285 284 288 289 286 290 295 294 292 290 289 289 289 290 285 284 281 276 279 270 285 293 293 291 293 294 295 297
299 299 300 300 300 300 293 291 287 285 276 281 282 283 283 285 286 286 287 290 293 294 290 284 282 281 282 284 287 288 288 284 278 274 274 279 284 290 290 288 289 294 296 297
299 299 299 300 300 300 295 292 291 286 279 277 284 281 284 281 282 284 286 291 292 290 284 282 277 275 280 279 283 288 287 285 280 278 273 271 284 293 296 294 285 294 298 297
299 299 299 300 300 301 296 293 291 286 281 282 284 280 280 285 283 282 286 284 288 287 280 277 276 277 283 278 278 280 280 281 279 278 275 280 291 297 297 284 286 295 296 297
299 299 300 300 300 301 297 292 291 287 280 283 287 287 282 283 282 275 282 281 284 284 280 279 278 276 280 279 282 281 280 278 278 278 276 275 296 295 286 292 295 295 294 293
299 299 300 300 301 301 299 290 293 291 286 282 290 291 290 288 287 283 285 282 284 286 282 280 283 280 280 280 276 289 281 284 281 283 281 292 295 295 296 294 293 292 293 293
300 300 300 300 301 301 299 292 292 292 286 284 282 283 288 292 292 293 284 286 290 287 290 288 287 281 286 279 282 282 284 287 287 287 287 288 290 290 290 289 287 289 290 289
301 301 301 301 301 301 300 293 293 288 283 274 279 289 286 291 291 291 292 291 293 292 292 288 285 283 290 285 283 280 282 284 286 286 287 288 287 286 288 287 286 285 285 285
301 302 302 302 302 301 300 296 294 292 283 276 280 287 290 292 290 289 290 290 289 289 286 283 284 289 288 286 285 278 282 281 281 281 285 285 285 285 285 283 282 282 281 280
301 302 302 302 302 301 296 286 294 295 291 282 275 285 286 290 290 289 289 290 289 289 289 285 288 293 289 283 278 280 283 284 285 285 286 286 285 284 283 281 280 280 279 279
301 301 302 302 301 297 291 287 292 297 295 286 279 278 286 291 290 289 290 291 290 291 288 286 288 289 287 280 275 279 282 283 285 286 288 283 284 282 283 281 279 279 278 277
301 301 302 301 301 299 293 295 298 297 291 288 279 278 283 291 284 285 290 286 291 289 286 289 288 285 283 275 277 279 280 282 282 284 283 282 283 282 281 281 279 277 276 275
301 301 301 296 293 289 293 299 299 298 290 282 282 277 278 290 286 289 288 287 284 289 286 287 284 278 272 276 276 277 278 278 278 282 281 280 278 278 278 278 277 276 275 274
301 296 289 284 291 300 298 294 287 287 288 289 281 283 279 288 285 285 285 287 285 282 285 284 277 273 276 277 277 277 277 277 278 278 277 277 275 275 275 275 275 275 274 273
293 286 286 294 299 293 289 283 282 283 281 284 284 285 283 290 285 283 286 283 284 280 283 281 275 272 274 277 276 276 276 276 276 276 276 276 276 275 274 273 273 273 272 270
293 294 295 293 288 286 282 280 283 280 278 278 283 285 287 288 289 285 286 282 284 279 286 276 266 272 275 275 275 274 275 274 274 275 275 275 275 274 273 272 271 269 268 266
295 290 285 286 284 279 275 275 278 279 282 284 286 285 286 286 289 285 284 279 276 283 267 266 268 274 275 274 274 274 274 274 274 273 273 272 270 270 269 267 265 266 265 264
285 282 276 278 277 273 272 270 272 281 285 286 286 285 285 285 283 284 273 276 277 266 265 265 268 272 273 273 273 271 267 267 267 265 266 265 264 262 261 260 258 261 260 258
281 280 272 268 275 278 281 283 283 284 285 285 284 282 284 279 276 279 279 273 266 267 265 263 269 270 270 269 269 267 265 263 264 261 262 260 262 262 261 259 260 262 260 260
279 276 275 277 276 276 279 281 281 285 285 285 283 279 276 275 275 274 269 272 268 264 261 265 269 267 268 267 267 264 263 264 262 261 262 262 261 262 261 260 260 257 259 256
276 272 273 269 271 272 278 280 280 284 285 281 276 272 272 277 269 268 268 264 262 263 267 268 265 267 265 263 265 266 267 266 264 262 263 261 261 261 264 264 262 264 263 259

GFSNW_sfc_thetae_084.txt.gz
Theta_e
299 299 299 299 299 298 292 283 275 288 292 280 279 272 280 284 282 285 283 284 283 281 282 281 282 284 289 293 292 288 291 287 281 283 289 293 291 288 289 284 281 285 281 282
299 299 299 299 299 298 286 281 280 287 287 267 271 281 281 283 281 282 281 281 283 286 282 278 283 286 293 295 291 290 290 284 277 278 285 291 289 291 291 288 288 284 282 282
298 298 298 298 299 298 288 279 276 278 285 278 276 277 278 278 284 283 283 283 284 282 281 283 281 284 290 294 293 295 291 284 280 276 278 284 280 286 288 288 281 280 284 286
297 297 298 298 298 297 289 282 275 278 273 275 277 281 279 277 277 283 284 281 281 281 279 282 282 286 288 292 293 290 287 281 283 283 284 285 284 284 285 284 285 282 283 285
297 298 298 299 298 297 289 278 280 283 276 280 278 280 278 278 281 282 281 281 282 284 281 284 283 284 286 287 289 287 288 280 282 281 283 283 282 284 283 283 285 286 286 286
299 298 299 299 298 297 288 289 289 285 280 279 275 277 279 280 282 284 285 285 284 283 286 288 290 291 290 289 286 285 285 281 278 273 280 280 277 282 286 286 289 289 285 290
298 298 299 299 299 297 289 286 287 281 274 278 279 281 282 281 283 281 288 288 286 289 294 293 290 289 288 288 288 288 284 283 281 276 278 268 280 291 291 288 290 291 293 295
298 299 299 300 299 299 293 287 285 283 275 280 280 281 282 283 284 284 286 287 290 293 290 283 281 280 281 282 286 287 286 283 278 273 274 278 282 289 287 285 285 292 291 295
298 299 299 299 300 300 295 293 291 286 277 277 283 281 282 279 281 282 285 289 292 290 283 281 277 274 279 278 279 287 286 284 280 277 273 268 279 291 295 294 282 290 294 296
298 298 299 299 300 300 296 293 293 288 280 281 282 279 280 285 283 281 283 283 285 286 279 276 275 276 282 277 278 279 280 281 278 277 277 279 288 293 296 282 283 288 290 287
298 299 299 299 300 300 297 293 293 289 282 281 285 286 281 282 281 277 282 281 282 283 280 279 278 277 280 280 281 281 280 279 278 280 277 274 292 293 287 290 290 287 287 285
299 299 299 299 300 300 299 290 294 292 285 281 287 289 289 287 286 283 284 282 284 285 283 282 283 280 280 280 276 285 280 284 281 282 281 289 289 288 290 290 287 289 287 287
298 299 299 299 300 300 299 291 292 291 287 285 282 283 288 290 290 290 282 286 290 287 290 286 285 282 285 280 278 280 280 286 282 285 285 284 286 287 286 286 284 286 286 286
299 299 300 301 301 301 300 292 292 289 284 279 278 287 285 289 289 289 290 290 293 290 289 286 284 281 289 283 281 277 279 282 280 284 286 286 283 284 284 283 284 282 283 283
299 300 301 302 301 301 299 295 294 292 285 275 279 285 288 290 288 288 289 289 288 285 281 285 280 287 288 286 283 275 280 278 278 279 284 283 281 282 283 281 279 280 280 279
300 301 301 302 301 301 296 286 294 295 292 284 274 283 284 288 288 287 286 287 287 286 287 287 286 291 288 281 276 278 281 283 284 283 285 283 282 281 281 279 278 278 278 278
300 301 302 302 301 297 291 287 291 296 294 285 279 278 284 289 288 286 286 289 288 286 288 284 285 286 286 279 274 278 280 283 284 284 287 282 281 279 280 279 278 278 276 276
301 301 301 301 301 298 293 294 298 296 290 289 279 277 280 290 282 283 286 284 286 287 286 285 287 284 282 274 277 278 279 281 282 281 282 281 281 280 279 279 278 275 274 274
301 301 301 298 293 290 293 299 298 297 290 281 281 277 273 290 287 288 287 288 279 285 284 286 284 277 271 275 276 276 277 276 277 280 279 278 276 276 276 276 276 275 273 273
301 296 289 283 290 300 297 292 286 286 287 288 277 280 278 287 286 283 282 285 283 282 285 283 276 271 276 276 276 276 276 276 277 278 275 276 275 274 274 274 275 274 273 272
293 287 286 294 299 292 287 283 282 283 281 283 284 281 279 290 283 283 285 283 284 280 283 281 275 270 274 276 275 275 275 276 275 276 275 275 275 274 273 272 272 272 270 268
293 293 295 293 288 285 282 279 282 280 277 281 281 283 284 287 288 284 285 282 283 278 284 277 267 271 275 275 274 274 274 274 274 274 273 274 273 273 272 271 269 268 267 265
295 290 285 286 284 278 273 274 277 277 276 282 285 284 286 287 288 284 284 281 279 282 270 268 267 273 274 274 274 273 274 274 272 271 271 270 269 268 268 266 263 264 263 262
286 282 277 278 276 273 275 277 274 278 285 285 286 285 285 285 283 283 273 277 281 273 267 267 269 271 271 272 273 270 266 266 266 264 265 264 263 260 260 259 257 260 259 256
281 280 274 270 274 276 281 283 283 284 286 286 284 283 285 278 276 277 278 275 273 269 267 262 267 270 269 267 267 265 263 262 262 261 261 259 261 262 260 257 258 260 257 257
279 274 272 276 275 277 280 281 282 285 285 285 282 278 274 273 276 275 272 270 267 264 260 264 268 266 266 266 268 265 264 263 261 259 261 261 259 260 259 258 258 256 256 255
275 270 273 270 270 275 278 280 280 284 285 278 276 272 273 277 270 269 269 266 263 262 265 266 266 267 266 264 263 264 265 264 262 261 261 260 259 260 264 263 261 264 262 257

GFSNW_sfc_thetae_087.txt.gz
Theta_e
299 298 298 299 299 298 292 285 276 289 293 280 281 277 280 284 282 284 282 282 281 279 280 281 280 281 284 289 292 289 292 288 283 285 291 295 293 290 289 283 281 285 284 285
299 298 298 298 298 297 287 282 281 289 289 273 275 280 280 282 281 281 281 280 282 283 280 276 281 284 290 288 289 291 292 286 279 283 288 292 289 290 288 287 286 283 281 286
299 298 297 297 298 298 288 280 274 280 286 281 278 277 278 278 284 283 283 282 284 281 279 282 280 281 287 288 293 295 293 286 282 278 281 286 283 286 287 287 282 282 283 285
298 297 297 297 298 298 288 281 277 280 274 278 280 279 278 277 277 283 284 281 281 280 277 281 280 285 286 289 292 292 290 283 285 285 286 286 285 285 286 284 285 281 283 284
297 297 297 298 298 298 288 281 280 283 280 280 276 278 277 278 280 281 280 280 282 282 279 282 281 285 286 285 290 290 291 283 284 282 285 285 282 285 285 285 285 285 286 287
298 298 298 298 299 296 289 289 289 284 279 279 277 277 278 280 282 284 284 283 283 282 284 289 290 291 290 290 288 287 286 284 282 278 282 282 278 283 285 286 289 290 284 291
298 297 298 298 299 297 291 288 287 281 276 279 279 280 281 281 281 279 284 287 284 289 294 293 292 291 290 290 289 290 285 284 283 279 280 271 283 289 291 289 290 291 291 292
297 298 298 299 299 299 293 289 287 283 277 280 279 280 281 282 283 283 284 285 288 291 290 285 282 282 283 285 287 288 288 285 280 277 277 280 284 290 288 288 286 288 287 289
297 298 298 299 299 299 295 292 292 287 279 278 282 281 281 279 281 281 284 288 291 289 285 283 277 276 279 279 282 289 288 287 283 279 274 272 281 290 295 294 283 287 286 285
298 298 298 299 299 300 296 294 294 288 280 283 283 280 280 285 282 280 282 283 285 289 283 280 278 278 283 278 278 280 281 281 279 278 277 280 287 291 296 282 282 287 286 284
297 298 298 299 299 300 296 293 294 289 282 283 286 287 284 283 283 279 283 283 284 284 281 281 280 279 281 281 283 282 281 280 279 280 278 275 287 291 285 288 287 287 285 284
297 298 299 299 299 300 298 291 294 294 287 284 288 290 290 288 288 285 285 284 285 286 281 283 284 280 282 280 278 285 281 282 279 283 282 285 286 284 286 287 286 286 285 284
298 298 298 299 299 300 298 292 293 290 287 286 284 284 289 291 291 293 283 287 290 288 290 285 285 281 285 281 278 280 280 283 282 281 282 282 283 285 284 284 282 283 284 283
298 298 299 300 300 300 298 292 293 291 285 279 281 288 287 290 291 291 291 289 293 292 290 284 285 281 288 282 280 278 279 281 279 282 283 283 281 282 282 282 282 281 281 281
297 299 300 301 301 301 298 295 294 293 286 279 281 286 288 290 289 288 289 289 288 287 284 284 284 287 287 285 281 276 280 278 278 277 282 280 278 281 281 279 279 280 279 277
298 299 300 301 302 301 295 286 294 295 293 285 277 286 286 289 289 288 287 288 288 288 286 286 288 291 288 281 277 279 281 283 282 282 282 280 280 280 280 278 277 277 276 276
298 300 301 301 301 298 291 288 291 296 294 286 279 280 286 290 289 288 288 289 289 289 287 287 287 286 285 280 275 278 280 283 282 284 283 279 280 277 279 278 277 277 275 275
299 300 301 301 301 298 293 296 297 296 290 287 280 279 282 291 286 285 289 285 288 289 288 288 287 284 282 275 277 278 278 281 281 280 281 280 280 279 278 278 277 275 274 274
299 300 300 297 294 290 293 298 297 297 290 282 281 278 277 290 288 289 288 289 283 287 286 286 285 278 273 276 277 276 276 276 277 279 278 278 276 276 277 277 275 274 273 273
300 297 290 284 290 299 297 291 286 287 287 288 280 282 279 287 286 284 284 287 284 280 285 283 278 273 276 276 276 276 276 276 279 278 276 276 275 274 274 274 274 273 272 271
294 287 286 293 299 291 286 283 283 284 281 284 285 281 281 290 284 283 284 284 284 280 283 283 277 272 275 276 275 275 276 276 276 276 276 276 276 274 273 272 272 271 270 269
292 293 295 293 288 285 282 280 282 281 279 282 281 283 285 288 290 285 286 283 284 279 284 279 274 274 276 275 274 274 275 275 274 275 274 274 274 273 272 271 270 268 267 266
296 289 285 285 284 279 276 272 278 277 280 280 284 283 285 288 288 285 285 281 281 283 277 276 272 275 275 274 274 274 274 273 272 272 272 271 270 270 269 267 266 266 264 264
286 284 278 279 277 277 275 277 279 281 281 283 285 285 285 285 284 284 280 280 282 276 274 274 272 273 273 273 273 271 268 268 268 267 267 266 265 263 263 262 263 264 263 261
283 281 274 273 275 276 280 280 283 284 286 286 286 285 285 282 280 280 279 278 276 277 275 271 272 272 271 269 268 267 266 265 265 265 265 264 264 264 263 262 264 263 262 262
280 276 271 274 276 279 281 281 283 285 286 286 285 281 280 279 278 277 277 275 273 273 269 268 270 268 268 268 268 266 266 266 265 265 266 265 265 265 265 264 263 262 263 262
275 269 267 270 271 275 278 281 282 284 285 282 279 275 277 278 273 273 273 272 270 267 268 270 269 269 268 267 267 267 268 267 267 267 267 266 265 265 268 268 267 268 266 264

GFSNW_sfc_thetae_093.txt.gz
Theta_e
300 300 300 299 299 298 296 298 291 301 302 291 291 286 284 286 286 288 286 286 284 282 283 282 282 282 286 291 289 285 290 291 286 289 295 296 295 292 293 286 285 289 288 289
300 300 299 299 299 298 300 295 293 301 300 285 287 286 284 285 285 285 285 284 285 286 283 279 283 285 290 290 288 287 288 288 284 284 291 296 292 294 294 293 292 287 285 288
300 300 299 298 298 299 299 295 287 292 294 291 285 283 283 283 288 286 287 286 287 285 283 286 283 284 287 289 288 291 290 285 288 283 288 292 289 291 293 292 287 287 288 290
300 299 298 297 298 299 297 296 288 290 287 286 286 284 283 282 282 287 288 285 285 284 281 283 283 286 287 289 290 290 288 288 290 291 292 292 291 290 291 289 290 285 288 288
300 298 297 297 299 299 297 290 290 290 288 286 282 284 282 282 283 284 283 283 285 286 283 284 281 284 286 286 290 288 291 287 290 286 290 289 287 288 289 289 289 289 290 290
299 298 298 299 299 298 294 298 296 292 285 286 285 285 283 283 285 286 287 286 285 285 287 291 291 292 291 290 288 288 288 289 287 281 286 285 282 286 287 289 292 291 287 292
298 298 299 299 299 298 297 297 296 288 286 286 285 285 286 284 284 282 287 288 285 290 294 293 294 293 292 292 291 292 288 288 288 281 284 277 288 294 293 291 291 292 292 292
299 299 299 299 299 299 297 299 293 288 284 287 286 286 286 287 288 286 286 289 290 293 289 285 285 286 288 289 291 290 293 289 283 282 283 285 288 290 290 289 286 289 288 289
298 299 298 299 300 300 300 299 300 295 287 287 288 286 288 285 284 285 286 293 296 291 288 286 280 280 283 282 285 292 291 291 287 285 279 277 285 292 296 295 281 287 287 285
298 298 299 299 299 300 300 300 299 293 289 292 291 287 286 289 288 286 289 290 291 295 288 285 283 282 287 281 282 283 285 286 284 283 283 285 287 292 294 284 279 286 286 283
298 299 299 299 299 299 301 298 300 295 291 292 293 293 290 290 289 286 289 290 290 289 285 284 285 284 286 286 287 285 284 283 284 284 282 279 287 291 283 283 287 287 285 284
299 299 299 299 299 299 300 294 300 298 290 292 297 297 297 295 294 291 291 288 289 290 286 286 287 286 288 286 282 290 284 284 282 282 280 285 286 285 286 287 285 285 285 285
298 298 298 298 299 300 300 298 296 293 289 290 293 293 296 297 297 299 289 293 293 291 292 287 288 285 290 283 283 285 286 289 285 284 283 283 284 286 285 285 283 284 284 283
297 298 298 299 299 300 299 297 298 297 291 286 291 297 295 298 298 297 297 295 296 295 294 289 289 286 291 286 287 284 283 286 284 283 284 284 282 283 283 283 283 282 282 282
297 298 299 299 299 300 301 301 301 298 291 286 289 296 296 298 298 296 297 295 294 292 288 287 287 290 289 291 290 282 284 280 281 280 284 282 280 282 283 281 280 282 281 280
297 298 298 299 299 300 298 288 300 300 297 289 284 295 294 296 298 296 294 295 295 292 289 288 291 294 291 285 282 281 284 284 286 283 284 283 282 282 282 280 280 280 280 280
298 298 298 299 300 299 293 293 297 300 298 291 285 289 294 295 296 296 295 295 295 293 291 290 290 290 291 286 282 281 283 284 285 287 286 282 282 280 281 281 281 281 280 280
297 298 299 300 301 298 293 300 300 300 294 294 282 286 290 296 290 289 297 293 291 291 291 293 289 290 287 280 280 282 283 283 283 284 284 283 283 282 282 282 282 279 278 278
297 298 299 297 295 291 295 299 299 301 294 286 285 283 285 296 291 293 294 294 286 295 289 290 291 287 280 280 281 280 281 282 281 283 284 284 283 282 282 282 281 279 278 278
298 297 290 285 291 299 297 293 289 290 290 291 286 292 288 293 291 290 290 292 287 284 288 294 287 280 281 281 281 282 282 283 284 281 280 281 280 280 279 279 280 279 278 277
293 287 287 294 298 294 291 285 285 285 283 288 287 290 287 296 287 286 293 287 289 282 287 286 285 280 280 282 281 282 283 284 284 284 283 283 281 279 278 278 278 277 276 273
293 293 296 293 289 289 285 284 286 284 284 290 286 287 290 294 296 289 289 285 288 282 291 285 282 279 281 281 281 281 282 282 282 282 281 281 280 280 279 277 275 273 271 270
296 292 287 287 287 283 281 278 281 284 289 291 289 285 290 292 292 288 288 282 284 292 284 284 281 281 281 281 280 280 281 280 280 279 280 279 278 277 275 272 271 271 270 270
288 286 282 283 282 284 286 288 290 293 292 291 289 288 289 291 287 287 282 287 287 282 280 282 281 280 280 280 280 279 277 277 277 276 275 273 272 271 271 271 271 270 269 269
287 288 282 283 289 288 287 289 289 291 294 291 288 291 290 288 285 287 285 282 280 282 283 283 281 280 279 278 278 276 275 274 274 274 272 271 271 271 270 271 272 270 270 269
288 286 283 285 285 285 286 286 286 291 293 293 292 286 285 284 286 282 281 281 281 283 282 282 280 278 278 277 276 275 275 275 275 274 273 273 272 272 272 272 271 271 271 269
284 283 283 286 286 287 287 288 289 292 290 287 289 282 283 288 282 281 287 283 282 281 280 281 280 278 277 276 275 274 275 275 275 275 274 273 274 273 273 273 273 273 273 271

GFSNW_sfc_thetae_096.txt.gz
Theta_e
300 299 300 299 299 298 296 297 290 300 302 291 290 286 285 287 286 288 286 286 284 282 283 281 281 281 285 291 290 284 288 287 281 287 294 296 293 291 291 285 284 288 287 286
300 299 299 299 298 298 298 293 292 299 300 285 286 287 285 286 286 286 286 284 286 286 283 279 283 284 289 290 288 285 288 284 280 283 289 294 290 291 292 292 291 286 283 286
300 300 299 298 298 298 296 295 287 292 294 290 286 283 284 283 288 287 288 286 287 285 283 286 282 284 288 291 290 292 289 283 280 278 285 291 288 290 292 291 286 286 286 287
301 300 299 297 297 298 296 295 290 290 286 287 286 285 284 283 282 287 287 285 285 284 280 282 282 285 286 289 291 290 288 282 284 285 286 292 291 290 290 288 289 285 287 288
300 299 298 297 298 298 296 289 290 289 288 288 285 286 283 283 284 284 283 283 285 284 282 284 282 285 285 285 290 288 289 285 286 284 290 291 287 288 290 290 290 289 290 289
300 298 298 298 298 298 295 296 295 292 287 287 286 286 284 284 287 287 287 286 285 284 287 289 290 290 290 290 288 288 287 285 286 281 287 287 282 287 288 290 290 289 284 287
299 298 298 299 298 298 297 296 294 290 285 286 285 285 287 286 286 283 287 289 286 289 294 292 292 291 290 291 291 292 287 286 287 282 285 277 287 293 293 288 287 287 287 287
298 299 299 299 299 299 298 298 294 289 285 287 286 286 287 288 289 288 288 290 292 295 290 286 284 285 287 289 290 290 292 290 285 282 282 284 287 289 289 288 283 286 285 285
299 300 299 298 298 299 299 299 300 293 287 286 289 287 289 285 286 288 289 295 298 293 287 285 281 279 282 282 285 292 291 292 288 285 279 277 282 287 293 293 278 285 284 282
298 299 299 299 299 299 300 300 301 295 288 291 291 287 286 290 288 286 290 290 291 295 286 284 282 281 287 281 281 283 286 287 284 283 282 281 283 288 293 281 278 285 284 282
298 298 299 299 299 299 299 298 301 295 290 291 294 294 290 290 289 285 289 290 290 288 284 283 283 284 286 285 286 284 281 281 281 284 280 276 284 287 280 283 286 286 283 282
299 299 299 299 299 299 300 296 300 300 292 291 296 296 297 295 294 290 291 289 289 289 284 285 286 284 287 285 280 288 280 283 281 280 279 284 284 283 285 285 283 283 283 283
299 299 299 298 299 299 299 298 298 295 289 291 294 294 298 298 297 298 288 292 292 291 293 288 287 284 288 282 282 285 286 288 284 283 282 282 283 285 284 283 282 283 283 282
298 298 298 298 298 299 299 296 297 296 292 285 291 298 296 299 299 297 297 294 296 295 294 289 287 286 291 286 286 282 283 286 284 282 283 282 281 282 283 283 283 282 282 282
298 298 298 298 299 299 300 302 299 300 292 285 288 295 297 298 298 296 296 295 293 292 289 289 287 290 289 290 288 280 283 279 280 278 283 281 279 282 282 281 280 282 281 280
297 298 298 299 299 299 298 288 300 301 298 288 283 296 295 296 297 296 294 295 293 292 289 289 291 294 290 285 281 281 284 285 286 282 283 282 282 281 282 280 280 281 281 281
297 298 298 298 300 300 293 291 295 300 299 290 285 287 294 295 295 295 294 295 293 293 290 290 291 290 290 285 280 281 283 285 286 287 284 281 282 279 282 281 281 281 280 280
297 298 298 299 299 297 294 301 300 301 294 292 283 284 290 296 291 290 296 292 293 291 290 292 289 290 287 278 281 283 283 283 284 284 285 283 283 283 282 283 281 279 278 278
297 298 298 298 295 290 294 300 300 301 294 286 285 282 283 295 292 294 292 293 287 293 289 289 290 287 279 280 281 281 283 283 282 285 285 284 282 282 282 282 280 278 278 278
298 298 291 284 291 299 298 294 290 290 292 291 285 290 286 293 291 290 290 291 287 284 289 292 287 279 281 282 283 283 283 285 284 282 281 281 280 280 279 279 279 278 277 275
294 288 287 294 299 294 291 285 285 286 283 288 287 289 288 295 288 288 292 287 288 282 286 286 284 280 280 282 282 283 284 285 284 284 284 283 281 279 278 277 277 276 274 271
293 293 295 294 289 287 285 283 286 284 283 289 287 287 290 293 295 289 289 284 287 281 290 286 282 280 282 281 281 282 283 283 282 283 281 281 280 280 278 276 274 271 270 269
295 291 286 286 287 281 280 278 281 284 290 292 290 286 290 292 293 288 287 281 282 290 285 283 280 281 282 281 281 280 281 281 281 280 280 278 276 276 274 271 270 270 269 270
286 285 282 283 281 283 286 288 290 294 294 291 290 288 288 291 287 287 281 286 286 281 280 281 281 281 282 282 281 280 278 278 277 275 274 273 271 270 270 270 270 268 267 267
285 285 282 283 289 288 287 289 290 293 294 292 290 290 290 287 285 286 285 282 280 282 282 282 282 281 280 279 278 277 275 275 274 273 272 271 271 270 270 270 271 270 268 268
286 286 285 287 286 285 286 287 287 293 293 294 292 287 285 284 285 283 281 281 280 282 281 281 281 279 279 278 277 276 276 276 275 273 273 272 270 271 272 272 271 269 270 268
286 284 285 286 287 286 286 288 290 294 292 286 288 282 282 287 282 281 286 283 282 281 281 281 280 279 277 276 276 276 276 276 275 275 274 274 274 273 273 272 272 272 273 270

GFSNW_sfc_thetae_099.txt.gz
Theta_e
301 300 300 299 299 298 295 291 284 296 298 286 287 281 284 288 285 288 285 285 283 281 281 279 279 279 283 288 287 282 286 283 278 281 289 293 292 288 289 280 281 285 284 282
300 299 299 299 298 298 293 289 287 295 296 280 280 285 285 286 285 285 284 284 286 285 281 277 282 283 289 290 286 283 286 281 273 278 287 291 288 290 291 291 288 284 281 282
300 299 299 298 298 299 293 289 282 287 290 286 283 281 283 282 288 286 286 284 285 284 282 284 281 282 287 290 288 291 288 283 278 274 281 285 283 287 292 290 283 285 285 284
300 299 299 298 297 298 292 289 285 287 281 281 282 283 283 282 281 286 286 283 284 282 278 280 279 283 283 287 290 289 286 280 282 282 284 285 284 286 289 288 287 284 283 281
301 300 298 297 298 299 292 285 286 284 284 286 281 283 281 281 283 283 282 282 283 283 280 282 280 283 284 283 288 288 288 281 285 283 288 288 286 289 287 286 286 285 285 282
300 299 298 298 298 298 291 292 290 287 285 283 281 282 283 282 283 285 287 284 284 283 285 287 288 288 288 287 285 284 286 284 283 280 286 286 282 285 284 283 283 284 279 281
300 298 298 299 299 298 294 292 289 284 279 282 284 285 286 285 285 277 286 288 285 288 293 292 291 289 287 288 288 290 286 285 285 280 283 275 283 288 286 282 282 283 282 282
299 298 299 299 299 299 294 294 290 285 279 285 286 286 286 287 286 283 285 288 291 292 290 285 283 284 285 287 290 290 291 287 283 280 280 282 282 283 282 284 279 282 280 281
300 300 299 299 298 299 295 295 294 288 279 282 288 285 287 281 279 283 288 291 294 291 287 284 278 278 282 281 285 291 291 290 284 282 277 274 279 282 287 287 274 282 281 280
300 300 299 299 299 299 296 294 295 289 281 288 288 282 281 286 283 281 285 286 288 291 282 281 280 280 286 280 280 280 282 282 279 279 277 278 280 283 287 271 275 282 281 280
300 300 299 299 299 300 296 293 296 292 286 286 290 292 285 285 284 277 283 284 285 282 279 279 280 281 283 283 283 282 278 278 276 278 275 272 282 282 277 282 283 282 281 280
299 299 299 299 299 299 299 293 296 296 286 285 291 291 293 291 290 285 285 288 285 284 280 281 282 282 283 283 277 286 278 283 278 278 276 282 282 281 282 282 281 281 281 280
299 299 299 299 299 299 297 295 294 292 287 285 286 289 295 298 294 293 285 290 289 287 290 284 284 283 284 279 279 281 282 285 279 280 279 279 282 282 282 281 280 282 281 280
299 299 299 299 298 299 298 291 295 291 289 279 287 295 293 296 294 293 292 290 291 290 289 285 285 283 287 281 282 278 280 282 281 279 279 280 280 281 281 281 281 280 281 280
299 298 298 298 298 299 296 294 295 297 290 282 282 290 294 296 294 293 292 290 288 285 282 282 283 287 285 282 283 278 282 278 277 274 280 278 278 280 282 280 280 281 280 279
298 298 298 298 299 299 293 286 294 296 296 285 277 290 292 293 294 293 291 290 290 287 283 283 287 291 284 280 275 281 283 284 285 280 280 279 279 281 281 280 280 281 280 279
298 298 299 298 299 294 292 289 294 299 296 286 279 281 291 293 293 291 289 290 287 287 284 284 286 287 285 277 273 280 284 285 284 284 282 279 281 278 281 280 280 280 279 279
298 298 298 299 300 297 293 297 299 299 291 289 282 280 285 292 285 284 290 286 286 286 284 287 285 286 282 275 279 281 282 283 283 283 283 281 282 282 281 281 279 277 276 276
298 298 299 294 291 289 291 300 299 298 292 283 283 280 279 291 287 287 287 287 277 287 282 284 285 284 275 279 280 281 283 283 283 284 283 282 281 281 280 280 278 276 275 274
298 296 289 284 290 299 298 293 288 287 289 289 281 284 279 289 282 281 282 284 280 278 282 287 281 277 281 282 282 283 284 284 284 280 279 279 278 277 277 276 276 274 272 271
292 287 286 293 299 293 289 283 283 280 281 284 284 283 278 289 279 279 284 278 280 276 281 282 282 276 278 282 281 283 283 284 283 281 281 279 278 276 275 274 273 272 270 269
291 292 294 293 289 285 282 277 279 282 278 283 284 281 285 286 289 280 283 281 279 275 285 281 277 278 279 280 280 280 281 280 280 280 279 278 278 276 274 272 270 269 267 264
294 290 285 285 285 279 277 271 277 274 280 283 281 278 286 283 287 279 282 279 278 286 277 277 278 279 279 279 279 278 279 279 277 275 275 274 273 272 270 267 264 264 263 261
285 283 279 280 278 280 277 277 278 282 282 282 282 280 280 280 279 283 279 280 283 278 271 277 277 279 278 279 279 276 274 273 272 270 269 267 266 264 263 262 260 260 259 258
283 284 278 275 281 285 285 286 285 287 283 282 280 281 281 279 281 282 282 277 276 275 278 279 279 277 276 275 274 272 271 269 268 266 266 264 264 265 262 260 261 261 259 259
284 284 283 285 283 283 284 285 285 288 285 283 283 279 276 276 280 279 275 276 272 278 279 280 278 276 274 273 272 271 270 269 268 267 267 267 264 265 264 263 262 260 261 259
283 282 284 285 285 284 283 285 285 288 282 282 281 277 277 283 280 279 282 276 280 279 279 279 279 275 272 272 272 272 272 270 269 269 267 265 265 266 267 266 265 267 268 263

GFSNW_sfc_thetae_102.txt.gz
Theta_e
302 300 300 300 300 299 295 291 284 295 297 285 286 281 284 288 285 287 285 284 283 281 280 279 278 279 282 287 286 280 285 281 276 279 286 289 290 287 286 278 280 284 282 281
300 300 300 300 299 299 293 288 286 294 295 277 279 285 285 286 285 285 284 283 284 283 280 277 281 282 288 289 285 282 286 278 273 275 285 289 287 288 289 289 286 283 280 280
300 300 300 298 299 299 293 289 279 285 288 285 283 282 282 282 288 286 286 284 284 283 280 283 279 280 285 288 286 291 289 281 277 274 279 284 282 285 287 288 282 281 279 281
300 299 299 298 298 299 293 285 282 286 279 281 282 282 283 281 281 286 285 283 283 281 278 279 278 282 281 285 289 289 286 281 282 281 282 283 282 285 286 285 285 281 280 279
299 299 298 298 298 298 290 283 283 285 283 283 280 282 281 281 282 282 281 281 283 282 279 280 278 282 281 281 287 287 286 280 283 280 284 284 283 285 283 283 284 283 281 279
300 299 298 298 299 298 289 290 289 286 285 282 280 280 283 282 282 285 286 284 283 283 285 287 287 287 287 286 283 282 282 282 282 280 285 285 278 281 280 280 281 281 277 281
299 298 299 299 300 298 292 290 288 283 279 281 282 286 286 284 283 275 286 286 285 288 293 292 291 288 287 287 286 287 283 283 285 281 283 272 280 285 283 280 280 281 280 282
298 299 299 299 300 300 292 291 288 283 279 284 285 285 285 285 284 280 281 287 289 291 289 284 281 283 284 286 287 289 289 286 282 280 278 280 281 281 279 281 276 280 279 280
299 299 299 299 299 300 294 292 292 287 281 281 287 283 284 279 278 280 283 289 292 289 286 283 277 278 282 281 284 289 288 289 284 282 276 273 277 280 284 285 271 281 280 277
300 299 299 299 299 300 294 292 293 287 279 284 286 281 281 285 281 279 282 284 286 287 279 276 277 280 285 278 279 279 280 281 277 279 276 277 278 281 286 272 273 280 279 277
300 299 299 300 300 300 294 291 293 288 278 283 288 290 284 283 282 276 282 282 283 281 277 278 278 280 283 281 282 281 278 277 275 277 274 272 280 280 276 279 281 280 278 277
300 299 300 300 299 300 297 289 294 292 284 283 289 289 290 289 288 284 283 286 283 281 279 280 281 280 281 280 276 285 276 280 276 277 274 280 280 279 281 282 280 280 278 277
300 299 299 299 299 299 297 292 291 287 282 282 285 287 292 295 292 291 284 286 287 286 288 283 283 283 283 279 276 278 280 284 277 277 278 279 280 281 281 281 280 280 279 278
300 299 299 299 299 299 297 288 290 289 285 277 283 294 290 294 293 291 290 289 289 288 286 283 283 282 286 281 279 275 279 280 279 276 278 279 279 280 280 280 279 279 279 278
299 299 298 298 298 299 294 291 291 294 287 278 281 288 292 293 292 291 290 289 286 283 281 280 283 286 285 283 280 276 281 277 275 274 278 277 278 280 280 279 279 279 278 277
299 298 298 298 299 298 290 281 291 294 295 282 274 286 288 291 292 291 290 288 286 284 282 281 284 290 283 279 275 280 282 280 283 276 279 278 278 280 280 278 278 279 278 278
298 298 298 299 299 294 290 287 294 298 295 284 280 279 289 294 291 288 287 288 285 285 282 282 286 284 282 272 267 280 283 280 280 280 280 277 277 277 280 278 279 279 278 277
298 299 299 299 299 295 289 293 298 298 290 287 275 277 282 291 283 283 287 284 284 283 282 283 284 282 276 269 277 279 280 281 282 282 282 279 280 280 279 279 278 276 275 275
298 299 298 292 289 285 288 297 299 296 292 282 278 273 275 288 284 285 284 284 275 284 279 282 285 282 273 272 276 276 280 280 279 281 281 281 280 279 278 277 276 274 273 273
298 294 287 283 289 297 298 291 285 287 288 288 278 280 277 288 279 279 280 281 278 278 281 284 279 276 280 282 283 283 283 284 285 280 278 279 277 277 276 275 274 273 272 271
290 287 286 293 298 293 288 282 282 279 280 282 281 284 276 286 278 278 282 276 278 275 280 282 280 275 278 282 282 283 284 282 282 282 280 279 277 275 274 273 273 272 270 268
291 292 294 292 288 284 282 279 278 279 277 280 283 279 283 283 287 279 281 278 277 274 285 282 277 276 280 281 280 280 280 280 279 279 278 277 276 275 273 272 270 268 267 263
294 290 285 285 283 278 276 272 275 271 277 281 278 276 284 281 284 277 278 278 272 284 279 278 276 277 279 278 278 277 277 277 276 275 275 275 273 272 269 266 262 263 262 259
285 283 278 278 276 278 274 273 273 278 277 280 278 277 279 278 278 277 278 278 282 277 272 274 275 277 277 278 278 276 273 271 271 269 269 267 266 263 261 261 260 260 258 256
283 283 275 277 279 283 285 285 280 280 279 280 279 279 279 275 280 282 281 278 276 274 272 275 276 277 276 275 273 271 269 268 267 267 265 263 263 262 260 257 258 259 256 256
283 283 282 283 282 282 284 285 284 286 281 279 280 277 273 274 275 279 274 275 270 275 278 276 277 275 272 272 272 271 270 268 266 265 264 264 263 264 263 259 259 257 258 257
282 282 282 284 284 282 283 285 285 285 280 281 278 275 274 280 277 276 276 271 276 278 278 278 278 275 269 269 270 269 269 267 266 265 265 263 261 262 265 265 264 264 266 261

GFSNW_sfc_thetae_105.txt.gz
Theta_e
303 302 301 300 299 300 296 291 283 294 296 285 285 281 285 288 285 287 285 284 283 280 280 278 278 278 281 285 285 279 283 278 275 277 284 286 284 283 286 280 278 282 280 276
301 300 300 300 300 299 291 286 286 293 294 278 280 285 284 286 285 284 284 283 283 283 279 276 280 281 287 287 284 281 284 278 271 275 284 287 285 286 286 288 286 280 277 276
300 300 300 300 299 300 293 287 279 285 288 285 283 281 282 282 286 285 285 283 284 282 280 282 278 280 283 286 285 290 287 278 276 272 277 282 280 283 285 285 281 279 278 277
301 300 300 299 300 300 293 287 282 286 279 281 282 282 282 281 280 285 284 282 282 281 277 278 278 280 280 283 286 286 286 279 281 281 282 282 282 283 284 283 285 278 278 276
300 299 299 299 300 299 291 285 283 286 282 283 282 282 281 281 282 282 281 280 282 281 278 280 277 280 280 278 284 286 286 277 281 279 283 283 279 280 280 282 282 281 279 275
299 298 298 299 299 298 289 289 289 286 283 281 280 280 282 282 282 284 285 283 281 281 283 287 287 287 287 286 283 282 282 279 280 278 283 280 272 278 278 278 279 280 277 277
299 298 299 300 300 297 290 289 288 282 278 281 282 286 285 283 282 277 285 285 283 287 290 289 288 287 287 287 286 287 282 281 281 280 281 270 279 283 281 278 278 279 279 278
299 299 300 300 301 299 292 290 288 284 279 282 284 285 284 284 283 280 279 286 288 288 286 284 280 280 283 284 287 288 287 283 282 279 276 278 281 279 278 279 275 279 277 279
299 299 300 300 301 300 293 291 291 287 282 281 287 282 283 279 277 280 282 287 289 287 284 282 277 277 280 280 284 288 287 286 283 280 276 272 276 278 283 283 270 279 277 276
299 299 299 300 301 300 293 290 290 286 281 284 285 281 281 283 280 278 281 283 284 285 279 279 277 279 283 276 277 279 280 281 277 278 276 276 277 279 285 272 272 278 277 275
299 299 300 300 301 300 293 290 292 287 280 283 288 288 282 281 281 276 281 279 281 280 277 279 278 277 280 279 281 280 277 275 274 277 274 272 278 279 276 278 280 278 277 275
300 300 300 300 300 300 296 288 292 291 284 284 287 288 288 286 286 282 284 281 281 279 279 280 281 277 278 277 272 282 275 278 275 275 273 278 279 278 281 281 279 277 276 276
300 300 299 299 300 300 297 289 289 287 281 282 285 286 291 292 290 289 282 284 286 285 286 282 282 280 283 278 275 277 279 282 276 275 277 278 278 279 280 279 278 279 278 277
300 299 299 299 299 299 295 289 289 288 283 278 282 291 288 293 293 290 288 287 287 286 285 282 279 282 286 280 278 275 278 279 277 275 277 278 278 278 278 279 279 278 278 277
299 299 298 298 299 298 293 290 290 291 284 278 280 286 291 292 291 289 288 287 285 282 281 279 282 286 285 279 279 274 281 277 272 273 277 277 275 279 280 278 277 278 277 277
299 298 298 299 299 296 289 282 291 292 290 281 275 285 287 289 289 288 288 287 285 282 281 281 282 291 282 277 274 279 278 281 279 277 280 278 278 279 280 277 277 278 276 276
298 298 299 299 298 293 288 284 294 297 290 281 275 279 288 291 289 287 286 286 284 283 282 281 286 285 281 275 272 279 279 278 279 280 279 277 278 276 279 279 279 278 276 275
298 299 299 299 297 294 288 290 299 295 287 285 274 278 284 291 282 282 285 283 283 283 281 282 283 285 276 272 277 281 282 280 279 280 281 279 279 278 278 278 276 274 273 273
299 299 296 291 288 285 287 298 296 292 287 278 275 273 278 287 283 283 283 283 275 282 279 280 285 280 273 272 279 279 279 279 278 279 279 279 278 277 276 276 275 273 272 272
297 291 285 281 286 296 297 289 281 281 283 287 276 279 276 284 278 278 279 280 277 278 281 283 278 276 280 278 279 280 282 280 281 278 277 278 276 276 276 275 274 273 272 271
288 286 285 292 298 292 287 282 281 280 277 280 278 279 275 284 277 277 280 275 277 275 280 281 278 275 278 281 282 284 284 284 283 281 280 280 278 276 274 273 273 271 270 268
289 292 294 292 288 284 281 278 278 280 276 277 278 278 281 283 284 278 280 277 276 273 285 281 275 273 279 280 280 281 280 280 280 280 278 277 276 275 274 272 270 268 266 263
293 290 285 283 283 276 276 270 276 270 276 279 277 276 281 280 282 277 278 272 271 282 277 278 274 278 279 278 278 277 278 278 278 277 276 275 273 272 269 266 261 263 262 257
285 282 277 278 275 278 272 273 272 277 276 277 277 277 278 277 277 273 271 276 281 271 272 273 272 277 277 277 278 276 274 273 273 270 270 268 266 261 260 260 258 260 258 255
282 283 275 276 277 281 283 285 282 280 277 279 278 278 278 275 279 281 278 275 273 271 270 270 274 277 277 275 274 271 269 268 267 266 265 262 262 262 259 255 256 258 256 255
283 282 280 282 281 281 283 284 283 285 281 278 281 277 274 275 273 278 272 272 269 270 270 274 275 275 274 273 273 271 269 268 266 265 264 263 262 262 261 258 257 255 256 256
280 281 280 284 283 282 283 284 285 285 280 274 279 271 273 278 275 276 274 269 274 275 277 278 278 275 270 269 270 270 269 267 265 264 264 261 260 262 264 264 261 263 264 259

GFSNW_sfc_thetae_108.txt.gz
Theta_e
307 305 304 303 302 301 298 291 280 293 295 284 283 280 285 288 284 287 285 284 282 280 280 278 278 278 280 285 284 278 281 277 275 277 283 285 282 280 281 274 277 280 277 274
305 303 303 302 301 300 293 287 286 293 294 279 280 284 284 286 284 284 283 282 283 283 279 276 279 281 286 286 282 281 283 277 270 275 281 286 283 285 286 284 282 280 272 272
303 302 301 301 301 300 294 286 279 286 289 284 283 282 282 281 286 285 284 283 283 281 279 281 278 280 283 285 284 289 285 278 274 271 275 280 278 281 284 282 277 277 274 276
302 301 299 300 301 300 294 286 280 286 280 280 283 283 283 281 280 285 284 281 282 280 277 278 277 279 278 282 285 284 282 277 278 279 281 281 281 280 279 282 283 278 277 275
300 299 299 300 300 300 290 284 283 285 283 284 283 283 281 281 282 282 280 280 281 281 278 279 276 280 279 277 282 284 287 277 279 276 281 282 277 279 278 278 280 278 276 274
299 300 301 301 301 298 289 289 289 286 282 281 280 280 282 282 282 284 284 282 281 281 282 285 285 286 285 285 284 283 282 279 278 276 280 279 274 276 277 277 278 279 276 276
299 300 300 300 300 298 291 289 287 283 279 281 282 284 284 282 281 276 284 284 282 285 288 288 286 285 284 285 285 287 282 280 280 277 279 270 277 283 280 276 277 278 278 277
299 300 301 301 301 299 291 289 287 283 277 282 284 285 283 283 283 280 279 285 287 287 284 283 280 281 282 284 286 287 285 282 278 278 275 276 279 278 277 278 274 277 277 278
301 301 302 302 300 299 292 290 289 286 282 281 286 283 283 279 278 280 282 286 287 284 282 281 274 273 279 280 283 287 287 286 281 280 275 271 275 278 281 282 270 278 277 276
300 301 302 301 301 299 293 289 289 287 281 284 285 281 281 283 280 278 281 282 283 283 277 274 276 277 282 276 276 278 280 281 277 278 275 275 276 278 283 273 271 277 276 274
300 301 301 301 300 299 293 289 290 287 281 284 288 287 282 281 280 275 280 278 280 279 276 278 277 276 277 279 279 278 276 275 274 276 275 272 278 280 276 276 278 277 275 273
300 301 301 301 300 299 295 287 290 290 285 284 287 288 287 284 284 282 284 280 281 278 278 281 279 278 280 275 271 281 275 276 274 274 272 277 278 278 280 280 277 276 275 275
300 300 301 300 300 299 294 288 287 286 284 284 285 285 289 291 289 288 282 282 285 283 284 282 280 279 283 277 274 277 279 281 275 274 276 276 277 278 279 278 276 277 276 274
300 300 300 300 300 299 295 289 288 287 284 279 282 290 288 291 291 289 288 286 286 285 283 281 281 280 286 278 277 275 277 278 277 274 276 277 277 277 278 278 277 276 276 275
299 299 299 299 299 298 294 291 290 290 284 279 280 285 289 290 290 288 288 286 284 281 280 279 282 285 283 277 278 273 281 277 271 268 276 275 276 275 278 276 275 276 276 275
299 298 299 299 298 295 288 283 291 292 287 281 275 284 286 288 288 287 286 286 283 282 281 280 282 290 280 270 272 279 277 281 279 277 278 276 278 277 277 277 276 277 276 275
298 298 299 299 298 292 287 284 289 296 288 280 275 280 286 289 287 285 285 285 282 282 281 280 285 285 282 269 270 278 277 279 279 280 279 276 276 275 277 277 278 277 274 274
298 298 298 297 297 294 288 291 297 292 285 282 274 279 284 290 282 281 283 282 282 282 280 281 282 283 278 271 275 278 277 277 278 280 280 278 278 278 277 276 275 274 272 272
298 297 295 291 288 285 287 296 294 290 285 276 275 276 277 285 282 282 282 282 275 281 278 280 285 280 271 273 279 279 278 278 278 279 278 278 277 276 276 275 274 273 272 272
296 291 284 278 287 296 296 288 281 281 283 283 276 278 281 284 277 278 278 279 276 278 283 283 278 273 280 277 280 280 281 280 279 277 276 276 275 275 275 274 274 273 272 271
288 285 285 292 297 288 283 277 275 276 276 279 278 278 277 283 276 281 281 277 278 274 279 280 276 273 278 279 280 281 281 281 280 280 280 279 277 276 274 273 273 272 271 268
289 292 294 292 287 284 279 277 279 279 276 276 276 277 281 283 283 279 280 276 275 272 284 279 274 274 280 281 281 282 281 281 281 280 279 278 277 276 274 272 270 268 266 262
293 289 285 282 282 276 270 269 275 271 276 276 276 275 279 279 281 276 277 270 269 281 279 277 274 279 280 280 279 279 280 280 279 278 278 276 274 273 270 266 262 262 261 256
284 281 276 275 273 278 272 272 271 276 275 276 277 276 278 277 277 271 270 273 277 268 270 273 272 279 279 279 279 278 276 275 275 274 273 269 267 262 261 261 260 260 258 254
282 282 276 276 277 280 278 282 282 282 276 278 278 278 280 277 277 277 274 273 269 270 270 269 270 277 277 276 275 273 272 272 271 269 267 264 262 262 258 254 256 259 257 254
282 282 280 281 280 280 282 283 283 284 283 278 280 280 275 276 272 278 270 272 268 269 271 272 270 274 274 274 274 272 270 270 267 265 265 263 262 263 261 257 256 254 257 255
280 279 281 283 283 280 282 284 284 285 283 273 279 270 272 277 275 274 273 269 269 269 275 278 276 272 271 271 271 270 269 267 266 264 264 261 260 261 263 263 260 262 263 257

GFSNW_sfc_thetae_111.txt.gz
Theta_e
309 310 307 305 303 301 298 292 283 295 298 286 285 281 285 287 285 287 285 285 282 280 281 279 279 279 281 286 286 281 284 281 276 278 284 287 284 282 282 276 276 279 278 277
309 308 306 304 301 301 295 287 287 294 294 279 281 285 285 286 284 285 284 283 284 283 281 277 280 281 286 287 285 283 285 280 273 276 282 286 282 284 284 284 282 277 275 276
308 306 304 302 301 303 294 287 281 287 290 286 284 283 283 282 287 285 285 283 284 282 280 282 279 281 284 286 286 289 288 281 276 273 276 280 278 281 283 282 278 279 278 275
306 304 302 301 302 301 294 288 283 287 280 282 284 285 284 281 280 285 285 282 283 281 278 279 279 281 282 283 286 286 285 277 279 280 281 281 281 280 280 276 281 279 276 274
304 303 302 302 302 300 293 284 284 287 285 285 284 285 282 282 282 283 281 281 283 282 280 280 278 281 281 281 284 284 286 279 279 275 282 282 277 279 279 277 279 277 276 274
303 302 301 302 301 298 290 290 290 287 286 284 283 282 283 283 284 284 285 284 283 281 283 286 286 287 287 286 284 284 283 280 278 276 280 279 276 277 277 277 279 279 277 277
301 301 301 301 301 297 292 290 290 285 280 283 283 284 284 283 283 281 285 286 284 287 290 290 288 287 286 286 286 287 283 281 281 278 279 272 278 282 280 277 277 279 278 278
300 300 301 301 301 299 292 291 289 285 280 284 284 284 284 285 285 283 283 286 288 290 289 284 281 281 282 283 285 286 285 283 278 278 276 276 278 279 279 278 275 278 278 279
300 300 301 301 302 299 292 290 291 288 284 282 287 283 285 282 281 282 284 288 290 289 285 282 276 276 278 280 283 288 287 285 280 279 274 272 277 278 282 282 274 278 278 278
301 302 302 302 300 299 293 290 290 289 283 285 286 283 283 284 283 281 283 285 285 287 281 279 279 278 283 277 276 278 280 281 278 279 276 275 277 279 283 275 275 277 277 276
301 301 301 300 299 298 293 289 290 289 284 286 289 288 284 283 283 280 282 283 283 283 280 280 279 278 280 280 280 278 277 275 276 278 275 273 278 281 278 278 279 277 276 275
301 301 301 301 299 298 294 289 291 291 287 286 289 289 290 288 287 285 285 283 283 284 282 282 282 279 281 278 276 282 277 277 275 275 274 278 279 279 281 281 278 277 276 275
301 301 300 300 299 298 294 289 289 289 286 286 287 286 291 292 291 292 285 286 287 285 287 286 284 280 284 278 277 279 280 282 276 276 276 277 278 279 280 280 278 278 277 276
300 300 300 300 299 299 295 290 290 288 286 282 285 291 289 293 293 291 290 289 288 288 288 285 285 282 286 279 280 278 280 281 277 275 277 277 278 279 279 278 278 277 277 276
300 300 300 299 299 298 295 292 291 290 287 282 283 287 290 292 292 290 290 289 287 286 284 284 283 286 283 281 280 277 281 278 275 276 278 278 277 279 279 277 276 277 276 275
299 299 299 298 297 293 289 284 291 294 289 285 280 286 288 290 291 290 289 288 286 286 285 284 286 289 285 278 277 279 280 282 282 278 280 279 279 279 279 278 278 278 277 276
299 299 299 299 298 295 288 285 291 295 290 285 281 283 287 290 289 287 287 287 286 287 285 285 287 286 283 277 276 279 280 280 280 281 280 277 278 277 279 278 278 278 276 276
299 298 298 297 297 294 290 293 296 292 286 285 279 281 285 290 285 285 286 286 286 285 284 285 286 284 282 277 277 278 280 280 280 280 281 280 279 279 278 278 276 274 273 273
297 296 295 291 289 287 290 297 293 291 287 280 279 280 278 287 284 285 286 285 282 285 283 284 285 282 279 278 278 278 279 279 279 279 279 279 278 277 276 276 276 274 273 273
295 291 285 282 289 295 294 288 283 283 283 284 280 281 282 286 282 283 283 283 282 281 284 286 282 281 281 281 282 281 281 281 280 278 276 277 277 276 276 276 276 275 274 273
289 287 286 292 297 289 284 278 278 280 279 282 281 282 283 286 282 283 283 281 281 277 282 282 280 278 279 281 282 283 283 282 281 281 281 280 279 277 276 275 275 274 273 271
291 290 294 291 287 282 278 277 279 279 277 280 281 282 284 285 286 284 282 279 280 275 284 282 278 278 280 281 282 282 282 282 281 282 280 279 279 278 276 275 273 272 270 267
291 288 285 282 281 274 271 269 276 276 279 280 281 280 283 284 284 281 280 276 275 282 279 279 278 280 282 282 282 282 282 282 281 280 280 278 276 275 273 270 267 266 265 263
284 280 275 274 275 276 275 276 275 279 279 281 282 281 283 281 281 277 276 277 280 274 273 275 279 280 281 281 281 280 279 278 278 276 275 273 270 268 267 266 265 263 262 260
281 281 275 276 279 281 281 282 283 283 281 282 282 282 283 279 278 279 276 275 273 274 275 277 278 280 279 278 279 278 276 275 274 274 272 269 267 266 263 263 264 264 261 261
282 281 280 281 281 282 284 284 283 284 284 282 284 282 277 276 276 277 273 274 273 277 277 280 275 277 278 277 277 276 274 274 272 270 269 267 266 266 264 262 263 262 263 262
280 279 281 284 283 282 283 285 284 286 283 279 280 273 274 279 275 275 277 276 278 276 280 279 275 276 275 275 274 273 272 271 269 268 268 266 265 264 265 266 264 265 266 264

GFSNW_sfc_thetae_114.txt.gz
Theta_e
307 308 309 309 305 304 300 294 283 294 300 287 288 286 289 290 288 290 287 288 286 285 285 283 282 282 284 288 289 283 286 284 279 281 287 289 287 285 285 279 279 282 281 281
306 307 309 308 304 305 297 288 287 296 296 283 285 289 288 288 287 287 287 286 287 287 284 281 284 283 288 290 288 285 288 282 277 279 284 288 285 286 286 286 284 280 278 280
306 307 308 306 304 306 297 290 283 287 290 293 289 287 286 285 289 288 288 286 287 285 284 286 282 283 286 289 289 289 290 283 279 278 280 283 281 284 286 283 280 281 282 279
306 307 308 305 305 305 296 293 287 291 283 286 289 289 288 284 283 287 288 284 286 285 281 282 281 284 285 287 288 289 288 280 282 282 284 284 283 283 283 280 281 278 280 278
306 307 307 304 305 304 295 289 289 292 290 290 288 288 285 284 284 285 284 285 286 286 282 283 281 284 285 285 288 286 288 280 282 280 285 284 281 281 283 280 279 279 279 276
306 307 306 304 304 302 294 295 298 295 288 288 287 287 285 285 287 287 289 288 286 284 286 289 289 291 290 289 287 286 285 282 281 278 282 281 277 278 279 279 281 281 280 279
306 306 303 303 303 300 297 297 298 292 284 287 286 286 287 286 288 286 288 290 287 290 295 294 292 291 290 289 288 289 284 283 284 280 281 275 279 283 283 280 280 282 281 281
304 303 303 302 300 299 297 297 296 291 284 286 286 287 287 289 290 287 288 290 293 295 292 286 283 283 283 284 287 287 287 285 282 279 279 279 280 281 281 280 277 281 281 282
302 301 301 301 299 299 298 296 300 295 287 286 290 288 289 286 287 287 288 292 296 294 290 285 281 279 282 282 283 287 288 286 283 282 277 275 281 282 285 285 278 281 282 283
301 301 302 301 299 298 299 295 298 297 290 291 292 288 287 291 289 286 288 289 290 292 287 283 283 282 286 281 280 281 283 284 280 281 281 280 281 282 285 277 278 281 283 283
301 300 302 301 300 299 299 295 297 297 292 291 292 292 289 289 290 286 289 288 288 287 285 286 285 283 284 283 283 281 281 281 281 282 280 276 282 283 280 281 282 282 282 281
301 301 301 300 299 297 301 294 297 301 294 290 294 294 294 293 293 292 291 289 289 292 289 289 287 282 283 283 279 284 280 282 283 279 279 280 282 282 285 285 282 282 281 280
300 301 301 300 299 299 300 297 298 298 293 291 291 290 296 298 297 299 291 293 293 292 296 290 288 282 287 281 283 281 282 283 280 280 279 279 281 283 284 284 282 282 281 280
300 300 300 300 300 299 300 297 297 297 293 286 287 295 294 297 299 298 298 295 295 296 296 291 288 284 290 284 285 284 284 283 280 277 279 280 280 281 282 281 281 280 280 280
300 300 300 300 300 300 300 300 298 298 294 286 288 294 295 297 297 296 297 296 295 293 292 289 285 287 288 289 287 284 285 282 281 282 282 283 280 281 282 280 279 280 279 278
300 300 299 298 296 296 299 292 299 299 299 290 285 292 292 295 296 296 295 295 294 295 294 289 290 291 290 284 285 282 283 284 285 282 284 284 282 282 283 281 281 281 281 280
299 299 299 299 299 300 293 291 297 297 301 292 285 286 292 294 295 296 295 295 294 294 293 292 290 290 290 288 284 281 282 283 284 284 283 279 281 279 282 282 282 282 281 281
299 298 298 299 300 299 294 297 297 298 295 293 285 284 289 294 290 290 296 293 294 292 291 293 291 290 291 283 281 281 282 282 283 283 285 283 284 282 282 282 281 279 278 278
296 296 297 299 296 293 295 297 296 300 295 287 288 283 282 294 291 294 293 294 288 293 290 290 290 288 284 284 281 281 282 282 282 283 284 283 281 281 281 281 280 279 277 277
297 297 293 285 293 296 297 296 292 292 292 292 286 291 284 292 291 290 290 292 288 284 288 292 287 287 285 285 286 285 284 285 284 280 279 281 280 280 280 280 281 279 277 277
295 291 288 296 297 296 291 285 285 287 284 289 288 287 287 294 288 287 292 287 288 281 284 284 284 284 284 286 286 286 286 285 285 285 284 284 283 281 280 280 279 278 277 276
294 295 297 297 291 287 283 281 283 284 282 287 287 288 291 292 295 290 289 284 286 278 287 283 281 285 285 286 286 286 286 284 284 285 283 283 282 282 280 279 278 277 276 273
297 292 287 287 284 279 278 275 279 281 285 287 288 287 292 291 293 288 286 281 281 288 281 281 285 284 285 286 286 285 286 285 284 283 283 282 281 281 279 277 275 273 271 270
288 284 278 280 279 281 282 283 284 285 288 289 290 287 289 290 286 285 281 283 285 279 277 278 287 284 284 285 285 284 283 283 282 281 281 279 276 275 275 273 272 270 268 268
285 286 278 280 283 285 285 285 286 286 290 291 289 288 289 285 283 285 282 278 277 280 282 286 286 284 284 283 284 284 282 281 280 280 277 275 273 272 270 270 271 270 268 268
286 285 283 285 285 284 285 286 286 291 291 292 291 284 281 279 283 279 277 278 278 284 287 286 284 282 283 283 283 282 282 281 280 279 276 274 272 271 271 270 270 269 269 268
284 283 285 286 286 285 286 289 289 292 291 285 286 280 278 283 279 277 284 283 286 285 284 286 284 282 282 282 280 279 278 278 277 275 275 274 272 269 270 270 270 271 271 271

GFSNW_sfc_thetae_117.txt.gz
Theta_e
305 306 307 309 309 306 303 295 285 298 301 286 288 291 295 296 294 294 292 292 292 289 290 287 287 286 288 292 291 286 289 286 281 283 289 290 289 287 286 280 279 283 282 282
303 304 306 307 307 305 298 287 287 296 297 285 289 294 295 294 292 291 291 289 292 291 289 285 287 287 291 291 290 287 289 283 278 281 285 290 287 288 287 287 286 281 278 281
303 304 305 307 306 306 298 289 282 286 288 291 294 292 291 290 294 292 292 291 291 289 287 289 286 287 289 291 290 290 290 285 282 278 280 286 283 286 288 286 281 282 283 282
303 303 304 306 306 306 302 291 288 292 282 284 291 293 293 290 287 292 292 289 289 287 285 286 286 287 288 289 290 289 288 281 284 284 285 286 285 285 286 284 285 281 283 280
302 303 304 305 306 306 301 289 292 294 295 291 289 291 291 290 289 290 288 287 288 289 286 288 284 287 287 285 288 287 290 281 284 280 286 286 284 286 286 285 284 281 281 278
303 303 303 305 305 304 298 299 302 298 293 290 289 291 292 292 292 290 290 289 289 289 290 291 291 293 292 291 288 287 287 284 282 280 285 283 280 282 283 283 282 283 280 280
302 303 304 305 305 305 298 301 299 295 288 291 290 293 293 292 290 287 290 293 291 293 297 295 294 292 292 291 291 292 287 284 285 281 283 275 280 286 285 283 283 285 283 283
303 303 304 304 305 306 301 301 298 297 289 293 291 293 292 291 291 289 292 293 295 298 294 288 285 285 285 287 289 288 290 286 283 280 281 281 280 283 283 281 280 286 284 283
302 303 304 304 305 306 301 299 303 300 295 292 295 292 291 287 288 289 291 296 299 296 291 286 281 281 284 283 284 290 289 288 283 283 278 276 283 287 289 288 279 286 286 284
302 303 304 305 305 303 300 297 302 301 293 294 294 290 289 294 291 289 291 291 292 295 288 283 284 283 288 283 283 283 283 283 281 282 281 281 286 286 288 279 279 286 287 287
302 303 304 302 302 302 300 297 303 301 295 295 295 297 294 294 293 288 291 290 291 289 285 286 287 286 288 286 287 285 284 283 283 284 281 278 285 286 281 284 287 287 286 284
301 300 300 301 301 301 301 296 304 305 297 295 299 298 299 298 297 295 294 292 292 293 290 291 292 287 286 286 282 288 282 286 283 283 281 283 285 286 288 288 286 285 284 283
300 300 300 299 300 302 302 301 302 300 295 294 295 293 298 301 302 303 292 295 297 295 300 293 292 284 289 285 286 286 285 287 286 283 281 281 284 286 288 288 285 285 285 283
300 300 300 300 302 303 303 300 303 301 295 288 288 299 296 300 301 300 302 300 300 300 299 291 290 286 292 287 288 288 288 286 283 281 281 282 283 284 285 284 284 283 284 283
300 301 301 302 302 302 304 303 303 303 295 287 289 295 297 299 300 299 300 300 299 297 293 290 287 290 289 290 290 287 288 286 283 283 284 285 282 283 284 283 282 283 282 281
300 300 300 299 299 303 300 294 302 303 301 290 286 294 294 297 298 297 297 299 299 299 296 290 292 293 291 286 285 285 286 286 288 284 288 286 284 284 285 283 283 284 283 282
300 300 300 300 300 301 295 293 297 300 303 292 286 287 293 296 296 296 295 297 298 297 296 292 290 291 291 287 284 284 284 285 288 288 285 281 283 282 284 285 285 285 284 284
300 300 300 300 300 300 296 299 300 301 297 295 287 285 289 296 291 291 298 294 295 295 294 294 292 292 291 284 283 284 284 285 286 286 288 286 286 285 284 285 285 283 282 282
298 300 300 301 298 294 295 297 300 305 298 290 289 284 283 295 292 293 294 296 290 294 292 293 292 290 285 287 284 283 284 284 284 286 287 286 284 284 284 284 284 282 281 280
299 300 295 287 295 297 298 299 295 295 296 294 289 292 286 292 292 291 291 293 289 285 290 294 288 288 289 289 289 288 287 288 287 284 283 283 283 283 283 283 284 283 281 280
299 294 291 297 297 299 295 289 289 290 287 290 290 290 289 295 289 288 294 289 289 282 286 285 285 285 287 289 289 290 289 289 288 288 287 287 286 284 283 283 283 282 281 279
296 296 299 299 294 291 286 284 287 287 284 289 289 290 292 294 298 290 291 285 287 280 290 283 282 285 288 288 289 288 288 288 287 288 286 286 286 285 284 283 282 280 280 277
300 294 289 290 288 283 282 278 282 283 287 290 291 289 292 294 294 289 288 282 283 289 282 283 286 288 288 287 287 287 288 287 286 286 286 285 284 285 283 281 279 276 275 274
291 287 280 284 282 282 283 286 286 287 291 292 293 291 290 292 287 288 283 284 286 280 279 281 288 287 287 287 287 286 286 285 285 285 284 283 282 281 280 277 276 275 272 273
288 288 280 282 286 286 285 288 288 291 294 293 291 291 291 287 284 287 284 280 279 282 283 285 286 286 286 286 286 285 284 283 283 283 280 279 278 276 275 275 275 274 272 272
289 287 285 288 285 284 286 286 288 294 294 294 293 286 282 281 285 281 279 279 280 284 286 285 285 285 285 285 285 285 284 284 283 281 279 277 276 275 275 275 273 272 272 271
286 284 286 286 286 285 285 291 291 297 293 286 289 283 279 286 281 280 287 284 285 284 285 286 285 284 285 285 284 284 284 283 282 280 279 277 277 274 273 272 272 274 273 273

GFSNW_sfc_thetae_120.txt.gz
Theta_e
303 304 305 306 307 307 304 296 286 298 301 286 286 288 294 298 298 301 295 295 293 292 292 290 290 289 291 293 292 286 290 286 281 284 290 291 288 285 285 279 277 281 280 280
302 302 304 305 306 306 300 289 288 298 297 284 285 291 294 297 296 296 292 291 293 295 291 287 290 290 292 293 290 288 289 283 278 279 285 288 284 287 288 287 285 280 277 279
302 302 303 304 306 306 298 289 283 286 289 291 289 290 293 292 298 296 295 292 294 292 289 291 287 288 291 292 290 291 291 285 281 276 281 285 282 286 288 286 281 281 281 279
301 302 303 303 305 306 300 292 288 291 281 285 288 293 293 291 292 294 295 291 291 289 286 288 287 289 289 290 292 290 288 280 283 283 284 284 284 284 285 284 285 281 283 282
301 302 303 303 304 306 298 288 293 293 293 291 287 288 292 292 293 292 290 289 291 291 287 288 286 289 289 286 289 287 289 280 284 279 284 284 282 285 285 286 286 285 283 282
301 302 302 303 304 304 296 300 302 297 292 290 286 288 292 293 295 295 294 292 291 289 290 292 294 292 292 291 288 286 286 284 280 277 285 285 280 285 286 287 287 285 281 282
301 302 302 302 303 303 302 303 302 294 290 290 289 291 293 293 295 290 293 294 290 293 298 296 294 292 291 291 291 291 286 284 282 280 283 274 282 287 287 285 285 286 283 282
301 301 302 302 303 304 301 305 300 297 291 293 292 292 293 295 295 292 292 293 295 298 294 288 284 284 285 287 290 290 291 286 282 279 279 282 282 284 284 281 281 287 284 283
301 301 301 302 303 304 302 306 305 303 294 293 295 293 295 292 290 290 291 297 300 297 290 287 280 278 282 282 284 290 289 289 283 282 278 276 283 287 290 289 278 287 286 283
300 301 301 302 302 303 302 300 303 304 297 298 298 295 295 297 292 288 291 292 292 295 288 284 281 281 288 282 281 281 282 283 280 280 278 282 287 288 290 278 280 288 288 286
300 301 301 302 303 303 302 298 306 300 298 297 300 301 296 294 293 288 292 289 290 289 285 284 284 286 287 286 288 284 282 281 281 282 279 278 288 287 282 285 289 289 286 284
301 301 301 302 303 304 303 297 305 305 299 296 301 301 301 300 299 295 294 292 291 293 288 289 290 286 288 287 282 291 283 287 283 280 281 285 287 287 290 290 288 286 284 282
301 301 302 302 303 304 303 300 302 298 293 293 294 292 299 304 303 304 292 295 296 296 299 295 291 286 289 284 285 287 287 289 286 283 282 283 285 288 289 288 286 286 285 283
302 302 302 303 303 303 303 299 303 301 296 287 289 299 296 301 303 303 303 301 302 301 299 293 290 288 292 288 289 288 289 288 285 281 283 283 284 286 286 285 286 284 284 283
302 302 302 302 303 303 302 302 304 303 294 286 288 296 298 300 300 300 301 301 299 296 292 291 288 290 290 291 290 288 290 287 283 283 285 285 284 285 285 283 283 283 283 282
300 301 301 302 302 303 300 292 304 304 299 290 284 294 294 297 299 298 299 300 300 297 294 291 292 294 291 286 284 287 287 288 290 286 288 287 285 285 285 283 284 284 283 283
300 301 302 303 302 302 295 293 299 300 304 293 286 286 294 296 296 296 296 298 297 296 294 292 290 291 291 287 284 285 285 286 289 288 285 282 283 282 285 285 285 285 284 283
300 300 300 300 300 300 296 299 301 300 299 294 287 285 288 295 291 290 296 292 294 294 293 293 291 291 291 284 285 285 285 287 287 286 288 285 286 285 284 285 285 283 282 281
301 301 302 302 298 294 296 297 298 309 299 290 288 284 282 295 292 293 293 294 290 293 290 291 291 289 285 288 285 284 285 285 285 287 286 285 284 284 284 284 284 282 281 280
301 301 294 287 295 297 297 299 295 296 295 294 289 291 286 293 292 290 290 291 288 284 289 293 287 288 290 291 290 288 287 288 288 285 283 283 283 283 284 284 285 284 281 280
299 294 292 296 298 298 296 291 289 290 286 291 291 291 289 294 290 288 292 289 288 282 286 285 284 284 287 291 290 290 290 289 289 288 288 287 286 284 284 284 285 283 281 280
297 296 300 299 295 292 286 284 287 287 283 289 290 291 292 294 295 290 290 285 287 280 290 284 281 285 290 290 289 289 289 289 288 289 287 287 286 286 285 285 283 281 278 275
300 295 290 290 289 283 282 278 282 283 288 292 292 289 292 293 294 289 288 283 282 290 282 281 285 287 289 288 288 287 288 288 287 287 287 286 285 285 284 279 277 276 274 274
293 288 281 284 281 282 283 286 287 290 292 292 293 291 290 292 287 289 282 284 286 280 279 280 286 288 288 288 287 286 285 285 285 285 285 283 282 279 278 278 277 274 272 273
288 288 281 282 284 285 287 290 291 294 296 294 292 291 290 287 284 286 283 280 278 281 282 285 286 287 286 286 286 284 283 283 283 283 280 279 278 277 275 276 275 274 273 272
288 287 284 286 285 284 286 287 289 296 296 296 292 286 283 282 284 282 280 280 279 283 284 285 286 285 285 286 285 284 284 283 282 281 280 278 277 276 275 275 273 272 272 272
286 285 285 286 285 284 285 291 292 297 293 286 288 282 280 286 282 281 286 282 283 284 284 285 285 285 285 285 284 284 283 283 282 281 279 277 277 275 274 272 272 273 273 272

GFSNW_sfc_thetae_123.txt.gz
Theta_e
303 303 304 304 305 306 304 297 287 299 303 286 286 286 291 296 295 298 296 296 292 290 290 288 288 287 291 291 290 284 287 283 276 281 288 289 286 283 283 273 275 278 277 273
302 302 303 303 305 306 300 291 288 298 298 284 283 288 291 294 294 295 295 294 293 291 287 283 288 288 292 291 288 285 286 279 273 277 282 287 284 287 287 286 281 277 272 272
301 302 302 303 304 305 298 288 282 287 290 289 287 286 288 290 296 295 297 294 292 288 287 289 285 286 291 291 289 293 289 282 277 274 278 282 279 283 286 285 279 276 275 273
301 301 302 303 303 304 299 291 285 287 280 284 287 290 290 288 290 295 296 293 289 287 283 284 283 287 286 289 291 288 284 278 277 280 283 283 281 281 282 278 282 276 275 277
301 301 301 302 302 303 296 288 288 287 285 287 287 288 289 289 292 293 290 289 289 288 284 285 283 286 284 282 287 285 285 276 275 271 282 282 279 281 282 280 281 278 278 278
301 301 301 301 302 302 293 296 294 289 288 285 285 286 287 290 292 294 293 291 288 287 288 291 289 289 289 289 285 283 281 277 272 272 282 283 275 278 280 281 284 284 280 280
301 301 301 301 302 302 297 297 294 288 283 285 285 288 289 290 293 286 294 292 288 291 293 292 291 290 289 289 288 288 279 277 278 274 277 271 277 286 286 283 285 283 281 281
301 301 301 301 302 302 296 299 295 290 284 289 288 288 288 291 292 290 291 293 293 293 291 285 282 281 283 286 288 287 286 280 275 273 275 279 281 283 283 280 281 285 282 282
300 301 301 301 302 302 298 296 299 294 286 286 293 289 290 286 289 288 290 294 294 292 286 283 278 276 281 279 283 290 286 284 277 278 276 274 280 287 289 288 276 287 284 281
300 300 300 301 301 302 299 296 299 295 290 292 294 289 288 292 288 286 288 288 288 291 284 281 279 279 286 280 279 280 282 281 278 277 276 279 285 288 291 276 276 286 285 282
299 300 300 301 301 302 299 296 302 298 289 291 296 297 291 293 290 284 288 286 287 286 282 282 281 280 281 283 285 282 280 277 276 278 277 275 287 286 281 282 285 286 285 283
299 300 300 301 301 302 301 293 301 304 292 291 297 297 297 299 294 290 291 289 289 288 285 284 284 281 282 283 281 288 280 282 278 280 277 282 284 283 287 287 283 282 281 280
300 300 301 301 301 302 301 295 300 298 292 289 290 291 298 302 299 300 289 292 293 292 294 289 287 282 286 281 281 282 284 287 280 279 279 282 284 286 286 286 283 282 281 279
299 300 301 301 302 302 301 296 301 298 291 286 288 298 296 300 301 299 298 296 297 296 294 287 285 283 289 281 284 282 282 284 280 278 280 281 284 285 284 284 284 281 281 280
300 301 301 302 302 303 300 298 302 300 293 285 287 293 297 299 300 299 299 297 294 291 287 286 283 286 285 282 284 279 283 278 277 274 281 280 279 284 285 282 282 282 281 279
300 301 302 302 302 302 299 290 299 302 296 286 282 293 294 296 297 297 296 296 294 292 289 285 287 292 287 278 277 283 286 287 284 281 284 282 283 283 284 283 283 283 281 281
301 301 302 302 302 301 294 291 296 301 297 288 283 284 293 296 297 294 293 295 293 292 290 285 286 287 287 283 274 279 285 282 284 284 283 281 282 280 283 284 284 285 283 282
302 302 302 302 301 300 294 297 301 300 294 293 283 283 286 295 287 286 292 288 289 288 288 287 285 284 283 275 283 280 283 284 283 283 285 283 284 284 284 285 284 281 280 280
302 301 302 299 296 292 294 299 299 300 294 285 284 281 279 291 288 288 288 288 280 287 282 284 286 280 277 280 282 281 283 284 283 284 284 284 282 283 283 283 282 280 278 278
301 299 291 285 292 297 298 297 290 291 291 291 284 287 282 289 286 284 283 285 282 278 281 286 280 277 286 287 285 285 285 287 285 282 280 282 281 282 283 282 282 281 279 278
295 290 288 294 298 296 292 285 284 285 283 286 286 286 285 290 282 281 285 280 280 277 280 279 277 276 281 286 285 286 286 288 287 285 284 284 284 283 283 283 282 281 279 277
295 294 297 297 292 287 283 280 283 283 280 284 283 284 287 288 290 283 284 280 279 275 282 276 272 282 286 286 287 286 288 287 287 287 284 285 285 284 284 283 281 279 276 275
296 293 287 286 284 276 276 273 279 278 282 283 283 283 286 287 288 281 281 276 274 283 271 274 278 283 287 286 286 286 286 286 285 283 284 285 285 284 281 276 276 275 273 272
287 282 275 278 278 278 282 281 280 282 284 286 285 282 282 281 280 279 274 279 279 271 269 277 282 284 284 284 284 284 283 283 283 281 282 281 278 277 277 276 275 274 272 272
284 284 276 277 282 284 285 286 285 286 286 285 284 283 284 279 277 279 277 275 270 274 274 281 282 284 283 283 283 280 280 280 280 280 278 277 277 276 275 275 274 274 272 271
285 284 280 282 283 284 286 286 285 289 285 285 285 280 276 276 278 277 273 276 273 279 281 283 284 284 284 283 281 280 281 281 279 278 278 277 276 275 274 273 273 272 271 271
283 283 285 284 284 284 285 286 285 289 284 278 282 276 277 280 276 277 279 276 280 282 282 283 284 285 284 283 280 280 280 279 278 276 276 275 275 274 272 271 271 272 271 269

GFSNW_sfc_thetae_126.txt.gz
Theta_e
304 304 304 304 305 306 303 296 286 299 303 288 285 285 290 295 294 297 294 295 293 288 289 287 286 286 290 290 288 283 285 281 276 280 286 287 284 282 282 275 275 276 275 273
303 303 303 303 304 305 298 291 289 299 299 284 284 287 290 293 293 293 293 293 294 291 286 283 287 287 290 290 287 284 285 279 273 277 280 285 282 285 286 283 279 275 269 271
302 302 302 303 303 304 298 289 283 288 291 288 287 285 287 287 295 293 295 294 294 289 286 289 285 285 289 290 288 294 289 281 277 274 277 281 278 281 282 282 274 276 273 270
302 302 302 302 303 303 298 290 284 286 282 284 287 287 287 286 287 294 294 292 292 287 283 286 284 286 284 288 291 286 283 278 276 279 282 282 280 279 280 276 280 276 274 276
301 301 302 302 302 303 294 286 285 286 282 287 287 288 286 286 288 289 289 290 293 291 285 286 283 284 282 282 285 283 283 276 273 269 282 281 278 280 280 280 280 277 276 278
301 301 301 301 302 301 291 294 293 287 285 285 285 285 286 287 290 292 293 291 290 286 287 289 288 289 288 287 284 281 279 275 271 270 280 281 276 278 278 278 281 281 277 280
300 300 300 300 301 301 294 293 293 287 281 284 284 286 288 287 289 286 292 293 289 291 292 291 290 288 288 287 286 286 279 277 276 274 276 270 278 285 284 282 283 283 280 280
300 300 300 301 301 302 294 293 293 288 280 286 286 287 287 288 290 288 288 292 294 292 289 284 281 279 282 284 286 284 285 279 275 272 274 278 280 283 282 280 280 283 281 281
299 300 300 301 300 301 296 293 298 294 285 284 290 287 288 284 284 287 288 295 294 290 285 282 276 275 278 279 281 286 284 283 277 276 274 271 279 286 288 286 273 284 283 279
299 299 300 301 301 301 297 292 297 293 287 289 291 286 286 289 286 284 287 289 290 291 282 280 278 277 284 279 278 280 280 280 277 277 275 278 285 287 289 272 275 284 282 280
299 299 300 300 300 301 297 293 298 292 289 288 293 295 288 289 287 282 286 286 286 283 281 280 279 279 283 283 285 282 280 278 278 279 275 273 285 285 279 281 284 284 283 282
298 299 300 300 301 301 300 289 299 299 292 290 293 294 297 294 294 287 287 285 285 284 282 283 284 280 282 281 278 288 280 282 277 279 278 281 283 283 285 286 283 283 283 282
298 299 300 300 301 301 299 290 298 296 290 288 288 289 296 299 298 298 286 287 291 289 292 288 287 283 284 280 281 283 285 287 281 280 280 281 283 284 285 284 282 282 282 280
298 299 299 300 301 301 300 293 298 295 291 285 288 297 296 301 301 299 298 295 295 294 293 288 286 283 288 281 285 284 282 284 280 278 278 281 282 281 282 280 280 280 280 280
299 298 300 301 301 301 298 293 299 299 292 284 287 294 296 299 298 298 298 296 293 290 287 285 283 285 284 281 284 280 283 280 277 276 281 280 277 280 282 280 279 279 278 278
298 300 300 301 301 301 295 287 296 299 298 287 282 293 294 297 298 298 297 295 294 292 288 285 286 290 283 275 276 281 283 283 283 280 283 281 281 281 282 280 280 281 279 279
299 300 300 301 300 297 289 288 293 298 297 285 283 284 292 296 296 295 293 295 293 291 288 285 285 285 285 277 273 279 280 281 282 283 283 281 281 280 282 282 282 283 281 281
300 300 301 300 301 299 293 297 299 299 293 289 279 283 286 295 288 285 291 287 289 288 288 286 284 283 279 275 275 278 281 282 282 282 284 282 282 283 283 284 283 281 279 279
301 301 301 299 294 290 294 300 301 299 293 282 281 279 279 291 288 288 288 288 283 287 283 284 284 278 277 279 279 279 281 281 281 282 282 282 281 282 283 283 282 280 279 279
300 298 291 285 293 300 300 296 290 288 290 288 282 285 280 288 285 284 284 284 281 278 281 284 279 277 284 286 284 284 283 284 283 279 279 281 281 281 282 282 282 281 279 277
295 287 287 294 300 294 289 284 283 284 281 284 283 285 284 290 284 282 284 279 280 277 279 279 276 275 280 284 284 284 284 285 284 283 282 282 283 282 282 282 282 280 278 277
292 294 297 295 291 286 282 278 281 281 280 282 284 284 287 287 287 282 282 280 278 274 279 275 271 277 284 284 284 284 285 287 285 284 282 282 283 284 284 283 281 279 277 275
295 291 286 285 281 275 274 272 277 276 281 284 284 282 286 286 286 281 280 274 273 280 269 273 275 280 286 286 286 285 286 286 285 283 282 283 284 284 283 279 278 276 275 274
285 282 276 278 273 277 280 280 281 282 284 286 284 282 283 280 281 277 273 276 278 268 267 274 276 284 284 284 284 284 283 283 283 282 284 282 280 278 278 277 276 275 273 272
283 282 275 276 281 284 285 284 282 282 283 283 283 281 281 278 276 277 276 271 268 272 272 281 280 283 281 283 283 282 279 279 280 280 278 277 277 276 275 276 276 275 273 272
283 283 278 283 284 284 284 282 286 287 282 282 282 278 274 274 277 276 272 274 271 273 280 282 284 283 283 282 282 280 278 278 276 277 276 276 276 275 274 274 274 273 273 271
283 282 285 284 284 284 285 285 285 286 283 277 280 274 275 279 274 276 281 272 271 281 281 282 283 284 283 282 281 277 276 275 274 275 275 275 274 274 273 271 272 273 273 272

GFSNW_sfc_thetae_129.txt.gz
Theta_e
305 304 305 305 305 305 303 296 286 299 302 288 286 285 290 294 293 296 293 293 292 289 288 286 284 285 288 289 288 284 285 281 276 280 284 285 283 281 281 275 275 276 275 275
304 304 304 305 304 304 297 291 289 299 299 284 284 287 289 292 292 292 291 291 293 292 287 283 286 286 289 289 286 284 285 279 273 277 280 283 280 283 283 282 279 276 270 273
304 304 303 303 303 304 298 289 283 289 292 286 286 284 287 288 293 292 293 293 293 289 284 288 284 283 288 289 288 293 288 280 278 276 278 280 278 281 283 280 273 276 275 275
304 303 303 303 303 302 296 290 284 285 281 285 287 286 286 286 286 292 293 289 291 287 284 284 283 285 285 287 290 286 283 278 275 279 281 281 280 279 280 276 279 274 277 277
300 301 303 302 302 302 293 286 285 284 282 286 285 288 285 284 287 289 288 287 290 289 285 284 282 284 284 284 287 283 282 276 273 269 280 280 277 279 279 278 278 277 275 278
301 301 301 301 301 300 291 294 292 286 284 283 285 284 285 285 287 289 291 289 288 288 290 292 290 293 292 289 284 282 279 273 270 270 279 279 273 279 279 278 280 280 276 280
301 300 300 300 301 300 293 293 294 287 280 283 283 286 286 285 287 284 290 291 288 291 292 291 291 289 288 286 285 285 276 274 276 271 276 267 277 284 283 281 282 282 280 278
300 300 300 301 301 302 293 293 293 289 280 285 285 286 286 288 288 287 287 291 294 292 291 286 282 280 281 283 284 283 281 278 274 274 273 276 280 283 282 280 279 283 280 281
299 300 300 301 301 301 296 292 294 292 286 283 288 285 286 283 284 284 287 292 291 292 286 281 277 275 278 278 280 284 282 281 278 276 270 270 279 285 287 285 272 282 282 279
299 300 300 300 300 301 297 291 294 292 286 288 290 285 285 287 284 282 286 289 290 290 283 281 278 277 282 277 277 278 277 276 276 276 275 278 284 286 287 272 275 282 281 279
298 299 299 300 300 300 297 293 294 292 287 289 293 293 287 287 287 281 284 287 288 285 282 281 279 276 280 279 282 280 279 276 276 278 275 273 286 285 279 281 282 282 281 279
298 298 299 299 300 301 299 290 296 295 289 289 294 295 296 293 292 287 286 286 284 284 284 282 282 281 278 279 275 287 280 282 279 280 279 282 283 282 284 284 283 281 281 280
298 298 298 299 300 300 299 291 294 294 289 288 289 289 296 299 297 296 287 286 289 286 287 283 283 278 282 279 280 283 284 287 281 283 282 282 283 283 284 283 282 282 282 278
298 298 298 299 300 300 299 292 294 293 290 284 288 295 294 300 299 298 297 293 292 291 289 285 283 283 288 281 285 283 282 286 283 281 279 281 282 283 283 280 281 281 280 279
298 298 299 299 300 301 298 292 295 296 288 281 287 292 295 299 298 296 298 295 293 290 286 287 286 287 286 283 284 281 284 283 280 278 282 283 278 279 281 279 278 280 279 278
298 298 299 300 300 300 294 287 296 298 296 285 283 292 293 296 297 297 295 295 294 291 286 284 286 290 285 276 277 283 284 282 283 281 283 281 279 280 281 279 279 279 279 278
298 299 299 300 300 296 287 285 293 299 298 287 283 285 293 296 297 295 294 296 294 291 288 285 285 285 283 276 275 280 279 281 283 283 282 280 280 277 281 280 280 282 280 280
299 299 299 300 299 297 290 295 300 298 292 290 282 283 288 294 288 288 293 290 291 290 288 285 283 283 280 276 277 278 281 282 282 282 282 282 281 280 280 281 280 278 278 278
298 299 300 297 291 288 290 300 299 297 293 284 283 279 279 293 289 288 288 288 282 286 283 284 284 279 277 279 280 279 281 281 281 281 281 280 280 280 280 281 279 278 278 279
299 296 290 285 291 300 299 295 287 288 290 288 281 282 280 288 285 284 284 283 281 279 282 285 280 277 283 284 284 283 282 283 282 279 279 280 280 281 282 281 281 280 280 278
291 289 287 293 300 293 288 284 284 285 283 282 282 283 283 289 283 283 285 281 281 278 279 278 276 276 280 283 283 283 283 283 283 281 282 282 282 282 282 281 281 281 279 278
292 294 297 296 290 286 282 280 280 280 280 281 280 283 286 286 289 284 283 281 279 274 278 275 271 275 282 283 283 283 283 283 282 282 282 281 282 283 283 282 280 279 278 276
293 289 283 284 280 271 274 269 276 273 280 281 283 282 284 287 286 281 281 275 273 279 273 274 274 278 282 282 282 282 284 284 283 282 281 281 282 283 282 279 278 277 275 275
283 279 272 277 271 275 277 278 279 281 282 285 286 281 285 281 280 276 273 276 278 269 267 273 273 280 283 283 282 282 283 283 283 282 280 281 282 279 280 278 277 276 274 274
282 282 273 274 281 283 284 283 279 280 283 284 284 281 282 279 276 277 276 273 269 272 271 275 281 279 283 283 283 282 280 278 281 280 281 279 277 276 276 278 278 277 274 273
284 283 280 283 284 284 278 277 282 283 281 283 283 278 274 273 276 275 271 274 270 270 273 282 278 282 283 282 282 281 278 277 279 277 275 274 275 275 275 275 275 274 274 272
282 278 284 284 284 283 284 285 283 286 283 278 280 273 274 278 273 275 277 270 270 279 280 282 283 283 282 282 281 279 276 274 273 272 274 273 273 274 274 272 273 274 274 273

GFSNW_sfc_thetae_132.txt.gz
Theta_e
306 306 305 305 305 306 303 296 285 298 304 289 287 286 290 294 292 295 293 292 291 289 287 285 284 284 286 288 287 283 285 282 277 280 283 284 282 280 280 273 275 276 275 275
305 305 305 304 304 305 298 291 289 299 299 284 285 288 290 292 291 291 291 290 291 291 287 284 286 286 288 288 285 284 285 280 274 277 279 282 279 281 281 281 280 275 270 274
304 305 304 304 304 305 298 289 284 289 291 289 287 286 287 287 292 292 293 292 293 288 285 287 284 283 287 288 288 292 289 281 278 276 278 280 278 281 282 281 274 277 276 278
304 304 304 303 303 304 296 290 285 285 282 286 287 287 286 286 286 291 292 289 290 288 284 283 282 283 283 286 289 285 285 280 276 279 281 280 280 279 280 277 280 275 277 277
303 303 304 303 302 303 293 286 286 283 282 286 285 287 284 284 286 288 287 286 290 288 285 285 282 284 282 282 284 283 283 277 274 271 280 280 277 278 279 279 279 278 277 277
302 302 302 303 302 301 290 291 290 287 284 283 284 284 285 285 287 288 290 288 288 286 288 291 291 290 289 288 284 283 282 278 276 273 278 279 273 275 277 277 279 279 275 280
301 302 300 297 302 300 292 292 293 287 280 283 284 286 286 285 287 282 288 289 287 289 290 289 288 287 286 287 285 285 278 278 278 275 276 269 277 282 282 281 282 281 281 280
301 301 300 298 302 301 290 293 292 288 280 283 283 285 285 286 286 287 287 289 292 292 290 285 281 280 282 282 284 283 282 279 275 274 273 277 279 281 281 280 280 283 281 279
300 300 300 299 300 300 292 290 295 291 282 282 287 284 285 282 283 283 286 291 291 290 283 283 278 277 280 278 280 283 282 280 277 275 272 269 277 284 286 284 273 282 282 280
299 300 300 299 299 299 294 288 294 292 285 288 288 283 283 286 284 281 284 287 286 288 281 279 279 277 282 276 277 277 277 275 275 275 275 277 284 285 286 273 275 282 282 280
299 300 299 299 299 299 296 289 293 290 287 288 292 293 286 287 286 281 284 285 286 282 283 282 280 278 279 279 281 279 278 276 273 277 276 272 286 284 279 281 281 282 280 279
299 298 299 299 299 300 297 288 293 294 287 288 294 294 294 293 292 288 285 285 285 284 281 280 280 276 276 278 274 284 278 280 278 280 279 284 286 284 284 284 283 281 280 279
298 298 298 299 300 300 297 291 294 292 286 285 286 286 295 298 296 296 286 285 288 286 287 282 282 278 281 277 276 281 283 285 280 282 283 284 284 284 284 284 284 282 281 279
298 298 298 299 300 300 298 293 293 291 287 278 282 295 291 296 298 298 295 291 291 289 287 282 282 279 284 276 281 280 280 285 282 280 283 284 284 284 284 282 282 281 279 279
298 298 298 299 300 300 297 294 293 294 286 279 281 292 295 297 299 297 297 295 292 288 285 286 283 284 286 285 284 283 284 283 282 280 285 284 281 280 283 281 280 280 279 277
298 298 299 299 299 299 294 285 294 295 292 285 281 291 292 295 297 296 295 295 294 292 288 287 288 289 286 279 280 283 286 284 285 283 284 282 280 280 281 281 279 280 280 279
298 298 299 299 299 295 289 286 291 297 294 286 281 281 292 296 296 293 294 296 293 292 288 284 284 284 286 275 274 283 281 281 284 283 283 279 280 277 280 280 280 282 278 279
298 298 299 299 298 297 291 294 298 297 291 290 281 281 285 295 288 288 293 290 292 290 289 285 283 282 278 278 281 279 282 283 282 282 282 281 281 280 279 279 279 278 277 277
298 298 299 296 293 287 289 300 299 297 292 284 283 279 279 293 288 289 289 290 284 288 283 284 284 279 278 282 282 280 281 282 281 281 280 280 280 279 278 278 278 277 277 277
298 295 289 283 290 299 299 294 288 288 288 288 280 282 283 289 286 284 284 285 282 281 283 284 280 279 284 284 283 283 283 282 282 279 279 279 279 279 278 279 278 279 278 278
292 286 285 291 299 292 286 283 283 284 282 285 283 284 284 289 283 283 284 282 281 277 279 281 279 277 280 283 282 282 283 282 282 282 282 282 281 280 281 280 280 280 279 277
291 292 295 294 290 285 282 281 282 282 281 281 282 282 285 286 289 284 284 281 279 275 279 276 272 277 282 282 282 282 282 282 282 282 282 281 282 283 283 282 280 279 278 276
292 290 286 283 282 269 273 272 275 272 278 279 281 281 284 286 285 281 280 276 275 280 274 274 275 278 282 281 282 282 283 282 282 281 281 281 280 282 282 278 278 277 275 275
282 279 269 274 268 272 273 275 274 278 278 282 281 279 282 281 281 278 277 276 278 270 269 273 272 279 280 281 282 282 281 283 283 282 280 278 282 281 278 277 276 276 274 274
280 278 271 274 279 279 283 280 278 278 282 282 280 280 282 280 278 278 277 274 271 272 271 271 281 278 283 283 283 282 281 275 273 273 276 281 279 278 274 276 277 275 274 273
281 282 281 283 283 283 282 282 275 281 280 282 282 280 276 275 276 274 271 273 270 270 275 281 278 280 282 283 282 281 280 281 281 280 280 278 276 273 272 275 275 274 274 273
281 280 284 284 284 283 282 276 278 282 282 278 280 274 274 278 273 274 276 269 269 279 280 282 283 282 282 282 281 279 278 275 277 276 276 271 272 273 273 272 271 274 274 273